[[{"header":{"parameterUnit":"m.s-1","parameterCategory":1,"la1":30.6,"la2":28.766,"lo1":-90.7593,"lo2":-88.6598,"dx":0.0162,"dy":0.0183,"nx":116,"ny":114,"refTime":"2023-01-28T06:00:00:Z","depth":0,"parameterNumber":2,"parameterNumberName":"U-component_of_WINDS"},"data":[0.0,0.0,0.0,0.0,0.0,0.0,0.0,0.0,0.0,0.0,0.0,0.0,0.0,0.0,0.0,0.0,0.0,0.0,0.0,0.0,0.0,0.0,0.0,0.0,0.0,0.0,0.0,0.0,0.0,0.0,0.0,0.0,0.0,0.0,0.0,0.0,0.0,0.0,0.0,0.0,0.0,0.0,0.0,0.0,0.0,0.0,0.0,0.0,0.0,0.0,0.0,0.0,0.0,0.0,0.0,0.0,0.0,0.0,0.0,0.0,0.0,0.0,0.0,0.0,0.0,0.0,0.0,0.0,0.0,0.0,0.0,0.0,0.0,0.0,0.0,0.0,0.0,0.0,0.0,0.0,0.0,0.0,0.0,0.0,0.0,0.0,0.0,0.0,0.0,0.0,0.0,0.0,0.0,0.0,0.0,0.0,0.0,0.0,0.0,0.0,0.0,0.0,0.0,0.0,0.0,0.0,0.0,0.0,0.0,0.0,0.0,0.0,0.0,0.0,0.0,0.0,0.0,0.0,0.0,0.0,0.0,0.0,0.0,0.0,0.0,0.0,0.0,0.0,0.0,0.0,0.0,0.0,0.0,0.0,0.0,0.0,0.0,0.0,0.0,0.0,0.0,0.0,0.0,0.0,0.0,0.0,0.0,0.0,0.0,0.0,0.0,0.0,0.0,0.0,0.0,0.0,0.0,0.0,0.0,0.0,0.0,0.0,0.0,0.0,0.0,0.0,0.0,0.0,0.0,0.0,0.0,0.0,0.0,0.0,0.0,0.0,0.0,0.0,0.0,0.0,0.0,0.0,0.0,0.0,0.0,0.0,0.0,0.0,0.0,0.0,0.0,0.0,0.0,0.0,0.0,0.0,0.0,0.0,0.0,0.0,0.0,0.0,0.0,0.0,0.0,0.0,0.0,0.0,0.0,0.0,0.0,0.0,0.0,0.0,0.0,0.0,0.0,0.0,0.0,0.0,0.0,0.0,0.0,0.0,0.0,0.0,0.0,0.0,0.0,0.0,0.0,0.0,0.0,0.0,0.0,0.0,0.0,0.0,0.0,0.0,0.0,0.0,0.0,0.0,0.0,0.0,0.0,0.0,0.0,0.0,0.0,0.0,0.0,0.0,0.0,0.0,0.0,0.0,0.0,0.0,0.0,0.0,0.0,0.0,0.0,0.0,0.0,0.0,0.0,0.0,0.0,0.0,0.0,0.0,0.0,0.0,0.0,0.0,0.0,0.0,0.0,0.0,0.0,0.0,0.0,0.0,0.0,0.0,0.0,0.0,0.0,0.0,0.0,0.0,0.0,0.0,0.0,0.0,0.0,0.0,0.0,0.0,0.0,0.0,0.0,0.0,0.0,0.0,0.0,0.0,0.0,0.0,0.0,0.0,0.0,0.0,0.0,0.0,0.0,0.0,0.0,0.0,0.0,0.0,0.0,0.0,0.0,0.0,0.0,0.0,0.0,0.0,0.0,0.0,0.0,0.0,0.0,0.0,0.0,0.0,0.0,0.0,0.0,0.0,0.0,0.0,0.0,0.0,0.0,0.0,0.0,0.0,0.0,0.0,0.0,0.0,0.0,0.0,0.0,0.0,0.0,0.0,0.0,0.0,0.0,0.0,0.0,0.0,0.0,0.0,0.0,0.0,0.0,0.0,0.0,0.0,0.0,0.0,0.0,0.0,0.0,0.0,0.0,0.0,0.0,0.0,0.0,0.0,0.0,0.0,0.0,0.0,0.0,0.0,0.0,0.0,0.0,0.0,0.0,0.0,0.0,0.0,0.0,0.0,0.0,0.0,0.0,0.0,0.0,0.0,0.0,0.0,0.0,0.0,0.0,0.0,0.0,0.0,0.0,0.0,0.0,0.0,0.0,0.0,0.0,0.0,0.0,0.0,0.0,0.0,0.0,0.0,0.0,0.0,0.0,0.0,0.0,0.0,0.0,0.0,0.0,0.0,0.0,0.0,0.0,0.0,0.0,0.0,0.0,0.0,0.0,0.0,0.0,0.0,0.0,0.0,0.0,0.0,0.0,0.0,0.0,0.0,0.0,0.0,0.0,0.0,0.0,0.0,0.0,0.0,0.0,0.0,0.0,0.0,0.0,0.0,0.0,0.0,0.0,0.0,0.0,0.0,0.0,0.0,0.0,0.0,0.0,0.0,0.0,0.0,0.0,0.0,0.0,0.0,0.0,0.0,0.0,0.0,0.0,0.0,0.0,0.0,0.0,0.0,0.0,0.0,0.0,0.0,0.0,0.0,0.0,0.0,0.0,0.0,0.0,0.0,0.0,0.0,0.0,0.0,0.0,0.0,0.0,0.0,0.0,0.0,0.0,0.0,0.0,0.0,0.0,0.0,0.0,0.0,0.0,0.0,0.0,0.0,0.0,0.0,0.0,0.0,0.0,0.0,0.0,0.0,0.0,0.0,0.0,0.0,0.0,0.0,0.0,0.0,0.0,0.0,0.0,0.0,0.0,0.0,0.0,0.0,0.0,0.0,0.0,0.0,0.0,0.0,0.0,0.0,0.0,0.0,0.0,0.0,0.0,0.0,0.0,0.0,0.0,0.0,0.0,0.0,0.0,0.0,0.0,0.0,0.0,0.0,0.0,0.0,0.0,0.0,0.0,0.0,0.0,0.0,0.0,0.0,0.0,0.0,0.0,0.0,0.0,0.0,0.0,0.0,0.0,0.0,0.0,0.0,0.0,0.0,0.0,0.0,0.0,0.0,0.0,0.0,0.0,0.0,0.0,0.0,0.0,0.0,0.0,0.0,0.0,0.0,0.0,0.0,0.0,0.0,0.0,0.0,0.0,0.0,0.0,0.0,0.0,0.0,0.0,0.0,0.0,0.0,0.0,0.0,0.0,0.0,0.0,0.0,0.0,0.0,0.0,0.0,0.0,0.0,0.0,0.0,0.0,0.0,0.0,0.0,0.0,0.0,0.0,0.0,0.0,0.0,0.0,0.0,0.0,0.0,0.0,0.0,0.0,0.0,0.0,0.0,0.0,0.0,0.0,0.0,0.0,0.0,0.0,0.0,0.0,0.0,0.0,0.0,0.0,0.0,0.0,0.0,0.0,0.0,0.0,0.0,0.0,0.0,0.0,0.0,0.0,0.0,0.0,0.0,0.0,0.0,0.0,0.0,0.0,0.0,0.0,0.0,0.0,0.0,0.0,0.0,0.0,0.0,0.0,0.0,0.0,0.0,0.0,0.0,0.0,0.0,0.0,0.0,0.0,0.0,0.0,0.0,0.0,0.0,0.0,0.0,0.0,0.0,0.0,0.0,0.0,0.0,0.0,0.0,0.0,0.0,0.0,0.0,0.0,0.0,0.0,0.0,0.0,0.0,0.0,0.0,0.0,0.0,0.0,0.0,0.0,0.0,0.0,0.0,0.0,0.0,0.0,0.0,0.0,0.0,0.0,0.0,0.0,0.0,0.0,0.0,0.0,0.0,0.0,0.0,0.0,0.0,0.0,0.0,0.0,0.0,0.0,0.0,0.0,0.0,0.0,0.0,0.0,0.0,0.0,0.0,0.0,0.0,0.0,0.0,0.0,0.0,0.0,0.0,0.0,0.0,0.0,0.0,0.0,0.0,0.0,0.0,0.0,0.0,0.0,0.0,0.0,0.0,0.0,0.0,0.0,0.0,0.0,0.0,0.0,0.0,0.0,0.0,0.0,0.0,0.0,0.0,0.0,0.0,0.0,0.0,0.0,0.0,0.0,0.0,0.0,0.0,0.0,0.0,0.0,0.0,0.0,0.0,0.0,0.0,0.0,0.0,0.0,0.0,0.0,0.0,0.0,0.0,0.0,0.0,0.0,0.0,0.0,0.0,0.0,0.0,0.0,0.0,0.0,0.0,0.0,0.0,0.0,0.0,0.0,0.0,0.0,0.0,0.0,0.0,0.0,0.0,0.0,0.0,0.0,0.0,0.0,0.0,0.0,0.0,0.0,0.0,0.0,0.0,0.0,0.0,0.0,0.0,0.0,0.0,0.0,0.0,0.0,0.0,0.0,0.0,0.0,0.0,0.0,0.0,0.0,0.0,0.0,0.0,0.0,0.0,0.0,0.0,0.0,0.0,0.0,0.0,0.0,0.0,0.0,0.0,0.0,0.0,0.0,0.0,0.0,0.0,0.0,0.0,0.0,0.0,0.0,0.0,0.0,0.0,0.0,0.0,0.0,0.0,0.0,0.0,0.0,0.0,0.0,0.0,0.0,0.0,0.0,0.0,0.0,0.0,0.0,0.0,0.0,0.0,0.0,0.0,0.0,0.0,0.0,0.0,0.0,0.0,0.0,0.0,0.0,0.0,0.0,0.0,0.0,0.0,0.0,0.0,0.0,0.0,0.0,0.0,0.0,0.0,0.0,0.0,0.0,0.0,0.0,0.0,0.0,0.0,0.0,0.0,0.0,0.0,0.0,0.0,0.0,0.0,0.0,0.0,0.0,0.0,0.0,0.0,0.0,0.0,0.0,0.0,0.0,0.0,0.0,0.0,0.0,0.0,0.0,0.0,0.0,0.0,0.0,0.0,0.0,0.0,0.0,0.0,0.0,0.0,0.0,0.0,0.0,0.0,0.0,0.0,0.0,0.0,0.0,0.0,0.0,0.0,0.0,0.0,0.0,0.0,0.0,0.0,0.0,0.0,0.0,0.0,0.0,0.0,0.0,0.0,0.0,0.0,0.0,0.0,0.0,0.0,0.0,0.0,0.0,0.0,0.0,0.0,0.0,0.0,0.0,0.0,0.0,0.0,0.0,0.0,0.0,0.0,0.0,0.0,0.0,0.0,0.0,0.0,0.0,0.0,0.0,0.0,0.0,0.0,0.0,0.0,0.0,0.0,0.0,0.0,0.0,0.0,0.0,0.0,0.0,0.0,0.0,0.0,0.0,0.0,0.0,0.0,0.0,0.0,0.0,0.0,0.0,0.0,0.0,0.0,0.0,0.0,0.0,0.0,0.0,0.0,0.0,0.0,0.0,0.0,0.0,0.0,0.0,0.0,0.0,0.0,0.0,0.0,0.0,0.0,0.0,0.0,0.0,0.0,0.0,0.0,0.0,0.0,0.0,0.0,0.0,0.0,0.0,0.0,0.0,0.0,0.0,0.0,0.0,0.0,0.0,0.0,0.0,0.0,0.0,0.0,0.0,0.0,0.0,0.0,0.0,0.0,0.0,0.0,0.0,0.0,0.0,0.0,0.0,0.0,0.0,0.0,0.0,0.0,0.0,0.0,0.0,0.0,0.0,0.0,0.0,0.0,0.0,0.0,0.0,0.0,0.0,0.0,0.0,0.0,0.0,0.0,0.0,0.0,0.0,0.0,0.0,0.0,0.0,0.0,0.0,0.0,0.0,0.0,0.0,0.0,0.0,0.0,0.0,0.0,0.0,0.0,0.0,0.0,0.0,0.0,0.0,0.0,0.0,0.0,0.0,0.0,0.0,0.0,0.0,0.0,0.0,0.0,0.0,0.0,0.0,0.0,0.0,0.0,0.0,0.0,0.0,0.0,0.0,0.0,0.0,0.0,0.0,0.0,0.0,0.0,0.0,0.0,0.0,0.0,0.0,0.0,0.0,0.0,0.0,0.0,0.0,0.0,0.0,0.0,0.0,0.0,0.0,0.0,0.0,0.0,0.0,0.0,0.0,0.0,0.0,0.0,0.0,0.0,0.0,0.0,0.0,0.0,0.0,0.0,0.0,0.0,0.0,0.0,0.0,0.0,0.0,0.0,0.0,0.0,0.0,0.0,0.0,0.0,0.0,0.0,0.0,0.0,0.0,0.0,0.0,0.0,0.0,0.0,0.0,0.0,0.0,0.0,0.0,0.0,0.0,0.0,0.0,0.0,0.0,0.0,0.0,0.0,0.0,0.0,0.0,0.0,0.0,0.0,0.0,0.0,0.0,0.0,0.0,0.0,0.0,0.0,0.0,0.0,0.0,0.0,0.0,0.0,0.0,0.0,0.0,0.0,0.0,0.0,0.0,0.0,0.0,0.0,0.0,0.0,0.0,0.0,0.0,0.0,0.0,0.0,0.0,0.0,0.0,0.0,0.0,0.0,0.0,0.0,0.0,0.0,0.0,0.0,0.0,0.0,0.0,0.0,0.0,0.0,-3.9928,0.0,0.0,0.0,0.0,0.0,0.0,0.0,0.0,0.0,0.0,0.0,0.0,0.0,0.0,0.0,0.0,0.0,0.0,0.0,0.0,0.0,0.0,0.0,0.0,0.0,0.0,0.0,0.0,0.0,0.0,0.0,0.0,0.0,0.0,0.0,0.0,0.0,0.0,0.0,-4.0643,-4.0718,-4.0742,-4.0674,-4.0679,-4.0742,0.0,0.0,0.0,0.0,0.0,0.0,0.0,0.0,0.0,0.0,0.0,0.0,0.0,0.0,0.0,0.0,0.0,0.0,0.0,0.0,0.0,0.0,0.0,0.0,0.0,0.0,0.0,0.0,0.0,0.0,0.0,0.0,0.0,0.0,0.0,0.0,0.0,0.0,0.0,0.0,0.0,0.0,0.0,0.0,0.0,0.0,0.0,0.0,0.0,0.0,0.0,0.0,0.0,0.0,0.0,0.0,0.0,0.0,0.0,0.0,0.0,0.0,0.0,0.0,0.0,0.0,0.0,0.0,0.0,0.0,0.0,-3.978,0.0,0.0,0.0,0.0,0.0,0.0,0.0,0.0,0.0,0.0,0.0,0.0,0.0,0.0,0.0,0.0,0.0,0.0,0.0,0.0,0.0,0.0,0.0,0.0,0.0,0.0,0.0,0.0,0.0,0.0,0.0,0.0,0.0,0.0,0.0,-4.0496,-4.0512,-4.053,-4.0672,-4.0785,-4.0867,-4.0854,-4.0824,-4.082,-4.0742,0.0,0.0,0.0,0.0,0.0,0.0,0.0,0.0,0.0,0.0,0.0,0.0,0.0,0.0,0.0,0.0,0.0,0.0,0.0,0.0,0.0,0.0,0.0,0.0,0.0,0.0,0.0,0.0,0.0,0.0,0.0,0.0,0.0,0.0,0.0,0.0,0.0,0.0,0.0,0.0,0.0,0.0,0.0,0.0,0.0,0.0,0.0,0.0,0.0,0.0,0.0,0.0,0.0,0.0,0.0,0.0,0.0,0.0,0.0,0.0,0.0,0.0,0.0,-4.0223,-4.009,-4.009,-3.9688,-3.9387,-3.92,-3.9364,-3.9312,-3.9138,0.0,0.0,0.0,0.0,0.0,0.0,0.0,0.0,0.0,0.0,0.0,0.0,0.0,0.0,0.0,0.0,0.0,0.0,0.0,0.0,0.0,0.0,0.0,0.0,0.0,0.0,0.0,0.0,0.0,0.0,0.0,0.0,0.0,-4.0496,-4.0496,-4.0559,-4.0667,-4.0875,-4.1021,-4.1149,-4.1025,-4.0964,-4.0962,-4.0843,-4.0796,-4.0768,0.0,0.0,0.0,0.0,0.0,0.0,0.0,0.0,0.0,0.0,0.0,0.0,0.0,0.0,0.0,0.0,0.0,0.0,0.0,0.0,0.0,0.0,0.0,0.0,0.0,0.0,0.0,0.0,0.0,0.0,0.0,0.0,0.0,0.0,0.0,0.0,0.0,0.0,0.0,0.0,0.0,-4.1128,-4.1002,0.0,0.0,0.0,0.0,0.0,0.0,0.0,0.0,0.0,0.0,0.0,0.0,0.0,-4.063,-4.0534,-4.0512,-4.0496,-4.0496,-4.0223,-4.0101,-4.0072,-3.9449,-3.93,-3.95,-3.903,0.0,-3.9118,-3.9202,0.0,0.0,0.0,0.0,0.0,0.0,0.0,0.0,0.0,0.0,0.0,0.0,0.0,0.0,0.0,0.0,0.0,0.0,0.0,0.0,0.0,0.0,0.0,0.0,0.0,0.0,0.0,0.0,0.0,0.0,0.0,-4.0496,-4.0496,-4.0561,-4.0701,-4.0875,-4.0969,-4.1077,-4.1191,-4.1149,-4.1105,-4.1105,-4.1052,-4.095,-4.0797,-4.0766,0.0,0.0,0.0,0.0,0.0,0.0,0.0,0.0,0.0,0.0,0.0,0.0,0.0,0.0,0.0,0.0,0.0,0.0,0.0,0.0,0.0,0.0,0.0,0.0,0.0,0.0,0.0,0.0,0.0,0.0,0.0,0.0,0.0,0.0,0.0,0.0,0.0,0.0,0.0,-4.115,-4.115,-4.1021,-4.1126,-4.1171,0.0,0.0,0.0,0.0,0.0,0.0,0.0,0.0,0.0,-4.0703,-4.063,-4.0559,-4.0496,-4.0496,-4.0496,-4.0496,-4.0223,-4.01,-4.0074,-3.9589,-3.9463,-3.9561,-3.9115,-3.8994,-3.9104,-3.9101,-3.9198,-3.9346,0.0,0.0,0.0,0.0,0.0,-3.9576,0.0,0.0,0.0,0.0,0.0,0.0,0.0,0.0,0.0,0.0,0.0,0.0,0.0,0.0,0.0,-4.1019,0.0,0.0,0.0,0.0,0.0,0.0,0.0,-4.0519,-4.0552,-4.0701,-4.0856,-4.0996,-4.1028,-4.1103,-4.1191,-4.1191,-4.1191,-4.1191,-4.1191,-4.1082,-4.0908,-4.0867,-4.0857,-4.0854,0.0,0.0,0.0,0.0,0.0,0.0,0.0,0.0,0.0,0.0,0.0,0.0,0.0,0.0,0.0,0.0,0.0,0.0,0.0,0.0,0.0,0.0,0.0,0.0,0.0,0.0,0.0,0.0,0.0,0.0,0.0,0.0,0.0,0.0,0.0,0.0,0.0,-4.1148,-4.115,-4.1021,-4.1126,-4.1171,0.0,0.0,0.0,0.0,0.0,0.0,-4.0775,-4.0721,-4.068,-4.0662,-4.0552,-4.0496,-4.0496,-4.0496,-4.0496,-4.0496,-4.0304,-4.0198,-4.0192,-3.9872,-3.9774,-3.9823,-3.9402,-3.9233,-3.9223,-3.9062,-3.9003,-3.9026,-3.9272,-3.9365,-3.9371,-3.937,-3.9367,-3.9339,0.0,0.0,0.0,0.0,0.0,0.0,0.0,0.0,0.0,0.0,0.0,0.0,0.0,0.0,-4.1149,-4.1019,-4.0996,-4.095,0.0,0.0,-4.0697,-4.0686,-4.0574,-4.0559,-4.0686,-4.0873,-4.099,-4.0996,-4.1127,-4.1191,-4.1191,-4.1191,-4.1191,-4.1191,-4.1191,-4.1191,-4.1171,-4.1031,-4.0992,-4.0986,-4.0857,0.0,0.0,0.0,0.0,0.0,0.0,0.0,0.0,0.0,0.0,0.0,0.0,0.0,0.0,0.0,0.0,0.0,0.0,0.0,0.0,0.0,0.0,0.0,0.0,0.0,0.0,0.0,0.0,0.0,0.0,0.0,0.0,0.0,0.0,0.0,0.0,0.0,0.0,-4.1021,-4.1126,0.0,0.0,0.0,0.0,-4.0813,-4.0801,-4.077,-4.0715,-4.0703,-4.0649,-4.0519,-4.0504,-4.0496,-4.0496,-4.0496,-4.0496,-4.0496,-4.0489,-4.0489,-4.0469,-4.0194,-4.0203,-4.0411,-3.9823,-3.9569,-3.9529,-3.8946,-3.8723,-3.8719,-3.8741,-3.8756,-3.875,-3.8753,-3.8753,-3.875,0.0,0.0,0.0,0.0,0.0,0.0,0.0,0.0,0.0,0.0,0.0,0.0,0.0,-4.1191,-4.1171,-4.1129,-4.1128,-4.1077,-4.0947,0.0,-4.0851,-4.0781,-4.0713,-4.0752,-4.0896,-4.0955,-4.1049,-4.1128,-4.1171,-4.1191,-4.1191,-4.1191,-4.1191,-4.1191,-4.1191,-4.1191,-4.1191,-4.115,-4.1128,-4.1127,-4.1078,-4.1054,0.0,0.0,0.0,0.0,0.0,0.0,0.0,0.0,0.0,0.0,0.0,0.0,0.0,0.0,0.0,0.0,0.0,0.0,0.0,0.0,0.0,0.0,0.0,0.0,0.0,0.0,0.0,0.0,0.0,0.0,0.0,0.0,0.0,0.0,0.0,0.0,0.0,-4.1129,-4.1171,0.0,-4.1076,-4.1023,-4.0988,-4.0925,-4.0812,-4.0735,-4.0703,-4.0616,-4.0545,-4.0496,-4.0496,-4.0496,-4.0496,-4.0496,-4.0496,-4.0496,-4.0496,-4.0496,-4.0496,-4.0397,-4.0406,-4.0481,-4.0101,-3.9797,-3.9564,-3.9131,-3.8873,-3.8707,-3.8707,-3.8707,-3.8707,-3.8707,-3.8707,-3.8707,0.0,0.0,0.0,0.0,0.0,0.0,0.0,0.0,0.0,0.0,0.0,-4.1191,-4.1191,-4.1191,-4.1191,-4.1191,-4.1191,-4.1151,-4.1078,0.0,-4.0914,-4.0867,-4.0867,-4.0911,-4.0994,-4.1031,-4.1105,-4.1191,-4.1191,-4.1191,-4.1191,-4.1191,-4.1191,-4.1191,-4.1191,-4.1191,-4.1191,-4.1191,-4.1191,-4.1191,-4.1191,-4.1191,-4.1191,0.0,0.0,0.0,0.0,0.0,0.0,0.0,0.0,0.0,0.0,0.0,0.0,0.0,0.0,0.0,0.0,0.0,0.0,0.0,0.0,0.0,0.0,0.0,0.0,0.0,0.0,0.0,0.0,0.0,0.0,0.0,0.0,0.0,0.0,0.0,-4.1191,-4.1191,-4.1191,-4.1171,-4.1148,-4.1052,-4.0988,-4.0947,-4.0791,-4.0697,-4.0697,-4.0581,-4.0496,-4.0496,-4.0496,-4.0496,-4.0496,-4.0496,-4.0496,-4.0496,-4.0496,-4.0496,-4.0496,-4.0496,-4.0496,-4.0489,-4.0321,-4.0062,-3.9735,-3.942,-3.909,-3.8829,-3.8735,-3.8707,-3.8707,-3.8707,-3.8707,-3.8707,0.0,0.0,0.0,0.0,0.0,0.0,0.0,0.0,0.0,0.0,-4.1191,-4.1191,-4.1191,-4.1191,-4.1191,-4.1191,-4.1191,-4.1191,-4.1191,-4.0957,-4.087,-4.0996,-4.1017,-4.1017,-4.1017,-4.1129,-4.1191,-4.1191,-4.1191,-4.1191,-4.1191,-4.1191,-4.1191,-4.1191,-4.1191,-4.1191,-4.1191,-4.1191,-4.1191,-4.1191,-4.1191,-4.1191,-4.1191,0.0,0.0,0.0,0.0,0.0,0.0,0.0,0.0,0.0,0.0,0.0,0.0,0.0,0.0,0.0,0.0,0.0,0.0,0.0,0.0,0.0,0.0,0.0,0.0,0.0,0.0,0.0,0.0,0.0,0.0,0.0,0.0,0.0,-4.1191,-4.1191,-4.1191,-4.1191,-4.1191,-4.115,-4.1023,-4.1017,-4.0955,-4.0813,-4.0752,-4.0703,-4.0697,-4.0581,-4.0496,-4.0496,-4.0496,-4.0496,-4.0496,-4.0496,-4.0496,-4.0496,-4.0496,-4.0496,-4.0496,-4.0496,-4.0496,-4.0496,-4.0496,-4.0347,-4.0071,-3.9724,-3.9389,-3.9058,-3.8803,-3.8707,-3.8707,-3.8707,-3.8707,-3.8707,0.0,0.0,0.0,0.0,0.0,0.0,0.0,0.0,0.0,0.0,-4.1191,-4.1191,-4.1191,-4.1191,-4.1191,-4.1191,-4.1191,-4.1191,-4.1191,0.0,-4.1104,-4.1149,-4.1149,-4.1149,-4.1149,-4.1171,-4.1191,-4.1191,-4.1191,-4.1191,-4.1191,-4.1191,-4.1191,-4.1191,-4.1191,-4.1191,-4.1191,-4.1191,-4.1191,-4.1191,-4.1191,-4.1191,-4.1191,0.0,0.0,0.0,0.0,0.0,0.0,0.0,0.0,0.0,0.0,0.0,0.0,0.0,0.0,0.0,0.0,0.0,0.0,0.0,0.0,0.0,0.0,0.0,0.0,0.0,0.0,0.0,0.0,0.0,0.0,0.0,-4.1191,-4.1191,-4.1191,-4.1191,-4.1191,-4.1191,-4.1191,-4.1191,-4.115,-4.1149,-4.1082,-4.0957,-4.0836,-4.0752,-4.0703,-4.0581,-4.0496,-4.0496,-4.0496,-4.0496,-4.0496,-4.0496,-4.0496,-4.0496,-4.0496,-4.0496,-4.0496,-4.0496,-4.0496,-4.0496,-4.0496,-4.0212,-3.9731,-3.9634,-3.9288,-3.8803,-3.8735,-3.8707,-3.8707,-3.8707,-3.8707,-3.8707,0.0,0.0,0.0,0.0,0.0,0.0,0.0,0.0,0.0,0.0,-4.1191,-4.1191,-4.1191,-4.1191,-4.1191,-4.1191,-4.1191,-4.1191,-4.1191,0.0,-4.1171,-4.1126,-4.1171,-4.1191,-4.1191,-4.1191,-4.1191,-4.1191,-4.1191,-4.1191,-4.1191,-4.1191,-4.1191,-4.1191,-4.1191,-4.1191,-4.1191,-4.1191,-4.1191,-4.1191,-4.1191,-4.1191,-4.1191,-4.1191,-4.1126,-4.1017,-4.1056,-4.1051,-4.0996,-4.0996,0.0,0.0,0.0,0.0,0.0,0.0,0.0,0.0,0.0,0.0,0.0,0.0,0.0,0.0,0.0,0.0,0.0,0.0,0.0,0.0,0.0,0.0,0.0,0.0,-4.1191,-4.1191,-4.1191,-4.1191,-4.1191,-4.1191,-4.1191,-4.1191,-4.1191,-4.1191,-4.1171,-4.1082,-4.0959,-4.0836,-4.0757,-4.0649,-4.0733,-4.1035,-4.1046,-4.1219,-4.1593,-4.1593,-4.1593,-4.1593,-4.1593,-4.1593,-4.1593,-4.1593,-4.1593,0.0,-4.1593,-4.1384,-4.1021,-4.0405,-3.994,0.0,0.0,0.0,0.0,0.0,-3.8707,-3.8707,0.0,0.0,0.0,0.0,0.0,0.0,0.0,0.0,0.0,0.0,0.0,-4.1191,-4.1191,-4.1191,-4.1191,-4.1191,-4.1191,-4.1191,0.0,-4.1191,-4.1149,-4.1025,-4.1148,-4.1191,-4.1191,-4.1191,-4.1191,-4.1191,-4.1191,-4.1191,-4.1191,-4.1191,-4.1191,-4.1191,-4.1191,-4.1191,-4.1191,-4.1191,-4.1191,-4.1191,-4.1191,-4.1191,-4.1191,-4.1191,-4.1127,-4.1048,-4.115,-4.1127,-4.1023,-4.1023,0.0,0.0,0.0,0.0,0.0,0.0,0.0,0.0,0.0,0.0,0.0,0.0,0.0,0.0,0.0,0.0,0.0,0.0,0.0,0.0,0.0,0.0,0.0,0.0,-4.1191,-4.1191,-4.1191,-4.1191,-4.1191,-4.1191,-4.1191,-4.1191,-4.1191,-4.1191,-4.1191,-4.1171,-4.1154,-4.1083,-4.0941,0.0,0.0,0.0,0.0,-4.2316,-4.3085,-4.3104,-4.3104,-4.3104,-4.3104,-4.3104,-4.3104,-4.3104,-4.3104,-4.3104,-4.3104,-4.3069,-4.294,-4.1581,-4.0983,-4.0766,-3.9268,-3.8707,-3.8707,-3.8707,-3.8707,0.0,0.0,0.0,0.0,0.0,0.0,0.0,0.0,0.0,0.0,-4.1191,-4.1191,-4.1191,-4.1191,-4.1191,-4.1191,-4.1191,-4.1191,-4.1191,-4.1191,-4.1191,-4.1191,-4.1151,-4.1191,-4.1191,-4.1191,-4.1191,-4.1191,-4.1191,-4.1191,-4.1191,-4.1191,-4.1191,-4.1191,-4.1191,-4.1191,-4.1191,-4.1191,-4.1191,-4.1191,-4.1191,-4.1191,-4.1191,-4.1191,-4.1191,-4.1172,-4.1151,-4.1191,-4.1172,-4.1151,-4.1151,-4.1171,-4.1191,-4.1171,-4.1104,0.0,0.0,0.0,0.0,0.0,0.0,0.0,0.0,0.0,0.0,0.0,0.0,0.0,0.0,0.0,0.0,0.0,0.0,0.0,-4.1171,-4.1191,-4.1191,-4.1191,-4.1191,-4.1191,-4.1191,-4.1191,-4.1191,-4.1191,-4.1191,-4.115,-4.1051,-4.1665,-4.1977,-4.1782,-4.2367,0.0,-4.2843,-4.2854,-4.2931,-4.3104,-4.3104,-4.3104,-4.3104,0.0,0.0,-4.3104,-4.3104,-4.3104,-4.3104,-4.3104,-4.2953,-4.266,-4.2105,-4.156,-4.0892,-3.932,-3.8707,-3.8707,-3.8707,-3.8707,-3.8707,0.0,0.0,0.0,0.0,0.0,0.0,0.0,0.0,0.0,0.0,-4.1191,-4.1191,-4.1191,-4.1191,-4.1191,-4.1191,-4.1191,-4.1191,-4.1191,-4.1191,-4.1191,-4.1191,-4.1191,-4.1191,-4.1191,-4.1191,-4.1191,-4.1191,-4.1191,-4.1191,-4.1191,-4.1191,-4.1191,-4.1191,-4.1191,-4.1191,-4.1191,-4.1191,-4.1191,-4.1191,-4.1127,-4.1149,-4.1191,-4.1127,-4.1103,-4.1082,-4.1025,-4.103,-4.1103,-4.1103,-4.1149,-4.1191,-4.1191,-4.1105,-4.0964,0.0,0.0,0.0,0.0,0.0,0.0,0.0,0.0,0.0,0.0,0.0,0.0,0.0,0.0,-4.085,-4.0986,0.0,-4.1031,-4.1171,-4.1191,-4.1191,-4.1191,-4.1191,-4.1191,-4.1191,-4.1191,-4.1191,-4.1191,-4.1562,-4.1777,-4.171,-4.251,-4.2902,-4.2704,-4.3082,-4.3427,-4.369,-4.3701,-4.3912,-4.4355,-4.4355,-4.4355,-4.4355,-4.4355,-4.4355,-4.4355,-4.4355,-4.4355,-4.4355,-4.4355,-4.4264,-4.403,-4.308,-4.2168,-4.1246,-4.0273,-3.9884,-3.9848,-3.9441,-3.9294,-3.9294,0.0,0.0,0.0,0.0,0.0,0.0,0.0,0.0,0.0,0.0,-4.1191,-4.1191,-4.1191,-4.1191,-4.1191,0.0,-4.1191,-4.1191,-4.1191,-4.1191,-4.1191,-4.1191,-4.1191,-4.1191,-4.1191,-4.1191,-4.1191,-4.1191,-4.1191,-4.1191,-4.1191,-4.1191,-4.1191,-4.1191,-4.1191,-4.1191,-4.1191,-4.1171,-4.1151,-4.115,-4.1021,-4.1025,-4.1104,-4.0983,-4.0976,-4.0988,-4.0854,-4.0867,-4.0959,-4.0959,-4.1026,-4.1126,-4.1126,-4.1051,-4.0947,-4.0817,-4.0732,0.0,0.0,0.0,0.0,0.0,0.0,0.0,0.0,-4.0786,-4.0781,-4.0854,-4.0874,-4.0914,-4.1023,-4.1049,-4.1078,-4.1171,-4.1191,-4.1191,-4.1191,-4.1191,-4.1269,-4.1406,-4.1426,-4.1426,-4.1426,-4.2168,-4.2656,-4.2656,-4.3457,-4.3875,-4.3681,-4.381,-4.4101,-4.4592,-4.4573,-4.4893,-4.5594,-4.5594,-4.5594,-4.5594,-4.5594,-4.5594,-4.5594,-4.5594,-4.5594,-4.5594,-4.5594,-4.5568,-4.5419,-4.4152,-4.303,-4.2042,-4.1754,-4.1618,-4.146,-4.0487,-4.012,-4.012,0.0,0.0,0.0,0.0,0.0,0.0,0.0,0.0,0.0,0.0,0.0,0.0,0.0,0.0,0.0,-4.1191,-4.1191,-4.1191,-4.1191,-4.1191,-4.1191,-4.1191,-4.1191,-4.1191,-4.1191,-4.1191,-4.1191,-4.1191,-4.1191,-4.1191,-4.1191,-4.1191,-4.1191,-4.1191,-4.1191,-4.1191,-4.1191,-4.1077,-4.1023,-4.1019,-4.0874,-4.0824,-4.0839,-4.0762,-4.0832,-4.0988,-4.0854,-4.0805,-4.0816,-4.0816,-4.0824,-4.0831,-4.0831,-4.0824,-4.0817,-4.0726,-4.0709,-4.0661,-4.0549,-4.0596,-4.0713,-4.0775,-4.0781,-4.0847,0.0,-4.1049,-4.0992,-4.1127,-4.115,-4.1151,-4.1171,-4.1171,-4.1172,-4.1191,-4.1191,-4.1191,-4.1191,-4.1191,-4.1465,-4.2187,-4.2266,-4.2266,-4.2266,-4.3047,-4.3555,-4.3555,-4.4355,-4.4781,-4.4655,-4.5269,-4.5623,-4.5621,-4.5522,-4.5498,-4.5594,-4.5594,-4.5594,-4.5594,-4.5594,-4.5594,-4.5594,-4.5594,-4.5594,-4.5594,-4.5594,-4.5429,-4.514,-4.496,-4.4449,-4.3737,-4.3676,-4.3497,-4.3039,-4.1534,-4.0967,-4.0967,0.0,0.0,0.0,0.0,0.0,0.0,0.0,0.0,0.0,0.0,0.0,0.0,0.0,0.0,-4.1191,-4.1191,-4.1191,-4.1191,-4.1191,-4.1191,-4.1191,-4.1191,-4.1191,-4.1191,-4.1191,-4.1191,-4.1191,-4.1191,-4.1191,-4.1191,-4.1191,-4.1191,-4.1191,-4.1191,-4.1191,-4.115,-4.108,-4.1025,-4.0957,-4.089,-4.0785,-4.0776,-4.0781,-4.0642,-4.0684,-4.0814,-4.0663,-4.0682,0.0,-4.0732,-4.0761,-4.0797,-4.0797,-4.0775,-4.0742,-4.0715,-4.063,-4.0603,-4.0651,-4.0722,-4.0775,-4.0896,-4.086,-4.082,-4.095,-4.0883,-4.084,-4.095,-4.0962,-4.0992,-4.1077,-4.1081,-4.1105,-4.1191,-4.1191,-4.1191,-4.1191,-4.1601,-4.2012,-4.2363,-4.3301,-4.3711,-4.3203,-4.3945,-4.4453,-4.4453,-4.5254,-4.5699,-4.5564,-4.5847,-4.5955,-4.5809,-4.5747,-4.568,-4.5594,-4.5594,-4.5594,-4.5594,-4.5594,-4.5594,-4.5594,-4.5594,-4.5594,-4.5594,-4.5594,-4.5513,-4.539,-4.5191,-4.4931,-4.4625,-4.4428,-4.4266,-4.3964,-4.2392,-4.1809,-4.1809,0.0,0.0,0.0,0.0,0.0,0.0,0.0,0.0,0.0,0.0,0.0,0.0,0.0,0.0,-4.1151,-4.1191,-4.1191,-4.1191,-4.1191,-4.1191,-4.1191,-4.1191,-4.1191,-4.1191,-4.1191,-4.1191,-4.1191,-4.1191,-4.1191,-4.1191,-4.1191,-4.1191,-4.1191,-4.1191,-4.1191,-4.1127,-4.0994,-4.0959,-4.0887,-4.0761,-4.0678,-4.0665,-4.0698,-4.0561,-4.0559,-4.0636,-4.053,-4.0566,-4.0636,-4.0636,-4.067,-4.0723,-4.0723,-4.0688,-4.0636,-4.0636,-4.0581,-4.0537,-4.0685,-4.0747,-4.0792,-4.0887,-4.085,-4.0797,-4.0797,-4.0752,-4.0732,-4.0781,-4.0797,-4.082,-4.0922,-4.0933,-4.0992,-4.1127,-4.1149,-4.1151,-4.1191,-4.1894,-4.248,-4.2734,-4.4082,-4.4844,-4.4453,-4.498,-4.5351,-4.5351,-4.5937,-4.6268,-4.615,-4.6117,-4.6011,-4.5838,-4.5803,-4.5733,-4.5594,-4.5594,-4.5594,-4.5594,-4.5594,-4.5594,-4.5594,-4.5594,-4.5594,-4.5594,-4.5594,-4.5594,-4.5577,-4.5332,-4.5191,-4.5074,-4.4837,-4.467,-4.4452,-4.3338,-4.2937,-4.2937,0.0,0.0,0.0,0.0,0.0,0.0,0.0,0.0,0.0,0.0,0.0,0.0,0.0,0.0,-4.1055,-4.1191,-4.1191,-4.1191,-4.1191,-4.1191,-4.1191,-4.1191,-4.1191,-4.1191,-4.1191,-4.1191,-4.1191,-4.1191,-4.1191,-4.1191,-4.1191,-4.1191,-4.1191,-4.1191,-4.1191,-4.1127,-4.0992,-4.0864,-4.0776,-4.0692,-4.0559,-4.0512,-4.0512,-4.0496,-4.0496,-4.0504,-4.0496,-4.0496,-4.0504,-4.0504,-4.0512,-4.0512,-4.0512,-4.0512,-4.0504,-4.0504,-4.0496,-4.0496,-4.0512,-4.0603,-4.0703,-4.0709,-4.0757,-4.0797,-4.0797,-4.0797,-4.0793,-4.0797,-4.0797,-4.0801,-4.0801,-4.0805,-4.0854,-4.099,-4.1017,-4.1052,-4.1171,-4.1894,-4.2715,-4.3555,-4.4453,-4.5312,0.0,-4.625,-4.6269,-4.6269,-4.6289,-4.6308,-4.6289,-4.6173,-4.6039,-4.5899,-4.5825,-4.5733,-4.5594,-4.5594,-4.5594,-4.5594,-4.5594,-4.5594,-4.5594,-4.5594,-4.5594,-4.5594,-4.5594,-4.5594,-4.5594,-4.5586,-4.54,-4.5096,-4.5085,-4.4884,-4.4593,-4.4548,-4.4516,-4.4516,0.0,0.0,0.0,0.0,0.0,0.0,0.0,0.0,0.0,0.0,0.0,0.0,0.0,0.0,0.0,0.0,-4.1191,-4.1191,-4.1191,-4.1191,-4.1191,-4.1191,-4.1191,-4.1191,-4.1191,-4.1191,-4.1191,-4.1191,-4.1191,-4.1191,-4.1191,-4.1191,-4.1191,-4.1191,-4.1191,-4.1078,-4.0864,-4.0813,-4.0703,-4.0566,-4.0519,-4.0496,-4.0496,-4.0496,-4.0496,-4.0496,0.0,-4.0496,-4.0496,-4.0496,-4.0496,-4.0496,-4.0496,-4.0496,-4.0496,-4.0496,-4.0496,-4.0527,-4.061,-4.0681,-4.0701,-4.0757,-4.0747,-4.0736,-4.0736,-4.0659,-4.0604,-4.0604,-4.0604,-4.0636,-4.0715,-4.0736,-4.0757,-4.0854,-4.093,-4.1216,-4.1837,-4.2692,-4.3594,-4.4453,-4.5332,-4.5976,0.0,0.0,0.0,-4.6308,-4.6308,-4.6308,-4.6308,-4.6268,-4.6173,-4.6039,-4.5923,-4.5825,-4.5725,-4.5651,-4.5651,-4.5725,-4.5725,-4.5696,-4.5594,-4.5594,-4.5594,-4.5594,-4.5594,-4.5594,-4.5594,-4.5594,-4.5522,-4.5429,-4.5429,-4.5362,-4.5263,-4.5263,-4.5263,-4.5192,0.0,0.0,0.0,0.0,0.0,0.0,0.0,0.0,0.0,0.0,0.0,0.0,0.0,0.0,0.0,0.0,0.0,-4.1191,-4.1191,-4.1191,-4.1191,-4.1191,-4.115,-4.1128,-4.1128,-4.108,-4.108,-4.1128,-4.1128,-4.115,-4.1191,-4.1191,-4.1191,-4.1191,-4.115,-4.1017,-4.0797,-4.0775,-4.0665,-4.0496,-4.0496,-4.0496,-4.0496,-4.0496,-4.0496,0.0,-4.0496,-4.0496,-4.0496,-4.0496,-4.0496,-4.0496,-4.0496,-4.0496,-4.0496,-4.0496,-4.0496,-4.0519,-4.0603,-4.063,-4.0642,-4.0685,-4.0653,-4.063,-4.063,-4.0566,-4.0496,-4.0496,-4.0496,-4.0534,-4.061,-4.063,-4.0654,-4.0757,-4.0835,-4.1211,-4.2165,-4.3083,-4.4004,-4.4883,-4.5762,-4.6308,-4.6308,-4.6308,0.0,-4.6308,-4.6308,-4.6308,-4.6308,-4.6308,-4.6246,-4.6091,-4.6027,-4.5927,-4.583,-4.5744,-4.5749,-4.5803,-4.5803,-4.5725,-4.5594,-4.5594,-4.5594,-4.5594,-4.5594,-4.5594,-4.5594,-4.5594,-4.5594,-4.5594,-4.5594,-4.5594,-4.5594,-4.5594,-4.5594,-4.5513,0.0,0.0,0.0,0.0,0.0,0.0,0.0,0.0,0.0,0.0,0.0,0.0,0.0,0.0,0.0,0.0,0.0,0.0,-4.1191,-4.1191,-4.1191,-4.1191,-4.1055,-4.0992,-4.0992,-4.0867,-4.0864,-4.0992,-4.0992,-4.1054,-4.1171,-4.1171,-4.1171,-4.1171,-4.1051,-4.0917,-4.0785,-4.0721,-4.0623,-4.0496,-4.0496,-4.0496,-4.0496,-4.0496,-4.0496,-4.0496,-4.0496,-4.0496,-4.0496,-4.0496,-4.0496,-4.0496,-4.0496,-4.0496,-4.0496,-4.0496,-4.0496,-4.0496,-4.0496,-4.0496,-4.0496,-4.0496,-4.0496,-4.0496,-4.0496,-4.0496,-4.0496,-4.0496,-4.0496,-4.0496,-4.0496,-4.0496,-4.054,-4.0668,-4.0694,-4.1098,-4.2195,-4.3066,-4.3965,-4.4941,-4.5801,-4.6308,-4.6308,-4.6308,0.0,-4.6308,0.0,-4.6308,-4.6308,-4.6308,-4.6246,-4.6115,-4.6091,-4.6042,-4.592,-4.5912,-4.5862,-4.5803,-4.5809,-4.5733,-4.5594,-4.5594,-4.5594,-4.5594,-4.5594,-4.5594,-4.5594,-4.5594,-4.5594,-4.5594,-4.5594,-4.5594,-4.5594,-4.5594,-4.5594,-4.5559,0.0,0.0,0.0,0.0,0.0,0.0,0.0,0.0,0.0,0.0,0.0,0.0,0.0,0.0,0.0,0.0,0.0,0.0,-4.1191,-4.1104,-4.1052,-4.1052,-4.092,-4.0857,-4.0857,-4.0813,-4.0813,-4.0857,-4.0857,-4.0867,-4.0908,-4.0908,-4.0908,-4.0908,-4.0867,-4.08,-4.0715,-4.0715,-4.0623,-4.0496,-4.0496,-4.0496,-4.0496,-4.0496,-4.0496,-4.0496,-4.0496,-4.0496,-4.0496,-4.0496,-4.0496,-4.0496,-4.0496,-4.0496,-4.0496,-4.0496,-4.0496,-4.0496,-4.0496,-4.0496,-4.0496,-4.0496,-4.0496,-4.0496,-4.0496,-4.0496,-4.0496,-4.0496,-4.0496,-4.0496,-4.0496,-4.0496,-4.0519,-4.0547,-4.0638,-4.1261,-4.2896,-4.34,-4.4199,-4.5781,-4.6152,-4.6308,-4.6308,-4.6308,-4.6308,0.0,-4.6308,-4.6308,-4.6308,-4.6308,-4.6289,-4.6247,-4.6149,-4.6083,-4.6044,-4.605,-4.5967,-4.5803,-4.5845,-4.5776,-4.5594,-4.5594,-4.5594,-4.5594,-4.5594,-4.5594,-4.5594,-4.5594,-4.5594,-4.5594,-4.5594,-4.5594,-4.5594,-4.5594,-4.5594,-4.5559,0.0,0.0,0.0,0.0,0.0,0.0,0.0,0.0,0.0,0.0,0.0,0.0,0.0,0.0,0.0,0.0,0.0,0.0,0.0,-4.0955,-4.0914,-4.0914,-4.0805,-4.0762,-4.0762,-4.0707,-4.0701,-4.0762,-4.0762,-4.077,-4.0797,-4.0797,-4.0797,-4.0797,-4.0766,-4.0736,-4.0692,-4.0643,-4.0574,0.0,0.0,-4.0496,-4.0496,-4.0496,-4.0496,-4.0496,-4.0496,-4.0496,-4.0496,-4.0496,-4.0496,-4.0496,-4.0496,-4.0496,-4.0496,-4.0496,-4.0496,-4.0496,-4.0496,-4.0496,-4.0496,-4.0496,-4.0496,-4.0496,-4.0496,-4.0496,-4.0496,-4.0496,-4.0496,-4.0496,-4.0496,-4.0496,-4.0496,-4.0496,-4.0554,-4.1251,-4.305,-4.3432,-4.418,-4.5996,-4.6269,-4.6308,-4.6308,-4.6308,-4.6308,0.0,-4.6308,-4.6308,-4.6308,-4.6308,-4.6308,-4.6308,-4.6225,-4.6185,-4.6191,-4.6185,-4.6067,-4.5847,-4.5886,-4.5794,-4.5594,-4.5594,-4.5594,-4.5594,0.0,-4.5594,-4.5594,-4.5594,-4.5594,-4.5594,-4.5594,-4.5594,-4.5594,-4.5594,-4.5594,-4.5577,0.0,0.0,0.0,0.0,0.0,0.0,0.0,0.0,0.0,0.0,0.0,0.0,0.0,0.0,0.0,0.0,0.0,0.0,0.0,0.0,0.0,-4.0796,-4.071,-4.0667,-4.0667,-4.0559,-4.0559,-4.0667,-4.0667,-4.0699,-4.0755,-4.0755,-4.0755,-4.0751,-4.0707,-4.0667,-4.0681,-4.0545,-4.0496,-4.0496,-4.0496,-4.0496,-4.0496,0.0,0.0,-4.0496,-4.0496,-4.0496,-4.0496,-4.0496,-4.0496,-4.0496,-4.0496,-4.0496,-4.0496,-4.0496,-4.0496,-4.0496,-4.0496,-4.0496,-4.0496,-4.0496,-4.0496,-4.0496,-4.0496,-4.0496,-4.0496,-4.0496,-4.0496,-4.0496,-4.0496,-4.0496,-4.0496,-4.0496,-4.0496,-4.1089,-4.2811,-4.3249,-4.4035,-4.5742,-4.6152,-4.6308,-4.6308,-4.6308,-4.6308,-4.6308,-4.6308,-4.6308,-4.6308,-4.6308,-4.6308,-4.6308,-4.6308,-4.6308,-4.6308,-4.6308,-4.6171,-4.5899,-4.5899,-4.5794,-4.5594,-4.5594,-4.5594,-4.5594,0.0,0.0,-4.5594,-4.5594,-4.5594,-4.5594,-4.5594,-4.5594,-4.5594,-4.5594,-4.5594,-4.5594,0.0,0.0,0.0,0.0,0.0,0.0,0.0,0.0,0.0,0.0,0.0,0.0,0.0,0.0,0.0,0.0,0.0,0.0,0.0,0.0,0.0,-4.0718,-4.0603,-4.053,-4.053,-4.0512,-4.0512,-4.053,-4.053,-4.0545,-4.0554,-4.0554,-4.0554,-4.0554,-4.0545,-4.053,-4.0523,-4.0512,-4.0496,-4.0496,-4.0496,-4.0496,-4.0496,0.0,0.0,0.0,-4.0496,-4.0496,-4.0496,-4.0496,-4.0496,-4.0496,-4.0496,-4.0496,-4.0496,-4.0496,-4.0496,-4.0496,-4.0496,-4.0496,-4.0496,-4.0496,-4.0496,-4.0496,-4.0496,-4.0496,-4.0496,-4.0496,-4.0496,-4.0496,-4.0496,-4.0496,-4.0496,-4.0496,-4.0496,-4.0916,-4.2121,-4.2941,-4.3843,-4.5055,-4.5859,-4.6308,-4.6308,-4.6308,-4.6308,0.0,-4.6308,-4.6308,-4.6308,-4.6308,-4.6308,-4.6308,-4.6308,-4.6308,-4.6308,-4.6308,-4.6171,-4.5899,-4.5899,-4.5794,-4.5594,-4.5594,-4.5594,-4.5594,0.0,0.0,-4.5594,-4.5594,-4.5594,-4.5594,-4.5594,-4.5594,-4.5594,-4.5594,-4.5594,-4.5594,0.0,0.0,0.0,0.0,0.0,0.0,0.0,0.0,0.0,0.0,0.0,0.0,0.0,0.0,0.0,0.0,0.0,0.0,0.0,0.0,0.0,0.0,0.0,0.0,-4.0496,-4.0496,-4.0496,-4.0496,0.0,-4.0496,-4.0496,-4.0496,-4.0496,-4.0496,-4.0496,-4.0496,-4.0496,-4.0496,-4.0496,-4.0496,-4.0496,-4.0496,0.0,0.0,0.0,0.0,-4.0496,-4.0496,-4.0496,-4.0496,-4.0496,-4.0496,-4.0496,-4.0496,-4.0496,-4.0496,-4.0496,-4.0496,-4.0496,-4.0496,-4.0496,-4.0496,-4.0496,-4.0496,-4.0496,-4.0496,-4.0496,-4.0496,-4.0496,-4.0496,-4.0496,-4.0496,-4.0496,-4.0496,-4.0496,-4.085,-4.1902,-4.2829,-4.3773,-4.4784,-4.5723,-4.6308,-4.6308,-4.6308,-4.6308,-4.6308,-4.6308,-4.6308,-4.6308,-4.6308,-4.6308,-4.6308,-4.6308,-4.6308,-4.6308,-4.6308,-4.6171,-4.5899,-4.5899,-4.5794,-4.5594,-4.5594,-4.5594,-4.5594,-4.5594,0.0,-4.5594,-4.5594,-4.5594,-4.5594,-4.5594,-4.5594,-4.5594,-4.5594,-4.5594,-4.5594,0.0,0.0,0.0,0.0,0.0,0.0,0.0,0.0,0.0,0.0,0.0,0.0,0.0,0.0,0.0,0.0,0.0,0.0,0.0,0.0,0.0,0.0,0.0,0.0,0.0,0.0,0.0,-4.0496,-4.0496,0.0,0.0,0.0,0.0,0.0,-4.0496,-4.0496,-4.0496,-4.0496,-4.0496,0.0,0.0,-4.0496,0.0,0.0,0.0,0.0,0.0,-4.0496,-4.0496,-4.0496,-4.0496,-4.0496,-4.0496,-4.0496,-4.0496,-4.0496,-4.0496,-4.0496,-4.0496,-4.0496,-4.0496,-4.0496,-4.0496,-4.0496,-4.0496,-4.0496,-4.0496,-4.0496,-4.0496,-4.0496,-4.0496,-4.0496,-4.0496,-4.0496,-4.0496,-4.0793,-4.1624,-4.2708,-4.3691,-4.4473,-4.5586,-4.6308,-4.6308,-4.6308,-4.6308,-4.6308,-4.6308,0.0,-4.6308,-4.6308,-4.6308,-4.6308,-4.6308,-4.6308,-4.6308,-4.6268,-4.6144,-4.5899,-4.5896,-4.5783,-4.5594,-4.5594,-4.5594,-4.5594,-4.5594,0.0,0.0,-4.5594,-4.5594,-4.5594,-4.5594,-4.5594,-4.5594,-4.5594,-4.5594,-4.5594,0.0,0.0,0.0,0.0,0.0,0.0,0.0,0.0,0.0,0.0,0.0,0.0,0.0,0.0,0.0,0.0,0.0,0.0,0.0,0.0,0.0,0.0,0.0,0.0,0.0,0.0,0.0,-4.0496,-4.0496,0.0,0.0,0.0,0.0,0.0,0.0,-4.0496,-4.0496,-4.0496,0.0,0.0,0.0,0.0,0.0,0.0,0.0,0.0,0.0,-4.0496,-4.0496,-4.0496,-4.0496,-4.0496,-4.0496,-4.0496,-4.0496,-4.0496,-4.0496,-4.0496,-4.0496,-4.0496,-4.0496,-4.0496,-4.0496,-4.0496,-4.0496,-4.0496,-4.0496,-4.0496,-4.0496,-4.0496,-4.0496,-4.0496,-4.0496,-4.0496,-4.0496,-4.0593,-4.087,-4.2354,-4.3496,-4.3769,-4.5273,-4.6308,-4.6308,-4.6308,-4.6308,-4.6308,0.0,0.0,-4.6308,-4.6308,-4.6308,-4.6308,-4.6308,-4.6308,-4.6308,-4.6175,-4.6042,-4.5899,-4.5836,-4.574,-4.5594,-4.5594,-4.5594,-4.5594,-4.5594,0.0,0.0,-4.5594,-4.5594,-4.5594,-4.5594,-4.5594,-4.5594,-4.5594,-4.5594,-4.5594,0.0,0.0,0.0,0.0,0.0,0.0,0.0,0.0,0.0,0.0,0.0,0.0,0.0,0.0,0.0,0.0,0.0,0.0,0.0,0.0,0.0,0.0,0.0,0.0,0.0,0.0,0.0,-4.0496,-4.0496,0.0,0.0,0.0,0.0,0.0,0.0,-4.0496,-4.0496,-4.0496,0.0,0.0,0.0,0.0,0.0,0.0,0.0,0.0,0.0,0.0,-4.0496,-4.0496,-4.0496,-4.0496,-4.0496,-4.0496,-4.0496,-4.0496,-4.0496,-4.0496,-4.0496,-4.0496,-4.0496,-4.0496,-4.0496,-4.0496,-4.0496,-4.0496,-4.0496,-4.0496,-4.0496,-4.0496,-4.0496,-4.0496,-4.0496,-4.0496,-4.0496,-4.0554,-4.0716,-4.2202,-4.3366,-4.3612,-4.5137,-4.6211,-4.6289,-4.6308,-4.6308,-4.6308,0.0,0.0,-4.6308,-4.6308,-4.6308,-4.6308,-4.6308,-4.6308,-4.6308,-4.6247,-4.6115,-4.5899,-4.5872,-4.577,-4.5594,-4.5594,-4.5594,-4.5594,-4.5594,0.0,0.0,-4.5594,-4.5594,-4.5594,-4.5594,-4.5594,-4.5594,-4.5594,-4.5594,-4.5594,0.0,0.0,0.0,0.0,0.0,0.0,0.0,0.0,0.0,0.0,0.0,0.0,0.0,0.0,0.0,0.0,0.0,0.0,0.0,0.0,0.0,0.0,0.0,0.0,0.0,0.0,0.0,-4.0496,-4.0496,-4.0496,0.0,0.0,-4.0496,-4.0496,0.0,0.0,0.0,0.0,0.0,0.0,0.0,0.0,0.0,0.0,0.0,0.0,0.0,0.0,0.0,0.0,0.0,-4.0496,-4.0496,-4.0496,-4.0496,-4.0496,-4.0496,-4.0496,-4.0496,-4.0496,-4.0496,-4.0496,-4.0496,-4.0496,-4.0496,-4.0496,-4.0496,-4.0496,-4.0496,-4.0496,-4.0496,-4.0496,-4.0496,-4.0496,-4.0496,-4.0554,-4.0677,-4.2137,-4.3304,-4.358,-4.5075,-4.6152,-4.6289,-4.6308,-4.6308,-4.6308,0.0,0.0,0.0,-4.6308,-4.6308,-4.6308,-4.6308,-4.6308,-4.6308,-4.6223,-4.6084,-4.5899,-4.5841,-4.5737,-4.5594,-4.5594,-4.5594,-4.5594,0.0,0.0,0.0,-4.5594,-4.5594,-4.5594,-4.5594,-4.5594,-4.5594,-4.5594,-4.5594,-4.5594,0.0,0.0,0.0,0.0,0.0,0.0,0.0,0.0,0.0,0.0,0.0,0.0,0.0,0.0,0.0,0.0,0.0,0.0,0.0,0.0,0.0,0.0,0.0,0.0,0.0,0.0,0.0,0.0,0.0,0.0,-4.0496,-4.0496,-4.0496,-4.0496,0.0,0.0,0.0,0.0,0.0,0.0,0.0,0.0,0.0,0.0,0.0,0.0,0.0,0.0,0.0,0.0,0.0,0.0,0.0,-4.0496,-4.0496,-4.0496,-4.0496,-4.0496,-4.0496,-4.0496,-4.0496,-4.0496,-4.0496,-4.0496,-4.0496,-4.0496,-4.0496,-4.0496,-4.0496,-4.0496,-4.0496,-4.0496,-4.0496,-4.0496,-4.0496,-4.0554,-4.0677,-4.2151,-4.3291,-4.3563,-4.5088,-4.6152,-4.6289,-4.6308,-4.6308,0.0,0.0,0.0,0.0,-4.6308,-4.6308,-4.6308,-4.6308,-4.6308,-4.6308,-4.6039,-4.5903,-4.5899,-4.5706,-4.5594,-4.5594,-4.5594,-4.5594,0.0,0.0,0.0,0.0,-4.5594,-4.5594,-4.5594,-4.5594,-4.5594,-4.5594,-4.5594,-4.5594,-4.5594,0.0,0.0,0.0,0.0,0.0,0.0,0.0,0.0,0.0,0.0,0.0,0.0,0.0,0.0,0.0,0.0,0.0,0.0,0.0,0.0,0.0,0.0,0.0,0.0,0.0,0.0,0.0,0.0,0.0,0.0,0.0,0.0,0.0,-4.0496,-4.0496,0.0,0.0,0.0,0.0,0.0,0.0,0.0,0.0,0.0,0.0,0.0,0.0,0.0,0.0,0.0,0.0,0.0,0.0,0.0,0.0,-4.0496,-4.0496,-4.0496,-4.0496,-4.0496,-4.0496,-4.0496,-4.0496,-4.0496,-4.0496,-4.0496,-4.0496,-4.0496,-4.0496,-4.0496,-4.0496,-4.0496,-4.0496,-4.0496,-4.0496,-4.0516,-4.0554,-4.2097,-4.3276,-4.3436,-4.5107,-4.625,-4.6308,0.0,-4.6308,0.0,0.0,0.0,0.0,-4.6308,-4.6308,-4.6308,-4.6308,-4.6308,-4.6308,-4.6119,-4.5988,-4.5899,-4.579,-4.5696,-4.5594,-4.5594,0.0,0.0,0.0,0.0,0.0,-4.5594,-4.5594,-4.5594,-4.5594,-4.5594,-4.5594,-4.5594,-4.5594,-4.5594,0.0,0.0,0.0,0.0,0.0,0.0,0.0,0.0,0.0,0.0,0.0,0.0,0.0,0.0,0.0,0.0,0.0,0.0,0.0,0.0,0.0,0.0,0.0,0.0,0.0,0.0,0.0,0.0,0.0,0.0,0.0,0.0,0.0,0.0,0.0,0.0,0.0,0.0,0.0,0.0,0.0,0.0,-4.4778,0.0,0.0,0.0,0.0,0.0,0.0,0.0,0.0,0.0,0.0,0.0,0.0,0.0,-4.0496,-4.0496,-4.0496,-4.0496,-4.0496,-4.0496,-4.0496,-4.0496,-4.0496,-4.0496,-4.0496,-4.0496,-4.0496,-4.0496,-4.0496,-4.0496,-4.0496,-4.0496,-4.0496,-4.0519,-4.0574,-4.2086,-4.3509,-4.4323,-4.5527,-4.6308,0.0,-4.6308,0.0,0.0,0.0,0.0,0.0,-4.6308,-4.6308,-4.6308,-4.6308,-4.6288,-4.6224,-4.6087,-4.5967,-4.5866,-4.5764,-4.5688,-4.5594,-4.5594,0.0,0.0,0.0,0.0,0.0,-4.5594,-4.5594,-4.5594,-4.5594,-4.5594,-4.5594,-4.5594,-4.5594,-4.5594,0.0,0.0,0.0,0.0,0.0,0.0,0.0,0.0,0.0,0.0,0.0,0.0,0.0,0.0,0.0,0.0,0.0,0.0,0.0,0.0,0.0,0.0,0.0,0.0,0.0,0.0,0.0,-4.0496,-4.0496,-4.0496,-4.0496,0.0,0.0,0.0,0.0,0.0,0.0,0.0,0.0,0.0,0.0,0.0,0.0,0.0,0.0,0.0,0.0,0.0,0.0,0.0,0.0,0.0,0.0,0.0,0.0,0.0,0.0,0.0,0.0,-4.0496,-4.0496,-4.0496,-4.0496,-4.0496,-4.0496,-4.0496,0.0,-4.0496,-4.0496,-4.0496,-4.0496,-4.0496,-4.0496,-4.0496,-4.0496,-4.0564,-4.0757,-4.2257,-4.4011,-4.5887,-4.6224,-4.6308,-4.6308,-4.6308,0.0,0.0,0.0,0.0,0.0,-4.6308,-4.6308,-4.6308,-4.6308,-4.6246,-4.6115,-4.5978,-4.5862,-4.5816,-4.5665,-4.5594,-4.5594,-4.5594,0.0,0.0,0.0,0.0,0.0,-4.5594,-4.5594,-4.5594,-4.5594,-4.5594,-4.5594,-4.5594,-4.5594,-4.5594,0.0,0.0,0.0,0.0,0.0,0.0,0.0,0.0,0.0,0.0,0.0,0.0,0.0,0.0,0.0,0.0,0.0,0.0,0.0,0.0,0.0,0.0,0.0,0.0,0.0,0.0,0.0,-4.0496,-4.0496,-4.0496,-4.0496,-4.0496,0.0,0.0,0.0,0.0,0.0,0.0,0.0,0.0,0.0,0.0,0.0,0.0,0.0,0.0,-4.5594,-4.5037,0.0,0.0,0.0,0.0,0.0,0.0,0.0,0.0,-4.0496,0.0,-4.0496,0.0,-4.0496,-4.0496,-4.0496,-4.0496,0.0,-4.0496,-4.0496,-4.0496,-4.0496,-4.0496,-4.0496,-4.0496,-4.0496,-4.0496,-4.0496,-4.0783,-4.1582,-4.3307,-4.4948,-4.6109,-4.6289,-4.6308,-4.6308,-4.6308,0.0,0.0,0.0,0.0,0.0,-4.6308,-4.6308,-4.6308,-4.6308,-4.6289,-4.6248,-4.6027,-4.5885,-4.5872,-4.5696,-4.5594,-4.5594,-4.5594,0.0,0.0,0.0,0.0,-4.5594,-4.5594,-4.5594,-4.5594,-4.5594,-4.5594,-4.5594,-4.5594,-4.5594,-4.5594,0.0,0.0,0.0,0.0,0.0,0.0,0.0,0.0,0.0,0.0,0.0,0.0,0.0,0.0,0.0,0.0,0.0,0.0,0.0,0.0,0.0,0.0,0.0,0.0,0.0,0.0,0.0,0.0,0.0,-4.0441,0.0,0.0,0.0,0.0,0.0,0.0,0.0,0.0,0.0,0.0,0.0,0.0,0.0,0.0,0.0,0.0,-4.5594,-4.5306,0.0,-4.3932,-4.3085,-4.2239,0.0,0.0,0.0,0.0,-4.0496,0.0,-4.0496,-4.0496,-4.0496,-4.0496,-4.0496,-4.0496,-4.0496,-4.0496,-4.0496,-4.0496,-4.0496,-4.0496,-4.0496,-4.0545,-4.0581,-4.0512,-4.0584,-4.1131,-4.2536,-4.4009,-4.5287,-4.6191,-4.6308,-4.6308,0.0,0.0,0.0,0.0,0.0,0.0,0.0,-4.6308,-4.6308,-4.6308,-4.6246,-4.6175,-4.6117,-4.5978,-4.5842,-4.5757,-4.5653,-4.5594,-4.5594,-4.5594,-4.5594,0.0,0.0,0.0,-4.5594,-4.5594,-4.5594,-4.5594,-4.5594,-4.5594,-4.5594,-4.5594,-4.5594,-4.5594,0.0,0.0,0.0,0.0,0.0,0.0,0.0,0.0,0.0,0.0,0.0,0.0,0.0,0.0,0.0,0.0,0.0,0.0,0.0,0.0,0.0,0.0,0.0,0.0,0.0,0.0,0.0,0.0,0.0,0.0,0.0,0.0,-4.0496,0.0,0.0,0.0,0.0,0.0,0.0,0.0,-4.3104,0.0,0.0,0.0,0.0,0.0,0.0,0.0,0.0,-4.4586,-4.3778,-4.2951,-4.2058,0.0,0.0,0.0,0.0,0.0,-4.0496,-4.0496,-4.0496,-4.0496,-4.0496,-4.0496,-4.0496,-4.0496,-4.0496,-4.0496,-4.0496,-4.0504,-4.0534,-4.0603,-4.0643,-4.0545,-4.0904,-4.1811,-4.355,-4.4602,-4.5469,-4.6211,-4.6308,0.0,0.0,0.0,0.0,0.0,0.0,0.0,0.0,-4.6308,-4.6308,-4.6308,-4.6173,-4.6036,-4.5903,-4.5881,-4.5794,-4.5627,-4.5612,-4.5594,-4.5594,-4.5594,-4.5594,0.0,0.0,0.0,-4.5594,-4.5594,-4.5594,-4.5594,-4.5594,-4.5594,-4.5594,-4.5594,-4.5594,-4.5594,0.0,0.0,0.0,0.0,0.0,0.0,0.0,0.0,0.0,0.0,0.0,0.0,0.0,0.0,0.0,0.0,0.0,0.0,0.0,0.0,0.0,0.0,0.0,0.0,0.0,0.0,0.0,0.0,0.0,0.0,-4.0449,-4.0481,-4.0496,0.0,0.0,0.0,0.0,0.0,0.0,0.0,0.0,0.0,0.0,0.0,0.0,0.0,0.0,0.0,0.0,-4.4586,-4.3778,-4.2951,-4.2058,0.0,0.0,0.0,0.0,0.0,-4.0496,-4.0496,-4.0496,-4.0496,-4.0496,-4.0496,-4.0496,-4.0496,-4.0496,-4.0496,-4.0496,-4.053,-4.0655,-4.0589,-4.0566,-4.0642,-4.1985,-4.3399,-4.4545,-4.5502,-4.6152,-4.6289,0.0,0.0,0.0,0.0,0.0,0.0,0.0,0.0,0.0,-4.6308,-4.6308,-4.6308,-4.6173,-4.6036,-4.5903,-4.5847,-4.5796,-4.5775,-4.5648,-4.5594,-4.5594,-4.5594,-4.5594,0.0,0.0,-4.5594,-4.5594,-4.5594,-4.5594,-4.5594,-4.5594,-4.5594,-4.5594,-4.5594,-4.5594,-4.5594,0.0,0.0,0.0,0.0,0.0,0.0,0.0,0.0,0.0,0.0,0.0,0.0,0.0,0.0,0.0,0.0,0.0,0.0,0.0,0.0,0.0,0.0,0.0,0.0,0.0,0.0,0.0,0.0,0.0,-3.9893,-4.0024,-4.0194,-4.0364,-4.0496,0.0,0.0,0.0,0.0,0.0,0.0,0.0,0.0,0.0,0.0,0.0,0.0,0.0,0.0,0.0,0.0,-4.4143,-4.3038,-4.2635,0.0,0.0,0.0,0.0,0.0,-4.0496,-4.0496,-4.0496,-4.0496,-4.0496,-4.0496,-4.0496,-4.0496,-4.0496,-4.0496,-4.0496,-4.0537,-4.0687,-4.067,-4.0873,-4.1509,-4.2677,-4.3851,-4.4813,-4.5721,-4.6308,0.0,0.0,0.0,0.0,0.0,0.0,0.0,0.0,0.0,0.0,0.0,-4.6308,-4.6308,-4.6108,-4.5951,-4.5899,-4.5757,-4.5685,-4.5685,-4.5627,-4.5594,-4.5594,-4.5594,-4.5594,-4.5594,0.0,-4.5594,-4.5594,-4.5594,-4.5594,-4.5594,-4.5594,-4.5594,-4.5594,-4.5594,-4.5594,-4.5594,0.0,0.0,0.0,0.0,0.0,0.0,0.0,0.0,0.0,0.0,0.0,0.0,0.0,0.0,0.0,0.0,0.0,0.0,0.0,0.0,0.0,0.0,0.0,0.0,0.0,0.0,-3.9389,-3.9212,-3.9389,-3.951,-3.9611,-3.9932,-4.0204,0.0,0.0,0.0,0.0,-4.0406,0.0,0.0,0.0,0.0,0.0,0.0,0.0,0.0,0.0,0.0,0.0,0.0,0.0,0.0,0.0,0.0,0.0,-4.0554,-4.0496,-4.0496,-4.0496,-4.0496,-4.0496,-4.0496,-4.0496,-4.0496,-4.0496,-4.0496,-4.0496,-4.0496,-4.0496,-4.0537,-4.0687,-4.0913,-4.1513,-4.2738,-4.3473,-4.4236,-4.5175,-4.5879,-4.6308,-4.6308,0.0,0.0,0.0,0.0,0.0,0.0,0.0,0.0,0.0,0.0,-4.6308,-4.6308,-4.6075,-4.5928,-4.5899,-4.5736,-4.5627,-4.5594,-4.5594,-4.5594,-4.5594,-4.5594,-4.5594,-4.5594,-4.5594,-4.5594,-4.5594,-4.5594,-4.5594,-4.5594,-4.5594,-4.5594,-4.5594,-4.5594,-4.5594,-4.5594,0.0,0.0,0.0,0.0,0.0,0.0,0.0,0.0,0.0,0.0,0.0,0.0,0.0,0.0,0.0,0.0,0.0,0.0,0.0,0.0,0.0,0.0,0.0,0.0,0.0,-3.945,-3.9276,-3.9564,-3.9276,-3.9308,-3.9611,-3.9932,-4.011,-4.0139,0.0,0.0,-4.0473,-4.0489,-4.1481,-4.3069,0.0,0.0,0.0,0.0,0.0,0.0,0.0,0.0,0.0,0.0,0.0,0.0,0.0,0.0,-4.1547,-4.0735,-4.0496,-4.0496,-4.0496,-4.0496,-4.0496,-4.0496,-4.0496,-4.0496,-4.0496,-4.0496,-4.0496,-4.0496,-4.0496,-4.0537,-4.0687,-4.1427,-4.2564,-4.4254,-4.4694,-4.5135,-4.6074,0.0,-4.6308,0.0,0.0,0.0,0.0,0.0,0.0,0.0,0.0,0.0,0.0,0.0,0.0,-4.6308,-4.615,-4.603,-4.5903,-4.5813,-4.5711,-4.5594,-4.5594,-4.5594,-4.5594,-4.5594,-4.5594,-4.5594,-4.5594,-4.5594,-4.5594,-4.5594,-4.5594,-4.5594,-4.5594,-4.5594,-4.5594,-4.5594,-4.5594,-4.5594,0.0,0.0,0.0,0.0,0.0,0.0,0.0,0.0,0.0,0.0,0.0,0.0,0.0,0.0,0.0,0.0,0.0,0.0,0.0,0.0,0.0,0.0,0.0,-3.9339,-3.9481,-3.9073,-3.899,-3.9289,-3.9364,-3.9587,-3.9912,-4.0032,0.0,0.0,0.0,0.0,-4.025,-4.0441,-4.1069,-4.2048,-4.2804,0.0,0.0,0.0,0.0,0.0,0.0,0.0,0.0,0.0,-4.5028,-4.4241,-4.3944,-4.2901,-4.1748,-4.1405,-4.0916,-4.0496,-4.0496,-4.0496,-4.0496,-4.0496,-4.0496,-4.0496,-4.0496,-4.0496,-4.0496,-4.0496,-4.0574,-4.0846,-4.1552,-4.2015,-4.2869,-4.4606,-4.493,-4.527,-4.6172,-4.6308,0.0,0.0,0.0,0.0,0.0,0.0,0.0,0.0,0.0,0.0,0.0,0.0,0.0,-4.6308,-4.6173,-4.6036,-4.5903,-4.5825,-4.5725,-4.5594,-4.5594,-4.5594,-4.5594,-4.5594,-4.5594,-4.5594,-4.5594,-4.5594,-4.5594,-4.5594,-4.5594,-4.5594,-4.5594,-4.5594,-4.5594,-4.5594,-4.5594,-4.5594,0.0,0.0,0.0,0.0,0.0,0.0,0.0,0.0,0.0,0.0,0.0,0.0,0.0,0.0,0.0,0.0,0.0,0.0,0.0,0.0,0.0,0.0,0.0,-3.9251,-3.9251,-3.9087,-3.9017,-3.9112,-3.9445,-3.9731,-3.9932,0.0,0.0,0.0,0.0,-4.0389,-4.0232,-4.0414,-4.0869,-4.1542,-4.2661,-4.3585,0.0,0.0,0.0,0.0,0.0,0.0,0.0,0.0,-4.5192,-4.4664,-4.4387,-4.3338,-4.2159,-4.1875,-4.1185,-4.0496,-4.0496,-4.0496,-4.0496,-4.0496,-4.0496,-4.0496,-4.0496,-4.0496,-4.0512,-4.0552,-4.0861,-4.1451,-4.2451,-4.2946,-4.3668,-4.5113,-4.537,-4.5625,-4.6211,0.0,0.0,0.0,0.0,0.0,0.0,0.0,0.0,0.0,0.0,0.0,0.0,0.0,0.0,0.0,-4.6173,-4.6036,-4.5903,-4.5825,-4.5725,-4.5594,-4.5594,-4.5594,-4.5594,-4.5594,-4.5594,-4.5594,-4.5594,-4.5594,-4.5594,-4.5594,-4.5594,-4.5594,-4.5594,-4.5594,-4.5594,-4.5594,-4.5594,-4.5594,0.0,0.0,0.0,0.0,0.0,0.0,0.0,0.0,0.0,0.0,0.0,0.0,0.0,0.0,0.0,0.0,0.0,0.0,0.0,0.0,0.0,0.0,0.0,-3.9599,-3.9599,-3.9599,-3.9438,-3.9112,-3.9438,-3.9611,-3.9622,-3.9943,0.0,0.0,0.0,-4.0496,-4.0496,-4.0496,-4.0989,-4.1865,-4.2739,-4.3566,-4.4374,0.0,0.0,0.0,0.0,0.0,0.0,0.0,-4.5594,-4.5451,-4.4579,-4.3765,-4.2939,-4.2071,-4.1212,-4.0516,-4.0496,-4.0496,-4.0496,-4.0496,-4.0496,-4.0496,-4.0496,-4.0496,-4.053,-4.0667,-4.1446,-4.2366,-4.3237,-4.4217,-4.5158,-4.5974,-4.6203,-4.6308,0.0,0.0,0.0,0.0,0.0,0.0,0.0,0.0,0.0,0.0,0.0,0.0,0.0,0.0,0.0,0.0,-4.6173,-4.6036,-4.5903,-4.5825,-4.5725,-4.5594,-4.5594,-4.5594,-4.5594,-4.5594,-4.5594,-4.5594,-4.5594,-4.5594,-4.5594,-4.5594,-4.5594,-4.5594,-4.5594,-4.5594,-4.5594,-4.5594,-4.5594,-4.5594,0.0,0.0,0.0,0.0,0.0,0.0,0.0,0.0,0.0,0.0,0.0,0.0,0.0,0.0,0.0,0.0,0.0,0.0,0.0,0.0,0.0,0.0,0.0,0.0,0.0,0.0,-3.9901,-3.9797,-3.9901,-4.0043,0.0,0.0,0.0,-4.0381,0.0,-4.0496,-4.0496,-4.0496,-4.065,-4.095,-4.1835,-4.2701,-4.3547,0.0,0.0,0.0,0.0,0.0,0.0,0.0,0.0,0.0,-4.5297,-4.4617,-4.3791,-4.2961,-4.2102,-4.1289,-4.0677,-4.0496,-4.0496,-4.0496,-4.0496,-4.0496,-4.0496,-4.0496,-4.0547,-4.0723,-4.1558,-4.2527,-4.3438,-4.4367,-4.5251,-4.6109,-4.6269,-4.6308,0.0,0.0,0.0,0.0,0.0,0.0,0.0,0.0,0.0,0.0,0.0,0.0,0.0,0.0,0.0,0.0,-4.6173,-4.6036,-4.5903,-4.5825,-4.5725,-4.5594,-4.5594,-4.5594,-4.5594,-4.5594,-4.5594,-4.5594,-4.5594,-4.5594,-4.5594,-4.5594,-4.5594,-4.5594,-4.5594,-4.5594,-4.5594,-4.5594,-4.5594,-4.5594,0.0,0.0,0.0,0.0,0.0,0.0,0.0,0.0,0.0,0.0,0.0,0.0,0.0,0.0,0.0,0.0,0.0,0.0,0.0,0.0,0.0,0.0,0.0,0.0,0.0,-4.0157,-4.025,0.0,0.0,0.0,0.0,0.0,-4.0496,-4.0496,0.0,-4.0496,-4.0496,-4.0496,-4.0496,-4.0573,-4.145,-4.2316,-4.3181,0.0,0.0,0.0,0.0,0.0,0.0,0.0,0.0,0.0,-4.5594,-4.5,-4.4137,-4.3352,-4.2483,-4.1605,-4.0735,-4.0496,-4.0496,-4.0496,-4.0496,-4.0516,-4.0573,-4.0593,-4.0665,-4.0833,-4.1932,-4.3038,-4.3593,-4.4707,0.0,-4.6211,-4.6308,0.0,0.0,0.0,0.0,0.0,0.0,0.0,0.0,0.0,0.0,0.0,0.0,0.0,0.0,0.0,0.0,0.0,-4.6117,-4.5985,-4.5899,-4.5777,-4.5688,-4.5594,-4.5594,-4.5594,-4.5594,-4.5594,-4.5594,-4.5594,-4.5594,-4.5594,-4.5594,-4.5594,-4.5594,-4.5594,-4.5594,-4.5594,-4.5594,-4.5594,-4.5594,-4.5594,0.0,0.0,0.0,0.0,0.0,0.0,0.0,0.0,0.0,0.0,0.0,0.0,0.0,0.0,0.0,0.0,0.0,0.0,0.0,0.0,0.0,0.0,0.0,0.0,0.0,0.0,0.0,0.0,0.0,0.0,0.0,0.0,-4.0496,-4.0496,-4.0496,-4.0496,-4.0496,-4.0496,-4.0496,-4.0573,-4.1354,-4.22,-4.3066,-4.3874,0.0,0.0,0.0,0.0,0.0,0.0,0.0,0.0,-4.5594,-4.5058,-4.4263,-4.3449,-4.2596,-4.1728,-4.085,-4.0554,-4.0496,-4.0496,-4.0496,-4.0535,-4.0677,-4.0749,-4.0855,-4.1061,-4.2492,-4.3711,-4.3808,-4.5176,-4.6308,-4.6308,0.0,0.0,0.0,0.0,0.0,0.0,0.0,0.0,0.0,0.0,0.0,0.0,0.0,0.0,0.0,0.0,0.0,-4.6308,-4.6039,-4.5899,-4.5899,-4.5706,-4.5594,0.0,-4.5594,-4.5594,-4.5594,-4.5594,-4.5594,-4.5594,-4.5594,-4.5594,-4.5594,-4.5594,-4.5594,-4.5594,-4.5594,-4.5594,-4.5594,-4.5594,-4.5594,-4.5594,0.0,0.0,0.0,0.0,0.0,0.0,0.0,0.0,0.0,0.0,0.0,0.0,0.0,0.0,0.0,0.0,0.0,0.0,0.0,0.0,0.0,0.0,0.0,0.0,0.0,0.0,0.0,0.0,0.0,0.0,0.0,0.0,0.0,-4.0496,-4.0496,-4.0496,-4.0496,-4.0496,-4.0496,-4.0516,-4.0708,-4.1296,-4.2181,-4.3028,-4.3874,0.0,0.0,0.0,0.0,0.0,0.0,0.0,-4.5594,-4.547,-4.5154,-4.4282,-4.3467,-4.2638,-4.1767,-4.1012,-4.0496,-4.0496,-4.0496,-4.0554,-4.0735,-4.08,-4.1031,-4.1846,-4.2928,-4.3906,-4.459,-4.5586,-4.6308,0.0,0.0,0.0,0.0,0.0,0.0,0.0,0.0,0.0,0.0,0.0,0.0,0.0,0.0,0.0,0.0,0.0,0.0,-4.6308,-4.6039,-4.5899,-4.5899,-4.5706,-4.5594,0.0,-4.5594,-4.5594,-4.5594,-4.5594,-4.5594,-4.5594,-4.5594,-4.5594,-4.5594,-4.5594,-4.5594,-4.5594,-4.5594,-4.5594,-4.5594,-4.5594,-4.5594,-4.5594,0.0,0.0,0.0,0.0,0.0,0.0,0.0,0.0,0.0,0.0,0.0,0.0,0.0,0.0,0.0,0.0,0.0,0.0,0.0,0.0,0.0,0.0,0.0,0.0,0.0,0.0,0.0,0.0,0.0,-4.0496,-4.0496,-4.0496,-4.0496,-4.0496,-4.0496,-4.0496,-4.0496,-4.0496,-4.0496,-4.0496,-4.0496,-4.1027,-4.1904,-4.2777,-4.3613,-4.4402,-4.5287,0.0,0.0,0.0,0.0,0.0,0.0,0.0,-4.5432,-4.456,-4.4008,-4.3407,-4.2144,-4.147,-4.1012,-4.0593,-4.0496,-4.0554,-4.0754,-4.0793,-4.1094,-4.2129,-4.3066,-4.3848,-4.4297,-4.543,-4.6308,0.0,0.0,0.0,0.0,0.0,0.0,0.0,0.0,0.0,0.0,0.0,0.0,0.0,0.0,0.0,0.0,-4.6308,-4.6308,-4.6308,-4.6039,-4.5899,-4.5899,-4.5706,-4.5594,-4.5594,-4.5594,-4.5594,-4.5594,-4.5594,-4.5594,-4.5594,-4.5594,-4.5594,-4.5594,-4.5594,-4.5594,-4.5594,-4.5594,-4.5594,-4.5594,-4.5594,-4.5594,-4.5594,0.0,0.0,0.0,0.0,0.0,0.0,0.0,0.0,0.0,0.0,0.0,0.0,0.0,0.0,0.0,0.0,0.0,0.0,0.0,0.0,0.0,0.0,0.0,0.0,0.0,0.0,0.0,0.0,0.0,-4.065,-4.0496,-4.0496,-4.0496,-4.0496,-4.0496,-4.0496,-4.0496,-4.0496,-4.0496,-4.0496,-4.0496,-4.0931,-4.17,-4.272,-4.3517,-4.4237,-4.5248,-4.5594,-4.5594,-4.5594,0.0,0.0,0.0,0.0,-4.5451,-4.4741,-4.4425,-4.4002,-4.2609,-4.2029,-4.1586,-4.0716,-4.0496,-4.0554,-4.0754,-4.0793,-4.1055,-4.1992,-4.3008,-4.375,-4.3906,-4.5234,0.0,0.0,0.0,0.0,0.0,0.0,0.0,0.0,0.0,0.0,0.0,0.0,0.0,0.0,0.0,0.0,-4.6308,-4.6308,-4.6289,-4.6268,-4.6033,-4.589,-4.5886,-4.5691,-4.5594,-4.5594,-4.5594,-4.5594,-4.5594,-4.5594,-4.5594,-4.5594,-4.5594,-4.5594,-4.5594,-4.5594,-4.5594,-4.5594,-4.5594,-4.5594,-4.5594,-4.5594,-4.5594,-4.5594,0.0,0.0,0.0,0.0,0.0,0.0,0.0,0.0,0.0,0.0,-4.3579,0.0,0.0,0.0,0.0,0.0,0.0,0.0,0.0,0.0,0.0,0.0,0.0,0.0,0.0,0.0,0.0,0.0,-4.1673,-4.1239,-4.0496,-4.0496,-4.0496,-4.0496,-4.0496,-4.0496,-4.0496,-4.0496,-4.0496,-4.0496,-4.0496,-4.0573,-4.0862,-4.247,-4.3162,-4.347,-4.5037,-4.5594,-4.5594,-4.5594,-4.5594,0.0,0.0,0.0,-4.5575,-4.5451,-4.4895,-4.4243,-4.4021,-4.2901,-4.1586,-4.0716,-4.0496,-4.0554,-4.0754,-4.0793,-4.0918,-4.1289,-4.2617,-4.3926,-4.4687,-4.5625,0.0,0.0,0.0,0.0,0.0,0.0,0.0,0.0,0.0,0.0,0.0,0.0,0.0,0.0,0.0,0.0,-4.6308,-4.6308,-4.6247,-4.612,-4.5981,-4.5867,-4.5815,-4.568,-4.5594,-4.5594,-4.5594,-4.5594,-4.5594,-4.5594,-4.5594,-4.5594,-4.5594,-4.5594,-4.5594,-4.5594,-4.5594,-4.5594,-4.5594,-4.5594,-4.5594,-4.5594,-4.5594,-4.5594,0.0,0.0,0.0,0.0,0.0,0.0,0.0,0.0,0.0,0.0,0.0,-4.3912,0.0,0.0,0.0,0.0,0.0,0.0,0.0,0.0,0.0,0.0,0.0,0.0,0.0,0.0,0.0,0.0,-4.2258,-4.1604,-4.1219,-4.0727,-4.0496,-4.0496,-4.0496,-4.0496,-4.0496,-4.0496,-4.0496,-4.0496,-4.0496,-4.0793,-4.1366,-4.2629,-4.3376,-4.3932,-4.5169,-4.5594,-4.5594,-4.5594,-4.5594,-4.5594,-4.5594,0.0,0.0,0.0,-4.5336,-4.4818,-4.3889,-4.2731,-4.1586,-4.0716,-4.0496,-4.0535,-4.0716,-4.0774,-4.0859,-4.1055,-4.209,-4.3086,-4.3476,0.0,0.0,0.0,0.0,0.0,0.0,0.0,0.0,0.0,0.0,0.0,0.0,0.0,0.0,0.0,0.0,-4.6308,-4.6308,-4.6308,-4.6269,-4.6203,-4.6001,-4.5896,-4.5855,-4.5688,-4.5594,-4.5594,-4.5594,-4.5594,-4.5594,-4.5594,-4.5594,-4.5594,-4.5594,-4.5594,-4.5594,-4.5594,-4.5594,-4.5594,-4.5594,-4.5594,-4.5594,-4.5594,-4.5594,-4.5594,0.0,0.0,0.0,0.0,0.0,0.0,0.0,0.0,0.0,0.0,0.0,0.0,0.0,0.0,0.0,0.0,0.0,0.0,0.0,0.0,0.0,0.0,0.0,0.0,0.0,0.0,0.0,-4.4297,-4.3047,-4.222,-4.1788,-4.1123,-4.0708,-4.0496,-4.0496,-4.0496,-4.0496,-4.0496,-4.0496,-4.0516,-4.0746,-4.1224,-4.1921,-4.3002,-4.3769,-4.441,-4.5285,-4.5594,-4.5594,-4.5594,-4.5594,-4.5594,-4.5594,-4.5594,0.0,0.0,0.0,-4.5278,-4.3803,-4.2777,-4.1921,-4.1051,-4.0658,-4.0535,-4.0677,-4.0743,-4.0833,-4.0976,-4.1582,-4.2109,-4.2109,0.0,0.0,0.0,0.0,0.0,0.0,0.0,0.0,0.0,0.0,0.0,0.0,0.0,0.0,0.0,0.0,-4.5644,-4.5644,-4.5644,-4.5625,-4.5603,-4.5598,-4.557,-4.5541,-4.5587,-4.5594,-4.5594,-4.5594,-4.5594,-4.5594,-4.5594,-4.5594,-4.5594,-4.5594,-4.5594,-4.5594,-4.5594,-4.5594,-4.5594,-4.5594,-4.5594,-4.5594,-4.5594,-4.5594,-4.5594,0.0,0.0,0.0,0.0,0.0,0.0,0.0,0.0,0.0,0.0,0.0,0.0,0.0,0.0,0.0,0.0,0.0,0.0,0.0,0.0,0.0,0.0,0.0,0.0,0.0,0.0,-4.5133,-4.4297,-4.4201,-4.3355,-4.1788,-4.175,-4.1296,-4.0496,-4.0496,-4.0496,-4.0496,-4.0496,-4.0496,-4.0573,-4.1393,-4.1755,-4.1971,-4.361,-4.4259,0.0,0.0,0.0,0.0,0.0,0.0,0.0,0.0,0.0,-4.5594,0.0,0.0,0.0,-4.4483,-4.3649,-4.2811,-4.194,-4.1108,-4.0535,-4.0677,-4.0746,-4.0846,-4.0966,-4.1133,-4.1269,0.0,0.0,0.0,0.0,0.0,0.0,0.0,0.0,0.0,0.0,0.0,0.0,0.0,0.0,0.0,0.0,0.0,-4.3848,-4.3848,-4.3848,-4.3805,-4.3749,-4.4412,-4.4705,-4.4576,-4.526,-4.5594,-4.5594,-4.5594,-4.5594,-4.5594,-4.5594,-4.5594,-4.5594,-4.5594,-4.5594,-4.5594,-4.5594,-4.5594,-4.5594,-4.5594,-4.5594,-4.5594,-4.5594,-4.5594,-4.5594,0.0,0.0,0.0,0.0,0.0,0.0,0.0,0.0,0.0,0.0,0.0,0.0,0.0,0.0,0.0,0.0,0.0,0.0,0.0,0.0,0.0,0.0,0.0,0.0,0.0,-4.5594,-4.546,-4.5133,-4.4566,-4.372,-4.2624,-4.2058,-4.1335,-4.0496,-4.0496,-4.0496,-4.0496,-4.0496,-4.0496,-4.0573,-4.145,-4.2143,-4.2755,-4.386,-4.466,0.0,0.0,0.0,0.0,0.0,0.0,0.0,0.0,0.0,0.0,-4.5594,-4.5594,-4.5413,-4.454,-4.4096,-4.3544,-4.2144,-4.1567,-4.1212,-4.0696,-4.0658,-4.0771,-4.0848,-4.0976,-4.1094,0.0,0.0,0.0,0.0,0.0,0.0,0.0,0.0,0.0,0.0,0.0,0.0,0.0,0.0,0.0,0.0,0.0,0.0,-4.3691,-4.3691,-4.3691,-4.3666,-4.3799,-4.3771,-4.3601,-4.3858,-4.4239,-4.4759,-4.4759,-4.5056,-4.5594,-4.5594,-4.5594,-4.5594,-4.5594,-4.5594,-4.5594,-4.5594,-4.5594,-4.5594,-4.5594,-4.5594,-4.5594,-4.5594,-4.5594,-4.5594,0.0,0.0,0.0,0.0,0.0,0.0,0.0,0.0,0.0,0.0,0.0,0.0,0.0,0.0,0.0,0.0,0.0,0.0,0.0,0.0,0.0,0.0,0.0,0.0,0.0,-4.5306,-4.5306,-4.5594,-4.472,-4.4028,-4.347,-4.2624,-4.1777,-4.0912,-4.0631,-4.0496,-4.0496,-4.0496,-4.0496,-4.0593,-4.1777,-4.2585,-4.322,-4.4314,0.0,0.0,0.0,0.0,0.0,0.0,0.0,0.0,0.0,0.0,0.0,-4.5594,-4.5594,-4.547,-4.4895,-4.4521,-4.4021,-4.292,-4.2213,-4.1644,-4.107,-4.0831,-4.0745,-4.0786,-4.0942,-4.1094,0.0,0.0,0.0,0.0,0.0,0.0,0.0,0.0,0.0,0.0,0.0,0.0,0.0,0.0,0.0,0.0,0.0,0.0,-4.2851,-4.2851,-4.2968,-4.3218,-4.3102,-4.3054,-4.3131,-4.3131,-4.3381,-4.3893,-4.3893,-4.4335,-4.5171,-4.5171,-4.5325,-4.5594,-4.5594,-4.5594,-4.5594,-4.5594,-4.5594,-4.5594,-4.5594,-4.5594,-4.5594,-4.5594,-4.5594,-4.5594,0.0,0.0,0.0,0.0,0.0,0.0,0.0,0.0,0.0,0.0,0.0,0.0,0.0,0.0,0.0,0.0,0.0,0.0,0.0,0.0,0.0,0.0,0.0,0.0,0.0,-4.4759,-4.4739,-4.5594,-4.4739,-4.4335,-4.4278,-4.3508,-4.2662,-4.1788,-4.0931,-4.0554,-4.0573,-4.0516,-4.0496,-4.065,-4.2393,-4.3104,-4.3278,-4.496,0.0,0.0,-4.5594,-4.5594,0.0,-4.5594,0.0,0.0,0.0,0.0,0.0,0.0,0.0,-4.5594,0.0,0.0,0.0,-4.4301,-4.3074,-4.1863,-4.1805,-4.1309,-4.082,-4.0804,-4.1006,-4.1191,0.0,0.0,0.0,0.0,0.0,0.0,0.0,0.0,0.0,0.0,0.0,0.0,0.0,0.0,0.0,0.0,0.0,-4.1191,-4.1191,-4.1191,-4.1538,-4.2241,-4.2258,-4.2535,-4.3111,-4.3131,-4.3102,-4.3066,-4.3066,-4.347,-4.4259,-4.4297,-4.4759,-4.5556,-4.5594,-4.5594,-4.5594,-4.5594,-4.5594,-4.5594,-4.5594,-4.5594,-4.5594,-4.5594,-4.5594,-4.5594,0.0,0.0,0.0,0.0,0.0,0.0,0.0,0.0,0.0,0.0,0.0,0.0,-4.3515,0.0,0.0,0.0,0.0,0.0,0.0,0.0,0.0,0.0,0.0,0.0,0.0,-4.5364,-4.5364,-4.5594,-4.5364,0.0,0.0,0.0,-4.3528,-4.2701,-4.1835,-4.1797,-4.2297,-4.1035,-4.0496,-4.065,-4.2393,-4.3096,0.0,0.0,0.0,0.0,0.0,-4.5594,-4.5594,0.0,-4.5594,-4.5594,0.0,0.0,0.0,0.0,0.0,0.0,-4.5594,0.0,0.0,0.0,0.0,0.0,0.0,0.0,-4.1383,-4.0908,-4.0868,-4.0976,0.0,0.0,0.0,0.0,0.0,0.0,0.0,0.0,0.0,0.0,0.0,0.0,0.0,0.0,0.0,0.0,-4.1191,-4.1191,-4.1191,-4.1191,-4.1246,-4.1367,-4.1365,-4.1374,-4.1394,-4.1394,-4.1654,-4.2162,-4.2162,-4.2604,-4.3451,-4.4028,-4.4432,-4.4682,-4.5325,-4.5594,-4.5594,-4.5594,-4.5594,-4.5594,-4.5594,-4.5594,-4.5594,-4.5594,-4.5594,-4.5594,0.0,0.0,0.0,0.0,0.0,0.0,0.0,0.0,0.0,0.0,0.0,0.0,-4.3515,0.0,0.0,0.0,0.0,0.0,0.0,0.0,0.0,0.0,0.0,0.0,0.0,-4.5248,-4.5248,-4.5594,0.0,0.0,0.0,0.0,0.0,-4.3566,-4.272,-4.2624,-4.3028,-4.2008,-4.1585,-4.17,-4.3066,0.0,0.0,-4.5094,-4.5594,0.0,0.0,0.0,-4.5594,-4.5594,-4.5594,0.0,0.0,0.0,0.0,0.0,0.0,0.0,0.0,0.0,0.0,0.0,0.0,0.0,-4.264,-4.2106,-4.1674,0.0,-4.0834,0.0,0.0,0.0,0.0,0.0,0.0,0.0,0.0,0.0,0.0,0.0,0.0,0.0,0.0,0.0,0.0,-4.1191,-4.1191,-4.1191,-4.1191,-4.1191,-4.1151,-4.1081,-4.1081,-4.0976,-4.0732,-4.0732,-4.0918,-4.1258,-4.1258,-4.172,-4.2585,-4.3412,-4.397,-4.4355,-4.5229,-4.5594,-4.5594,-4.5594,-4.5594,-4.5594,-4.5594,-4.5594,-4.5594,-4.5594,-4.5594,-4.5594,0.0,0.0,0.0,0.0,0.0,0.0,0.0,0.0,0.0,0.0,0.0,-4.3515,-4.3515,0.0,0.0,0.0,0.0,0.0,0.0,0.0,0.0,0.0,0.0,0.0,0.0,0.0,0.0,0.0,0.0,0.0,0.0,0.0,0.0,0.0,0.0,0.0,-4.3374,-4.3278,-4.3297,-4.3431,-4.4047,-4.4306,0.0,0.0,-4.5594,-4.5594,-4.5594,-4.5594,-4.5594,-4.5594,-4.5594,0.0,0.0,0.0,0.0,0.0,-4.5594,0.0,0.0,0.0,0.0,0.0,0.0,0.0,-4.3316,-4.2598,-4.187,0.0,0.0,0.0,0.0,0.0,0.0,0.0,0.0,0.0,0.0,0.0,0.0,0.0,0.0,0.0,0.0,-4.1191,-4.1191,-4.1191,-4.1191,-4.1191,-4.1191,-4.1191,-4.1191,-4.1191,-4.1191,-4.1077,-4.0801,-4.0797,-4.0698,-4.0496,-4.0496,-4.0912,-4.17,-4.2662,-4.3489,-4.422,-4.519,-4.5594,-4.5594,-4.5594,-4.5594,-4.5594,-4.5594,-4.5594,-4.5594,-4.5594,-4.5594,-4.5594,0.0,0.0,0.0,0.0,0.0,0.0,0.0,0.0,0.0,0.0,-4.3515,-4.3515,-4.3515,-4.3515,0.0,0.0,0.0,0.0,0.0,0.0,0.0,0.0,0.0,0.0,0.0,0.0,0.0,0.0,0.0,0.0,0.0,0.0,0.0,0.0,-4.4451,-4.4451,-4.5075,-4.4355,-4.447,-4.5056,-4.4509,-4.4297,-4.4402,-4.5267,-4.5594,-4.5594,-4.5594,-4.5594,-4.5594,-4.5594,-4.5594,-4.5594,0.0,0.0,0.0,-4.5594,0.0,0.0,0.0,0.0,0.0,0.0,0.0,0.0,-4.3431,-4.2991,-4.2473,0.0,-4.0742,-4.0774,0.0,0.0,0.0,0.0,0.0,0.0,0.0,0.0,0.0,0.0,0.0,0.0,0.0,-4.1191,-4.1191,-4.1191,-4.1191,-4.1191,-4.1191,-4.1191,-4.1191,-4.1191,-4.1191,-4.1077,-4.0801,-4.0797,-4.0698,-4.0496,-4.0496,-4.0593,-4.0804,-4.2374,-4.3181,-4.3412,-4.494,-4.5594,-4.5594,-4.5594,-4.5594,-4.5594,-4.5594,-4.5594,-4.5594,-4.5594,-4.5594,-4.5594,0.0,0.0,0.0,0.0,0.0,0.0,0.0,0.0,0.0,-4.3515,-4.3515,-4.3562,-4.3728,-4.3751,-4.3836,0.0,0.0,0.0,0.0,0.0,0.0,0.0,0.0,0.0,0.0,0.0,0.0,0.0,0.0,0.0,0.0,0.0,-4.5594,-4.5575,-4.5152,-4.519,-4.5575,-4.5133,-4.521,-4.5556,-4.5133,0.0,-4.4998,-4.5441,-4.5594,-4.5594,-4.5594,-4.5594,-4.5594,-4.5594,-4.5594,0.0,-4.5594,-4.5594,-4.5594,0.0,-4.5594,-4.5594,0.0,0.0,0.0,-4.5594,0.0,0.0,0.0,-4.3099,-4.2637,-4.1033,-4.0699,-4.0717,-4.0781,0.0,0.0,0.0,0.0,0.0,0.0,0.0,0.0,0.0,0.0,0.0,0.0,-4.1191,-4.1191,-4.1191,-4.1191,-4.1191,-4.1191,-4.1191,-4.1191,-4.1191,-4.1191,-4.1077,-4.0801,-4.0797,-4.0698,-4.0496,-4.0496,-4.0496,-4.0554,-4.2316,-4.3104,-4.3181,-4.4883,-4.5594,-4.5594,-4.5594,-4.5594,-4.5594,-4.5594,-4.5594,-4.5594,-4.5594,-4.5594,-4.5594,0.0,0.0,0.0,0.0,0.0,0.0,0.0,0.0,0.0,-4.3515,-4.3565,-4.3705,-4.3971,-4.4076,-4.4266,-4.4567,0.0,0.0,0.0,0.0,0.0,0.0,0.0,-4.5594,0.0,0.0,0.0,0.0,0.0,0.0,0.0,0.0,-4.5594,-4.5594,-4.5594,-4.5594,-4.5594,-4.5594,-4.5594,-4.5594,0.0,-4.5594,-4.5594,-4.5594,-4.5594,-4.5594,-4.5594,-4.5594,-4.5594,-4.5594,-4.5594,-4.5594,-4.5594,-4.5594,0.0,0.0,0.0,0.0,0.0,0.0,0.0,0.0,0.0,-4.5171,0.0,0.0,0.0,0.0,0.0,0.0,0.0,0.0,0.0,0.0,0.0,0.0,0.0,0.0,0.0,0.0,0.0,0.0,0.0,-4.1191,-4.1191,-4.1191,-4.1191,-4.1191,-4.1191,-4.1191,-4.1191,-4.1191,-4.1191,-4.1077,-4.0801,-4.0797,-4.0698,-4.0496,-4.0496,-4.0496,-4.0554,-4.2316,-4.3104,-4.3181,-4.4883,-4.5594,-4.5594,-4.5594,-4.5594,-4.5594,-4.5594,-4.5594,-4.5594,-4.5594,-4.5594,-4.5594,-4.3515,-4.3515,0.0,0.0,0.0,0.0,0.0,0.0,0.0,-4.3515,-4.3775,-4.3971,-4.4013,-4.4318,-4.454,-4.4612,0.0,0.0,-4.4593,0.0,0.0,0.0,0.0,0.0,-4.5594,0.0,0.0,0.0,0.0,0.0,0.0,0.0,-4.5594,-4.5594,-4.5594,-4.5594,-4.5594,-4.5594,-4.5594,0.0,-4.5594,-4.5594,0.0,-4.5594,-4.5594,-4.5594,-4.5594,-4.5594,-4.5594,0.0,-4.5594,-4.5594,0.0,-4.5594,-4.5594,-4.5594,0.0,0.0,0.0,0.0,0.0,0.0,-4.5594,0.0,0.0,0.0,-4.2613,-4.0893,0.0,0.0,0.0,0.0,0.0,0.0,0.0,0.0,0.0,0.0,0.0,0.0,0.0,0.0,0.0,0.0,-4.1191,-4.1191,-4.1191,-4.1191,-4.1191,-4.1191,-4.1191,-4.1191,-4.1191,-4.1077,-4.0801,-4.0797,-4.0698,-4.0496,-4.0496,-4.0496,-4.0554,-4.2316,-4.3104,-4.3181,-4.4883,-4.5594,-4.5594,-4.5594,-4.5594,-4.5594,-4.5594,-4.5594,-4.5594,-4.5594,-4.5594,-4.5594,-4.3515,-4.3515,-4.3515,0.0,0.0,0.0,0.0,0.0,0.0,-4.3515,-4.3612,-4.3788,-4.3986,-4.4346,-4.467,-4.4872,-4.5074,-4.5107,0.0,0.0,0.0,0.0,0.0,0.0,0.0,0.0,0.0,0.0,-4.5594,0.0,0.0,0.0,-4.5594,-4.5594,-4.5594,-4.5594,-4.5594,-4.5594,-4.5594,0.0,0.0,0.0,0.0,-4.5594,-4.5594,-4.5594,-4.5594,-4.5594,-4.5594,0.0,-4.5594,0.0,0.0,0.0,0.0,0.0,0.0,0.0,0.0,0.0,0.0,0.0,0.0,0.0,-4.4066,0.0,-4.2758,0.0,0.0,0.0,0.0,0.0,0.0,0.0,0.0,0.0,0.0,0.0,0.0,0.0,0.0,0.0,0.0,0.0,0.0,0.0,0.0,-4.1191,-4.1191,-4.1191,-4.1191,-4.1191,-4.1191,-4.1077,-4.0801,-4.0797,-4.0698,-4.0496,-4.0496,-4.0496,-4.0554,-4.2316,-4.3104,-4.3181,-4.4883,-4.5594,-4.5594,-4.5594,-4.5594,-4.5594,-4.5594,-4.5594,-4.5594,-4.5594,-4.5594,-4.5594,-4.3515,-4.3515,-4.3515,0.0,0.0,0.0,0.0,0.0,0.0,-4.3515,-4.358,-4.3775,-4.4136,-4.4514,-4.4872,-4.5211,-4.5448,-4.5495,0.0,0.0,-4.5495,0.0,0.0,0.0,0.0,0.0,0.0,0.0,0.0,-4.5594,-4.5594,-4.5594,-4.5594,-4.5594,-4.5594,-4.5594,-4.5594,-4.5594,-4.5594,-4.5594,-4.5594,-4.5594,-4.5594,-4.5594,-4.5594,-4.5594,-4.5594,-4.5594,-4.5594,-4.5594,-4.5594,0.0,-4.5594,0.0,0.0,0.0,0.0,0.0,-4.5594,0.0,0.0,0.0,0.0,0.0,0.0,0.0,0.0,0.0,0.0,0.0,0.0,0.0,0.0,0.0,0.0,0.0,0.0,0.0,0.0,0.0,0.0,0.0,0.0,0.0,0.0,0.0,0.0,0.0,-4.1191,-4.1191,-4.1191,-4.1191,-4.1191,-4.1077,-4.0801,-4.0797,-4.0698,-4.0496,-4.0496,-4.0631,-4.0912,-4.2412,-4.322,-4.3508,-4.4979,-4.5594,-4.5594,-4.5594,-4.5594,-4.5594,-4.5594,-4.5594,-4.5594,-4.5594,-4.5594,-4.5594,-4.3515,-4.3515,-4.3515,-4.3515,0.0,0.0,0.0,0.0,0.0,-4.3515,-4.3772,-4.415,-4.454,-4.4884,-4.5222,-4.554,0.0,-4.5605,-4.5586,0.0,-4.5605,0.0,0.0,-4.5594,0.0,0.0,0.0,0.0,-4.5594,-4.5594,-4.5594,-4.5594,-4.5594,-4.5594,-4.5594,-4.5594,-4.5594,-4.5594,-4.5594,-4.5594,-4.5594,-4.5594,-4.5594,0.0,-4.5594,-4.5594,-4.5594,0.0,0.0,-4.5594,-4.5594,0.0,0.0,0.0,0.0,0.0,0.0,0.0,0.0,0.0,0.0,-4.5594,0.0,0.0,0.0,0.0,-4.2854,0.0,0.0,0.0,0.0,0.0,0.0,0.0,0.0,0.0,0.0,0.0,0.0,0.0,0.0,0.0,0.0,0.0,0.0,0.0,0.0,0.0,-4.1191,-4.1191,-4.1191,-4.1191,-4.1191,-4.1077,-4.0801,-4.0797,-4.0698,-4.0496,-4.0496,-4.0931,-4.1788,-4.2701,-4.3528,-4.4316,-4.521,-4.5594,-4.5594,-4.5594,-4.5594,-4.5594,-4.5594,-4.5594,-4.5594,-4.5594,-4.5594,-4.5594,-4.3515,-4.3515,-4.3515,-4.3515,-4.3515,-4.3515,0.0,-4.3677,0.0,0.0,-4.4165,0.0,0.0,-4.4896,-4.5159,0.0,0.0,-4.5594,-4.5594,-4.5594,0.0,0.0,0.0,-4.5594,0.0,0.0,0.0,0.0,0.0,-4.5594,-4.5594,-4.5594,-4.5594,-4.5594,-4.5594,-4.5594,-4.5594,-4.5594,-4.5594,0.0,0.0,-4.5594,-4.5594,0.0,0.0,-4.5594,-4.5594,-4.5594,0.0,-4.5594,-4.5594,-4.5594,-4.5594,-4.5594,-4.5594,-4.5594,-4.5594,0.0,0.0,0.0,-4.5594,-4.5594,0.0,0.0,0.0,0.0,0.0,0.0,0.0,0.0,0.0,0.0,0.0,0.0,0.0,0.0,0.0,0.0,0.0,0.0,0.0,0.0,0.0,0.0,0.0,0.0,0.0,0.0,0.0,-4.1191,-4.1191,-4.1191,-4.1191,-4.1077,-4.0801,-4.0797,-4.0698,-4.0496,-4.0496,-4.095,-4.1827,-4.2701,-4.3547,-4.4355,-4.5229,-4.5594,-4.5594,-4.5594,-4.5594,-4.5594,-4.5594,-4.5594,-4.5594,-4.5594,-4.5594,-4.5594,-4.3515,-4.3515,-4.3515,-4.3515,-4.3515,-4.3548,0.0,0.0,0.0,0.0,-4.4447,0.0,-4.4757,0.0,-4.5159,0.0,-4.5485,-4.5594,-4.5594,-4.5594,0.0,-4.5594,-4.5594,-4.5594,0.0,0.0,0.0,0.0,0.0,-4.5594,-4.5594,-4.5594,-4.5594,-4.5594,-4.5594,-4.5594,-4.5594,-4.5594,-4.5594,0.0,0.0,-4.5594,0.0,0.0,-4.5594,-4.5594,0.0,-4.5594,-4.5594,-4.5594,-4.5594,-4.5594,-4.5594,-4.5594,-4.5594,-4.5594,-4.5594,-4.5594,-4.5594,-4.5594,0.0,-4.5594,-4.5635,0.0,-4.5612,0.0,0.0,0.0,0.0,0.0,0.0,0.0,0.0,0.0,0.0,0.0,0.0,-4.0561,0.0,0.0,0.0,0.0,0.0,0.0,0.0,-4.1191,-4.1191,0.0,0.0,0.0,-4.1191,-4.1191,-4.1191,-4.1077,-4.0801,-4.0797,-4.0698,-4.0496,-4.0816,-4.1412,-4.2297,-4.3143,-4.397,-4.4778,-4.5364,-4.5594,-4.5594,-4.5594,-4.5594,-4.5594,-4.5594,-4.5594,-4.5594,-4.5594,-4.5594,-4.5594,-4.3515,-4.3515,-4.3515,-4.3515,-4.3515,0.0,0.0,0.0,-4.4161,0.0,-4.4631,-4.4757,-4.5085,-4.5118,-4.5243,-4.5577,-4.5594,-4.5594,-4.5594,-4.5594,0.0,0.0,-4.5594,-4.5594,-4.5594,0.0,0.0,0.0,-4.5594,-4.5594,-4.5594,-4.5594,-4.5594,-4.5594,-4.5594,-4.5594,-4.5594,-4.5594,-4.5594,-4.5594,-4.5594,-4.5594,-4.5594,-4.5594,0.0,-4.5594,-4.5594,-4.5594,-4.5594,-4.5594,-4.5594,-4.5594,-4.5594,-4.5594,-4.5594,-4.5594,-4.5594,-4.5594,-4.5594,-4.5603,-4.5612,-4.5612,0.0,0.0,0.0,0.0,-4.4266,0.0,0.0,0.0,0.0,0.0,0.0,0.0,0.0,0.0,0.0,0.0,0.0,0.0,0.0,0.0,0.0,0.0,-4.1191,-4.1191,-4.1191,-4.1191,0.0,0.0,0.0,-4.1191,-4.1191,-4.1077,-4.0801,-4.0797,-4.0698,-4.0516,-4.1373,-4.2258,-4.3124,-4.3932,-4.4786,-4.5594,-4.5594,-4.5594,-4.5594,-4.5594,-4.5594,-4.5594,-4.5594,-4.5594,-4.5594,-4.5594,-4.5594,-4.5594,-4.3515,-4.3515,-4.3515,0.0,-4.3515,-4.3595,0.0,0.0,0.0,0.0,-4.5201,-4.5371,-4.5457,-4.5476,-4.5504,-4.5586,-4.5594,0.0,0.0,0.0,0.0,-4.5594,-4.5594,-4.5594,-4.5594,-4.5594,-4.5594,-4.5594,0.0,-4.5594,-4.5594,-4.5594,-4.5594,-4.5594,-4.5594,-4.5594,-4.5594,-4.5594,-4.5594,-4.5594,-4.5594,-4.5594,0.0,0.0,-4.5594,-4.5594,-4.5594,-4.5594,-4.5594,-4.5594,-4.5594,-4.5594,-4.5594,-4.5594,-4.5594,-4.5594,-4.5594,-4.5594,-4.5594,-4.5673,-4.5747,-4.5747,-4.5801,-4.5862,0.0,0.0,0.0,0.0,0.0,0.0,0.0,0.0,0.0,0.0,0.0,0.0,0.0,0.0,0.0,-4.0692,0.0,0.0,0.0,-4.1126,-4.1191,-4.1191,-4.1191,-4.1191,0.0,0.0,0.0,-4.1191,-4.1191,-4.1077,-4.0801,-4.0797,-4.0698,-4.0516,-4.1373,-4.2258,-4.3124,-4.3921,-4.4767,-4.5594,-4.5594,-4.5594,-4.5594,-4.5594,-4.5594,-4.5594,-4.5594,-4.5594,-4.5594,-4.5594,-4.5594,-4.5594,-4.3515,-4.3515,-4.3515,-4.3515,0.0,0.0,-4.4223,-4.4593,0.0,-4.5263,-4.5485,0.0,-4.5594,-4.5594,-4.5594,-4.5594,-4.5594,0.0,-4.5594,0.0,0.0,-4.5594,-4.5594,-4.5594,-4.5594,-4.5594,0.0,-4.5594,0.0,-4.5594,-4.5594,-4.5594,-4.5594,-4.5594,-4.5594,-4.5594,-4.5594,-4.5594,-4.5594,-4.5594,-4.5594,0.0,0.0,-4.5594,-4.5594,-4.5603,-4.5665,-4.566,-4.5594,-4.5594,-4.5594,-4.5594,-4.5594,-4.5594,-4.5594,-4.5594,-4.5594,-4.5594,-4.5594,-4.5692,-4.5803,-4.5803,-4.5886,-4.5978,-4.5912,-4.5609,-4.5056,0.0,0.0,0.0,0.0,0.0,0.0,0.0,0.0,0.0,0.0,0.0,0.0,0.0,-4.0909,0.0,0.0,-4.1126,-4.1191,-4.1191,-4.1191,0.0,0.0,0.0,0.0,-4.1191,-4.1191,-4.1077,-4.0801,-4.0797,-4.0886,-4.1085,-4.195,-4.2816,-4.3643,-4.4498,-4.5133,-4.5594,-4.5594,-4.5594,-4.5594,-4.5594,-4.5594,-4.5594,-4.5594,-4.5594,-4.5594,-4.5594,-4.5594,-4.5594,-4.3515,-4.3515,-4.3513,-4.3565,0.0,0.0,0.0,-4.4908,0.0,-4.5559,0.0,-4.5594,-4.5594,-4.5594,-4.5594,-4.5594,0.0,-4.5594,-4.5594,-4.5594,-4.5594,-4.5594,-4.5594,-4.5594,-4.5594,-4.5594,-4.5594,0.0,0.0,-4.5594,-4.5594,-4.5594,-4.5594,-4.5594,-4.5594,-4.5594,-4.5594,-4.5594,-4.5594,-4.5594,-4.5594,-4.5594,-4.5594,-4.5594,-4.5612,-4.5643,-4.5761,-4.5737,-4.5627,-4.5632,-4.564,-4.564,-4.564,-4.564,-4.5632,-4.5627,-4.5637,-4.561,-4.5603,-4.5696,-4.5815,-4.5815,-4.5963,-4.6106,-4.5981,-4.6042,-4.5884,-4.5006,-4.4086,0.0,0.0,0.0,0.0,0.0,0.0,0.0,0.0,0.0,0.0,0.0,0.0,0.0,0.0,0.0,-4.1191,-4.1191,-4.1191,0.0,0.0,0.0,0.0,0.0,-4.1172,0.0,-4.0801,0.0,-4.1233,-4.1808,-4.2797,-4.3624,-4.4316,-4.521,-4.5594,-4.5594,-4.5594,-4.5594,-4.5594,-4.5594,-4.5594,-4.5594,-4.5594,-4.5594,-4.5594,-4.5594,-4.5594,-4.5594,-4.3515,-4.3515,-4.358,-4.3865,0.0,-4.4618,-4.4954,-4.5063,-4.5222,-4.5559,-4.5594,-4.5594,-4.5594,-4.5594,-4.5594,-4.5594,-4.5594,0.0,0.0,0.0,0.0,-4.5594,-4.5594,-4.5594,-4.5594,-4.5594,-4.5594,0.0,0.0,-4.5594,-4.5594,-4.5594,-4.5594,-4.5594,-4.5594,-4.5594,-4.5594,-4.5594,0.0,-4.5594,-4.5594,-4.5594,-4.5594,-4.5594,-4.5665,-4.5775,-4.579,-4.5783,-4.5776,-4.5834,-4.5852,-4.5852,-4.5852,-4.5852,-4.5831,-4.5777,-4.5756,-4.574,-4.5627,-4.5731,-4.5886,-4.5886,-4.6075,-4.6268,-4.6245,-4.6247,-4.6014,-4.5135,-4.4255,-4.3395,-4.2558,0.0,0.0,0.0,0.0,0.0,0.0,0.0,0.0,0.0,0.0,0.0,0.0,0.0,0.0,0.0,0.0,0.0,0.0,0.0,0.0,0.0,0.0,0.0,0.0,0.0,0.0,-4.1808,-4.3355,-4.4171,-4.4333,-4.519,-4.5594,-4.5594,-4.5594,-4.5594,-4.5594,-4.5594,-4.5594,-4.5594,-4.5594,-4.5594,-4.5594,-4.5594,-4.5594,-4.5594,-4.3515,-4.3629,-4.382,-4.3971,0.0,0.0,0.0,-4.5243,0.0,-4.5577,-4.5594,-4.5594,-4.5594,-4.5594,-4.5594,-4.5594,-4.5594,-4.5594,-4.5594,-4.5594,-4.5594,-4.5594,-4.5594,-4.5594,-4.5594,-4.5594,-4.5594,-4.5594,0.0,0.0,-4.5594,-4.5594,-4.5594,-4.5594,-4.5594,-4.5594,0.0,0.0,0.0,-4.5594,-4.5594,-4.5594,-4.5594,-4.5594,-4.5643,-4.5723,-4.5807,-4.5845,-4.5855,-4.5881,-4.5899,-4.5899,-4.5899,-4.5899,-4.589,-4.5866,-4.5845,-4.5847,-4.577,-4.5877,-4.5998,-4.5998,-4.6149,-4.6308,-4.6308,-4.6308,-4.6172,-4.5762,-4.498,-4.3964,-4.2609,-4.1617,0.0,0.0,0.0,0.0,0.0,0.0,0.0,0.0,0.0,0.0,0.0,0.0,0.0,0.0,0.0,0.0,0.0,0.0,0.0,0.0,0.0,0.0,0.0,0.0,0.0,-4.3104,-4.3912,-4.4536,-4.4979,-4.5402,-4.5594,-4.5594,-4.5594,-4.5594,-4.5594,-4.5594,-4.5594,-4.5594,-4.5594,-4.5594,-4.5594,-4.5594,-4.5594,-4.5594,-4.3781,-4.3943,-4.4146,0.0,-4.4713,0.0,-4.5201,-4.5429,-4.5594,-4.5594,-4.5594,-4.5594,-4.5594,-4.5594,-4.5594,-4.5594,-4.5594,-4.5594,-4.5594,-4.5594,-4.5594,-4.5594,-4.5594,-4.5594,-4.5594,-4.5594,-4.5594,0.0,0.0,0.0,0.0,-4.5594,0.0,0.0,0.0,0.0,0.0,0.0,-4.5594,-4.5594,-4.5594,-4.5594,-4.5594,-4.5594,-4.562,-4.5673,-4.5836,-4.5916,-4.5959,-4.5978,-4.5985,-4.5985,-4.5985,-4.5985,-4.5981,-4.594,-4.5936,-4.5932,-4.5907,-4.5995,-4.6108,-4.6108,-4.62,-4.6308,-4.6308,-4.6308,-4.6308,-4.6308,-4.5605,-4.4452,-4.2657,-4.1753,0.0,0.0,0.0,0.0,0.0,0.0,0.0,0.0,0.0,0.0,0.0,0.0,0.0,0.0,0.0,-4.1191,-4.1191,-4.1191,0.0,0.0,0.0,-4.1512,-4.2097,0.0,-4.3106,0.0,-4.4489,-4.494,-4.5594,-4.5594,-4.5594,-4.5594,-4.5594,-4.5594,-4.5594,-4.5594,-4.5594,-4.5594,-4.5594,-4.5594,-4.5594,-4.5594,-4.5594,-4.5633,0.0,0.0,0.0,0.0,0.0,0.0,-4.5504,-4.5577,-4.5594,-4.5594,-4.5594,-4.5594,-4.5594,-4.5594,-4.5594,-4.5594,-4.5594,-4.5594,-4.5594,-4.5594,-4.5594,-4.5594,-4.5594,-4.5594,-4.5594,-4.5594,-4.5594,0.0,0.0,-4.5594,0.0,0.0,0.0,0.0,0.0,0.0,0.0,-4.5594,-4.5594,-4.5594,-4.5594,-4.5594,-4.5594,-4.5594,-4.568,-4.5783,-4.5872,-4.5981,-4.6108,-4.6223,-4.6268,-4.6268,-4.6268,-4.6268,-4.6246,-4.6117,-4.6082,-4.6047,-4.5928,-4.5995,-4.6108,-4.6108,-4.62,-4.6308,-4.6308,-4.6308,-4.6308,-4.6308,-4.5605,-4.4473,-4.2715,-4.2324,-4.2031,0.0,0.0,0.0,0.0,0.0,-4.1191,-4.1191,0.0,0.0,0.0,0.0,0.0,0.0,0.0,-4.1191,-4.1191,-4.1191,0.0,-4.1191,0.0,-4.2027,-4.2092,-4.3426,0.0,-4.4316,-4.5094,-4.5518,-4.5594,-4.5594,-4.5594,-4.5594,-4.5594,-4.5594,-4.5594,-4.5594,-4.5594,-4.5594,-4.5594,-4.5594,-4.5594,-4.5594,-4.5594,-4.571,0.0,0.0,0.0,0.0,0.0,0.0,0.0,-4.6797,-4.7105,-4.7105,-4.6682,-4.6567,-4.7048,-4.7105,-4.7105,-4.7105,-4.7105,-4.6894,-4.6413,-4.6374,-4.6144,-4.5614,-4.5594,-4.5594,-4.5594,-4.5594,-4.5594,0.0,0.0,0.0,0.0,0.0,0.0,0.0,0.0,-4.5594,-4.5594,-4.5594,-4.5594,-4.5594,-4.5594,-4.5594,-4.5594,-4.5594,-4.5669,-4.5803,-4.5877,-4.5988,-4.6117,-4.6248,-4.6308,-4.6308,-4.6308,-4.6308,-4.6289,-4.6245,-4.6223,-4.6202,-4.6149,-4.6175,-4.6223,-4.6223,-4.6268,-4.6308,-4.6308,-4.6308,-4.6308,-4.6308,-4.5605,-4.4785,-4.4082,-4.3105,-4.2285,0.0,0.0,0.0,0.0,0.0,0.0,-4.1191,0.0,-4.1191,0.0,0.0,0.0,0.0,0.0,0.0,-4.1191,-4.1191,0.0,-4.1191,0.0,-4.2345,-4.2886,-4.3817,-4.4566,-4.5075,-4.5441,-4.5594,-4.5594,-4.5594,-4.5594,-4.5594,-4.5594,-4.5594,-4.5594,-4.5594,-4.5594,-4.5594,-4.5594,-4.5594,-4.5594,-4.5594,-4.5932,-4.6432,-4.7428,0.0,-4.7548,0.0,-4.753,-4.7913,-4.7336,-4.774,-4.8202,-4.8452,-4.799,-4.7759,-4.8067,-4.8105,-4.8105,-4.8105,-4.8105,-4.7855,-4.7298,-4.7019,-4.6624,-4.6009,-4.5748,0.0,-4.5594,-4.5594,-4.5594,-4.5594,-4.5594,0.0,0.0,0.0,0.0,0.0,-4.5594,-4.5594,-4.5594,-4.5594,-4.5594,-4.5594,-4.5594,-4.5594,-4.5594,-4.5594,-4.5648,-4.5742,-4.5834,-4.5944,-4.6053,-4.6199,-4.6268,-4.6308,-4.6308,-4.6308,-4.6308,-4.6308,-4.6308,-4.6308,-4.6308,-4.6308,-4.6308,-4.6308,-4.6308,-4.6308,-4.6308,-4.6308,-4.6308,-4.6308,-4.5801,-4.5293,-4.5058,-4.3984,-4.3008,0.0,0.0,0.0,0.0,0.0,0.0,0.0,-4.1191,-4.1191,-4.1191,0.0,0.0,0.0,0.0,0.0,0.0,0.0,0.0,0.0,0.0,0.0,0.0,0.0,-4.4998,-4.5594,-4.5594,-4.5594,-4.5594,-4.5594,-4.5594,-4.5594,-4.5594,-4.5594,-4.5594,-4.5594,-4.5594,-4.5594,-4.5594,-4.5594,-4.5594,-4.5594,-4.6144,-4.6923,-4.8269,-4.8096,-4.8096,-4.8077,-4.8077,-4.8105,-4.8086,-4.8086,-4.8413,-4.926,-4.9375,-4.9048,-4.8202,-4.8105,-4.8105,-4.8105,-4.8105,-4.8105,-4.8086,-4.7327,-4.6904,0.0,0.0,-4.5594,-4.5594,-4.5594,-4.5594,-4.5594,0.0,0.0,-4.5594,0.0,-4.5594,-4.5594,-4.5594,-4.5594,-4.5594,-4.5594,-4.5594,-4.5594,-4.5594,-4.5594,-4.5594,-4.5594,-4.5594,-4.5629,-4.5754,-4.5847,-4.592,-4.6069,-4.6198,-4.6308,-4.6308,-4.6308,-4.6308,-4.6308,-4.6308,-4.6308,-4.6308,-4.6308,-4.6308,-4.6308,-4.6308,-4.6308,-4.6308,-4.6308,-4.6308,-4.6308,-4.6289,-4.6016,-4.5156,-4.498,-4.4394,-4.2676,0.0,0.0,0.0,0.0,0.0,-4.1191,-4.1191,-4.1191,-4.1191,0.0,0.0,0.0,0.0,0.0,0.0,0.0,0.0,-4.355,-4.4272,0.0,-4.4486,-4.5213,-4.5594,-4.5594,-4.5594,-4.5594,-4.5594,-4.5594,-4.5594,-4.5594,-4.5594,-4.5594,-4.5594,-4.5594,-4.5594,-4.5594,-4.5594,-4.5594,-4.5594,-4.5594,-4.6144,-4.7,-4.9933,-4.9875,-4.9683,-4.9086,-4.9471,-4.9663,-4.9086,-4.949,-4.9971,-5.025,-5.0289,-5.0183,-4.9894,-4.9875,-4.9875,0.0,-4.9875,-4.9625,0.0,-4.8759,-4.8336,-4.774,-4.6932,-4.649,-4.649,-4.5893,-4.5594,-4.5594,0.0,0.0,0.0,-4.5594,-4.5594,-4.5594,-4.5594,-4.5594,-4.5594,-4.5594,-4.5594,-4.5594,-4.5594,-4.5594,-4.5594,-4.5594,-4.5668,-4.574,-4.5783,-4.5906,-4.6042,-4.6082,-4.6198,-4.6308,-4.6308,-4.6308,-4.6308,-4.6308,-4.6308,-4.6308,-4.6308,-4.6308,-4.6308,-4.6308,-4.6308,-4.6308,-4.6308,-4.6308,-4.6308,-4.6308,-4.6308,-4.6211,-4.5937,-4.5391,-4.4824,-4.4258,0.0,0.0,0.0,0.0,0.0,0.0,-4.2891,-4.2891,0.0,-4.2891,0.0,0.0,0.0,0.0,0.0,0.0,0.0,0.0,-4.4311,0.0,-4.4499,-4.5232,-4.5594,-4.5594,-4.5594,-4.5594,-4.5594,-4.5594,-4.5594,-4.5594,-4.5594,-4.5594,-4.5594,-4.5594,-4.5594,-4.5594,-4.5594,-4.5594,-4.5671,-4.6278,-4.7009,-4.7836,-5.0712,-5.0712,-5.0539,-4.9971,-5.0346,-5.0519,-4.9971,-5.0346,-5.0712,-5.0712,-5.0712,-5.0712,-5.0712,-5.0712,0.0,-5.0712,-5.0712,-5.0481,-4.9913,-4.9586,-4.9163,-4.8606,-4.7798,-4.7212,-4.6904,0.0,0.0,-4.5594,-4.5594,-4.5594,-4.5594,-4.5594,-4.5594,-4.5594,-4.5594,-4.5594,-4.5594,-4.5594,-4.5594,-4.5594,-4.5594,-4.5594,-4.5594,-4.5594,-4.564,-4.5725,-4.5776,-4.5901,-4.6036,-4.6082,-4.6198,-4.6308,-4.6308,-4.6308,-4.6308,-4.6308,-4.6308,-4.6308,-4.6308,-4.6308,-4.6308,-4.6308,-4.6308,-4.6308,-4.6308,-4.6308,-4.6308,-4.6308,-4.6308,-4.6308,-4.6308,-4.5859,-4.5371,-4.5058,0.0,-4.4062,-4.375,0.0,0.0,0.0,0.0,0.0,0.0,-4.3691,0.0,0.0,0.0,0.0,0.0,0.0,0.0,-4.4471,-4.4916,0.0,-4.4911,-4.5365,-4.5594,-4.5594,-4.5594,-4.5594,-4.5594,-4.5594,-4.5594,-4.5594,-4.5594,-4.5594,-4.5594,-4.5594,-4.5594,-4.5594,-4.5594,-4.5594,-4.571,-4.6586,-4.7413,-4.8221,-5.0712,-5.0712,0.0,0.0,-5.0712,0.0,-5.0712,-5.0712,-5.0712,-5.0712,-5.0712,-5.0712,-5.0712,-5.0712,-5.0712,-5.0712,0.0,0.0,0.0,-4.9933,-4.949,-4.949,-4.8663,0.0,-4.7077,-4.7,-4.6567,-4.5691,-4.5633,-4.5594,-4.5594,-4.5594,-4.5594,-4.5594,-4.5594,-4.5594,-4.5594,-4.5594,-4.5594,-4.5594,-4.5594,-4.5594,-4.5594,-4.5594,-4.5594,-4.562,-4.574,-4.583,-4.5907,-4.6039,-4.6174,-4.6289,-4.6308,-4.6308,-4.6308,-4.6308,-4.6308,-4.6308,-4.6308,-4.6308,-4.6308,-4.6308,-4.6308,-4.6308,-4.6308,-4.6308,-4.6308,-4.6308,-4.6308,-4.6308,-4.6308,-4.6308,-4.6035,-4.5215,-4.5098,-4.4805,-4.3984,0.0,0.0,0.0,0.0,0.0,0.0,-4.3887,-4.4219,0.0,0.0,0.0,0.0,0.0,-4.5335,-4.5888,-4.5899,-4.5811,-4.5594,-4.5594,-4.5594,-4.5594,-4.5594,-4.5594,-4.5594,-4.5594,-4.5594,-4.5594,-4.5594,-4.5594,-4.5594,-4.5594,-4.5594,-4.5594,-4.5594,-4.5633,-4.5806,-4.6663,-4.7509,-4.8317,0.0,0.0,-5.0712,-5.0712,-5.0712,-5.0712,-5.0712,-5.0712,-5.0712,-5.0712,-5.0712,-5.0712,-5.0712,-5.0712,-5.0712,-5.0712,-5.0712,-5.0712,-5.0712,-5.0519,-5.0385,-5.0385,-4.9548,-4.899,-4.8817,-4.8163,-4.7413,-4.6586,-4.5932,-4.5594,-4.5594,-4.5594,-4.5594,-4.5594,-4.5594,-4.5594,-4.5594,-4.5594,-4.5594,-4.5594,-4.5594,-4.5594,-4.5594,-4.5594,-4.5594,-4.5603,-4.5635,-4.5725,-4.5844,-4.5923,-4.6039,-4.6171,-4.6268,-4.6308,-4.6308,-4.6308,-4.6308,-4.6308,-4.6308,-4.6308,-4.6308,-4.6308,-4.6308,-4.6308,-4.6308,-4.6308,-4.6308,-4.6308,-4.6308,-4.6308,-4.6308,-4.6308,-4.623,-4.6035,-4.5996,-4.5918,-4.5703,-4.5683,0.0,0.0,-4.5683,-4.5683,-4.5683,-4.5683,-4.5762,0.0,0.0,0.0,0.0,0.0,-4.5959,-4.5907,-4.5899,-4.5811,-4.5594,-4.5594,-4.5594,-4.5594,-4.5594,-4.5594,-4.5594,-4.5594,-4.5594,-4.5594,-4.5594,-4.5594,-4.5594,-4.5594,-4.5594,-4.5594,-4.5594,-4.6009,-4.6701,-4.7509,-4.8355,-4.9221,-5.0712,-5.0712,-5.0712,-5.0712,-5.0712,-5.0712,-5.0712,-5.0712,-5.0712,-5.0712,-5.0712,-5.0712,-5.0712,-5.0712,-5.0712,-5.0712,-5.0712,-5.0712,-5.0712,-5.0712,-5.0712,-5.0712,-5.025,-4.9798,-4.9413,-4.8933,-4.8298,-4.7451,-4.6971,-4.6547,-4.6182,-4.6182,-4.597,-4.5594,-4.5594,-4.5594,-4.5594,-4.5594,-4.5594,-4.5594,-4.5594,-4.5594,-4.5594,-4.5594,-4.5594,-4.5603,-4.5673,-4.5733,-4.5821,-4.5939,-4.6039,-4.6119,-4.6268,-4.6308,-4.6308,-4.6308,-4.6308,-4.6308,-4.6308,-4.6308,-4.6308,-4.6308,-4.6308,-4.6308,-4.6308,-4.6308,-4.6308,-4.6308,-4.6308,-4.6308,-4.6308,-4.6308,-4.6308,-4.6308,-4.6308,-4.6308,-4.6308,-4.6308,0.0,-4.6308,-4.6308,-4.6308,-4.6308,-4.6308,-4.6308,-4.6308,0.0,0.0,-4.6308,-4.6308,-4.6201,-4.5995,-4.5992,-4.5914,-4.5737,-4.5714,-4.5652,-4.5594,-4.5594,-4.5594,-4.5594,-4.5594,-4.5594,-4.5594,-4.5594,-4.5594,-4.5594,-4.5594,-4.5594,-4.5594,-4.5594,-4.6124,-4.7,-4.7798,-4.8644,-4.951,-5.0712,-5.0712,-5.0712,-5.0712,-5.0712,-5.0712,-5.0712,-5.0712,-5.0712,-5.0712,-5.0712,-5.0712,-5.0712,-5.0712,-5.0712,-5.0712,-5.0712,-5.0712,-5.0712,-5.0712,-5.0712,-5.0712,-5.0712,-5.0346,-4.9606,-4.9471,-4.9048,-4.8298,-4.8163,-4.7759,-4.7077,-4.7077,-4.6682,-4.5979,-4.5979,-4.5922,-4.5806,-4.5806,-4.5729,-4.5594,-4.5594,-4.5594,-4.5594,-4.5594,-4.5594,-4.562,-4.5718,-4.5782,-4.579,-4.5986,-4.6067,-4.6087,-4.6225,-4.6289,-4.6308,-4.6308,-4.6308,-4.6308,-4.6308,-4.6308,-4.6308,-4.6308,-4.6308,-4.6308,-4.6308,-4.6308,-4.6308,-4.6308,-4.6308,-4.6308,-4.6308,-4.6308,-4.6308,-4.6308,-4.6308,-4.6308,-4.6308,0.0,-4.6308,-4.6308,-4.6308,-4.6308,-4.6308,-4.6308,-4.6308,-4.6308,-4.6308,0.0,0.0,-4.6308,-4.6247,-4.6122,-4.6113,-4.6036,-4.5884,-4.5829,-4.5729,-4.5594,-4.5594,-4.5594,-4.5594,-4.5594,-4.5594,-4.5594,-4.5594,-4.5594,-4.5594,-4.5594,-4.5594,-4.5614,-4.5748,-4.6317,-4.7173,-4.8009,-4.8856,-4.9702,-5.0712,-5.0712,-5.0712,-5.0712,-5.0712,-5.0712,-5.0712,-5.0712,-5.0712,-5.0712,-5.0712,-5.0712,-5.0712,-5.0712,-5.0712,-5.0712,-5.0712,-5.0712,-5.0712,-5.0712,-5.0712,-5.0712,-5.0712,-5.0635,-5.05,-4.9779,-4.9336,-4.9202,-4.8471,-4.8048,-4.7913,-4.7913,-4.7836,-4.7721,-4.7721,-4.7336,-4.6701,-4.6701,-4.6278,-4.5594,-4.5594,-4.5594,-4.5594,-4.5594,-4.5594,-4.5594,-4.561,-4.5627,-4.5648,-4.5796,-4.5881,-4.5944,-4.6084,-4.6202,-4.6308,-4.6308,-4.6308,-4.6308,-4.6308,-4.6308,-4.6308,-4.6308,-4.6308,-4.6308,-4.6308,-4.6308,-4.6308,-4.6308,-4.6308,-4.6308,-4.6308,-4.6308,-4.6308,-4.6308,-4.6308,-4.6308,-4.6308,0.0,-4.6308,-4.6308,-4.6308,-4.6308,-4.6308,-4.6308,-4.6308,-4.6308,-4.6308,-4.6308,-4.6308,-4.6308,-4.6289,-4.6268,-4.615,-4.6017,-4.5821,-4.581,-4.5729,-4.5594,-4.5594,-4.5594,-4.5594,-4.5594,-4.5594,-4.5594,-4.5594,-4.5594,-4.5594,-4.5594,-4.5594,-4.5671,-4.6413,-4.7201,-4.8029,-4.8875,-4.974,-5.0519,-5.0712,-5.0712,-5.0712,-5.0712,-5.0712,-5.0712,-5.0712,-5.0712,-5.0712,-5.0712,-5.0712,-5.0712,-5.0712,-5.0712,-5.0712,-5.0712,-5.0712,-5.0712,-5.0712,-5.0712,-5.0712,-5.0712,-5.0712,-5.0712,-5.0712,-5.0308,-5.0087,-5.0087,-4.9702,-4.926,-4.8798,-4.8798,-4.8548,-4.8105,-4.8105,-4.7894,-4.7548,-4.7548,-4.7317,-4.6913,-4.6471,-4.6297,-4.624,-4.5787,-4.5594,-4.5594,-4.5594,-4.5594,-4.5629,-4.5761,-4.5847,-4.592,-4.6069,-4.6199,-4.6308,-4.6308,-4.6308,-4.6308,-4.6308,-4.6308,-4.6308,-4.6308,-4.6308,-4.6308,-4.6308,-4.6308,-4.6308,-4.6308,-4.6308,-4.6308,-4.6308,-4.6308,-4.6308,-4.6308,-4.6308,0.0,0.0,-4.6308,-4.6308,-4.6308,-4.6308,-4.6308,-4.6308,-4.6308,-4.6308,-4.6308,-4.6308,-4.6308,-4.6308,-4.6308,-4.6308,-4.6308,-4.6246,-4.6136,-4.5959,-4.5894,-4.5809,-4.571,-4.5633,-4.5594,-4.5594,-4.5673,-4.572,-4.5713,-4.5703,-4.5728,-4.5751,-4.5713,-4.6005,-4.65,-4.6827,-4.7747,-4.8955,-4.9277,-4.9952,-5.0712,-5.0712,-5.0712,-5.0712,-5.0712,-5.0712,-5.0712,-5.0712,-5.0712,-5.0712,-5.0712,-5.0712,-5.0712,-5.0712,-5.0712,-5.0712,-5.0712,-5.0712,-5.0712,-5.0712,-5.0712,-5.0712,-5.0712,-5.0712,-5.0712,-5.0712,-5.0712,-5.0712,-5.0712,-5.0712,-5.0366,-4.9702,-4.9702,-4.9356,-4.8702,-4.8702,-4.8586,-4.8394,-4.8394,-4.8298,-4.8048,-4.7432,-4.7173,-4.7086,-4.622,-4.5893,-4.5883,-4.5671,-4.5594,-4.562,-4.5723,-4.5819,-4.5916,-4.603,-4.6173,-4.6308,-4.6308,-4.6308,-4.6308,-4.6308,-4.6308,-4.6308,-4.6308,-4.6308,-4.6308,-4.6308,-4.6308,-4.6308,-4.6308,-4.6308,-4.6308,-4.6308,-4.6308,-4.6308,-4.6308,0.0,0.0,0.0,-4.6308,-4.6308,-4.6308,-4.6308,-4.6308,-4.6308,-4.6308,-4.6308,-4.6308,-4.6308,-4.6308,-4.6308,-4.6308,-4.6308,-4.6308,-4.6308,-4.623,-4.6094,-4.5996,-4.5911,-4.5822,-4.5711,-4.5665,-4.5673,-4.5788,-4.5827,-4.5822,-4.5825,-4.5845,-4.5914,-4.6067,-4.6554,-4.7222,-4.753,-4.8444,-4.9616,-4.9702,-5.0143,-5.0712,-5.0712,-5.0712,-5.0712,-5.0712,-5.0712,-5.0712,-5.0712,-5.0712,-5.0712,-5.0712,-5.0712,-5.0712,-5.0712,-5.0712,-5.0712,-5.0712,-5.0712,-5.0712,-5.0712,-5.0712,-5.0712,-5.0712,-5.0712,-5.0712,-5.0712,-5.0712,-5.0712,-5.0712,-5.0712,-5.0673,-5.0596,-5.0596,-5.0577,-5.0519,-5.0519,-5.0048,-4.9298,-4.9298,-4.8836,-4.8086,-4.8048,-4.8009,-4.7932,-4.7105,-4.6797,-4.6701,-4.5893,-4.5594,-4.5594,-4.5612,-4.5744,-4.5903,-4.5912,-4.6087,-4.6308,-4.6308,-4.6308,-4.6308,-4.6308,-4.6308,-4.6308,-4.6308,-4.6308,-4.6308,-4.6308,-4.6308,-4.6308,-4.6308,-4.6308,-4.6308,-4.6308,-4.6308,-4.6308,-4.6308,0.0,0.0,-4.6308,-4.6308,-4.6308,-4.6308,-4.6308,-4.6308,-4.6308,-4.6308,-4.6308,-4.6308,-4.6308,-4.6308,-4.6308,-4.6308,-4.6308,-4.6308,-4.6308,-4.623,-4.6094,-4.6094,-4.6015,-4.5894,-4.5871,-4.5872,-4.5876,-4.5896,-4.5884,-4.5881,-4.5901,-4.5894,-4.5957,-4.6774,-4.7148,-4.7367,-4.8973,-4.9609,-4.9688,-5.0506,-5.0748,-5.0712,-5.0712,-5.0712,-5.0712,-5.0712,-5.0712,-5.0712,-5.0712,-5.0712,-5.0712,-5.0712,-5.0712,-5.0712,-5.0712,-5.0712,-5.0712,-5.0712,-5.0712,-5.0712,-5.0712,-5.0712,-5.0712,-5.0712,-5.0712,-5.0712,-5.0712,-5.0712,-5.0712,-5.0712,-5.0712,-5.0712,-5.0712,-5.0712,-5.0712,-5.0712,-5.0712,-5.0519,-5.0212,-5.0212,-5.001,-4.9663,-4.9125,-4.8913,-4.8817,-4.7971,-4.7644,-4.7548,-4.6701,-4.6413,-4.6343,-4.5885,-4.5801,-4.5912,-4.5995,-4.6147,-4.6308,-4.6308,-4.6308,-4.6308,-4.6308,-4.6308,-4.6308,-4.6308,-4.6308,-4.6308,-4.6308,-4.6308,-4.6308,-4.6308,-4.6308,-4.6308,-4.6308,-4.6308,-4.6308,-4.6308,0.0,-4.6308,-4.6308,-4.6308,-4.6308,-4.6308,-4.6308,-4.6308,-4.6308,-4.6308,-4.6308,-4.6308,-4.6308,-4.6308,-4.6308,-4.6308,-4.6308,-4.6308,-4.6308,-4.6289,-4.6211,-4.6133,-4.6074,-4.6015,-4.5945,-4.5903,-4.5907,-4.5983,-4.6019,-4.6058,-4.6607,-4.6877,-4.7024,-4.7811,-4.8501,-4.9114,-4.9697,-5.0201,-5.0629,-5.0911,-5.0991,-5.0939,-5.0712,-5.0712,-5.0712,-5.0712,-5.0712,-5.0712,-5.0712,-5.0712,-5.0712,-5.0712,-5.0712,-5.0712,-5.0712,-5.0712,-5.0712,-5.0712,-5.0712,-5.0712,-5.0712,-5.0712,-5.0712,-5.0712,-5.0712,-5.0712,-5.0712,-5.0712,-5.0712,-5.0712,-5.0712,-5.0712,-5.0712,-5.0712,-5.0712,-5.0712,-5.0712,-5.0712,-5.0712,-5.0712,-5.0712,-5.0654,-5.0048,-4.9798,-4.9702,-4.8836,-4.8509,-4.8394,-4.7567,-4.7278,-4.7218,-4.674,-4.6643,-4.6699,-4.6557,-4.6413,-4.6308,-4.6308,-4.6308,-4.6308,-4.6308,-4.6308,-4.6308,-4.6308,-4.6308,-4.6308,-4.6308,-4.6308,-4.6308,-4.6308,-4.6308,-4.6308,-4.6308,-4.6308,-4.6308,-4.6308,-4.6308,-4.6308,-4.6308,-4.6308,-4.6308,-4.6308,-4.6308,-4.6308,-4.6308,-4.6308,-4.6308,-4.6308,-4.6308,-4.6308,-4.6308,-4.6308,-4.6308,-4.6308,-4.6308,-4.6426,-4.6719,-4.6348,-4.6152,-4.6152,-4.6077,-4.6173,-4.6448,-4.6537,-4.6718,-4.7011,-4.7617,-4.7922,-4.8066,-4.8857,-4.9583,-5.0215,-5.0379,-5.075,-5.1196,-5.1156,-5.1126,-5.1074,-5.0712,-5.0712,-5.0712,-5.0712,-5.0712,-5.0712,-5.0712,-5.0712,-5.0712,-5.0712,-5.0712,-5.0712,-5.0712,-5.0712,-5.0712,-5.0712,-5.0712,-5.0712,-5.0712,-5.0712,-5.0712,-5.0712,-5.0712,-5.0712,-5.0712,-5.0712,-5.0712,-5.0712,-5.0712,-5.0712,-5.0712,-5.0712,-5.0712,-5.0712,-5.0712,-5.0712,-5.0712,-5.0712,-5.0712,-5.0712,-5.0712,-5.0712,-5.0616,-4.974,-4.9413,-4.9298,-4.8413,-4.8105,-4.8123,-4.8256,-4.8396,-4.8377,-4.7633,-4.6902,-4.6328,-4.6328,-4.6328,-4.6328,-4.6308,-4.6308,-4.6308,-4.6308,-4.6308,-4.6308,-4.6308,-4.6308,-4.6308,-4.6308,-4.6308,-4.6308,-4.6308,-4.6308,-4.6308,-4.6308,-4.6308,-4.6308,-4.6308,-4.6308,-4.6308,-4.6308,-4.6308,-4.6308,-4.6308,-4.6308,-4.6308,-4.6308,-4.6308,-4.6308,-4.6308,-4.6328,-4.6328,-4.6328,-4.6328,-4.6738,-4.7598,-4.6758,-4.6308,-4.6328,-4.6328,-4.6777,-4.7617,-4.7617,-4.8086,-4.8906,-4.8906,-4.8906,-4.8984,-4.9844,-5.0215,-5.0293,-5.1094,-5.132,-5.1204,-5.1204,-5.1154,-5.1074,-5.0712,-5.0712,-5.0712,-5.0712,-5.0712,-5.0712,-5.0712,-5.0712,-5.0712,-5.0712,-5.0712,-5.0712,-5.0712,-5.0712,-5.0712,-5.0712,-5.0712,-5.0712,-5.0712,-5.0712,-5.0712,-5.0712,-5.0712,-5.0712,-5.0712,-5.0712,-5.0712,-5.0712,-5.0712,-5.0712,-5.0712,-5.0712,-5.0712,-5.0712,-5.0712,-5.0712,-5.0712,-5.0712,-5.0712,-5.0712,-5.0712,-5.0712,-5.0673,-5.0423,-5.0308,-5.0212,-4.9336,-4.9061,-4.9076,-4.8596,-4.8537,-4.8613,-4.8484,-4.83,-4.8125,-4.8125,-4.8125,-4.7988,-4.7383,-4.7207,-4.707,-4.6445,-4.6308,-4.6308,-4.6308,-4.6308,-4.6308,-4.6308,-4.6308,-4.6308,-4.6308,-4.6308,-4.6308,-4.6308,-4.6308,-4.6308,-4.6308,-4.6308,-4.6308,-4.6308,-4.6308,-4.6308,-4.6308,-4.6308,-4.6308,-4.6308,-4.6875,-4.7207,-4.7207,-4.7793,-4.8125,-4.8125,-4.8125,-4.8242,-4.8516,-4.7656,-4.7519,-4.8125,-4.8125,-4.8262,-4.8516,-4.8516,-4.8652,-4.8926,-4.9551,-4.9805,-4.9883,-5.0703,-5.1035,-5.1074,-5.1308,-5.1386,-5.1343,-5.1343,-5.1339,-5.1285,-5.0712,-5.0712,-5.0712,-5.0712,-5.0712,-5.0712,-5.0712,-5.0712,-5.0712,-5.0712,-5.0712,-5.0712,-5.0712,-5.0712,-5.0712,-5.0712,-5.0712,-5.0712,-5.0712,-5.0712,-5.0712,-5.0712,-5.0712,-5.0712,-5.0712,-5.0712,-5.0712,-5.0712,-5.0712,-5.0712,-5.0712,-5.0712,-5.0712,-5.0712,-5.0712,-5.0712,-5.0712,-5.0712,-5.0712,-5.0712,-5.0712,-5.0712,-5.0712,-5.0712,-5.0712,-5.0635,-5.0087,-4.9999,-5.0046,-4.9667,-4.9426,-4.9305,-4.9394,-4.918,-4.8906,-4.8906,-4.8906,-4.8789,-4.8262,-4.8105,-4.7988,-4.7461,-4.6816,-4.6308,-4.6308,-4.6308,-4.6308,-4.6308,-4.6308,-4.6308,-4.6308,-4.6308,-4.6308,-4.6308,-4.6308,-4.6308,-4.6308,-4.6308,-4.6308,-4.6308,-4.6308,-4.6445,-4.6777,-4.6816,-4.6953,-4.7305,-4.7812,-4.8105,-4.8105,-4.8613,-4.8906,-4.8906,-4.8906,-4.9062,-4.9414,-4.8887,-4.8711,-4.8906,-4.8906,-4.9082,-4.9414,-4.9414,-4.959,-4.9922,-5.0449,-5.0664,-5.0703,-5.1191,-5.1406,-5.1406,-5.1406,-5.1406,-5.1406,-5.1406,-5.1406,-5.1386,-5.0712,-5.0712,-5.0712,-5.0712,-5.0712,-5.0712,-5.0712,-5.0712,-5.0712,-5.0712,-5.0712,-5.0712,-5.0712,-5.0712,-5.0712,-5.0712,-5.0712,-5.0712,-5.0712,-5.0712,-5.0712,-5.0712,-5.0712,-5.0712,-5.0712,-5.0712,-5.0712,-5.0712,-5.0712,-5.0712,-5.0712,-5.0712,-5.0712,-5.0712,-5.0712,-5.0712,-5.0712,-5.0712,-5.0712,-5.0712,-5.0712,-5.0712,-5.0712,-5.0712,-5.0712,-5.0712,-5.0712,-5.0791,-5.0912,-5.1054,-5.073,-5.0293,-5.0293,-4.9746,-4.9121,-4.9121,-4.9121,-4.9101,-4.9043,-4.9023,-4.9004,-4.8926,-4.7715,-4.6523,-4.6523,-4.6523,-4.6504,-4.6426,-4.6426,-4.6387,-4.6308,-4.6308,-4.6328,-4.6406,-4.6426,-4.6445,-4.6523,-4.6523,-4.6523,-4.6523,-4.6523,-4.6836,-4.7637,-4.7715,-4.8047,-4.8848,-4.8965,-4.9023,-4.9023,-4.9082,-4.9121,-4.9121,-4.9121,-4.9492,-5.0293,-5.0312,-4.9902,-4.9121,-4.9121,-4.9531,-5.0312,-5.0312,-5.0703,-5.1406,-5.1406,-5.1406,-5.1406,-5.1406,-5.1406,-5.1406,-5.1406,-5.1406,-5.1406,-5.1406,-5.1406,-5.1386,-5.0712,-5.0712,-5.0712,-5.0712,-5.0712,-5.0712,-5.0712,-5.0712,-5.0712,-5.0712,-5.0712,-5.0712,-5.0712,-5.0712,-5.0712,-5.0712,-5.0712,-5.0712,-5.0712,-5.0712,-5.0712,-5.0712,-5.0712,-5.0712,-5.0712,-5.0712,-5.0712,-5.0712,-5.0712,-5.0712,-5.0712,-5.0712,-5.0712,-5.0712,-5.0712,-5.0712,-5.0712,-5.0712,-5.0712,-5.0712,-5.0712,-5.0712,-5.0712,-5.0712,-5.0712,-5.0712,-5.0712,-5.0786,-5.092,-5.105,-5.1052,-5.0976,-5.0976,-5.0937,-5.0859,-5.0859,-5.0859,-5.0723,-5.0098,-4.9922,-4.9746,-4.9062,-4.8613,-4.834,-4.834,-4.834,-4.8144,-4.7461,-4.7324,-4.7109,-4.6426,-4.6308,-4.6523,-4.7207,-4.7324,-4.7558,-4.8242,-4.834,-4.834,-4.834,-4.834,-4.8418,-4.8594,-4.8613,-4.8691,-4.8887,-4.9531,-4.9922,-4.9922,-5.0527,-5.0859,-5.0859,-5.0859,-5.0957,-5.1133,-5.1133,-5.1055,-5.0859,-5.0859,-5.0957,-5.1133,-5.1133,-5.123,-5.1406,-5.1406,-5.1406,-5.1406,-5.1406,-5.1406,-5.1406,-5.1406,-5.1406,-5.1406,-5.1406,-5.1406,-5.1406,-5.0712,-5.0712,-5.0712,-5.0712,-5.0712,-5.0712,-5.0712,-5.0712,-5.0712,-5.0712,-5.0712,-5.0712,-5.0712,-5.0712,-5.0712,-5.0712,-5.0712,-5.0712,-5.0712,-5.0712,-5.0712,-5.0712,-5.0712,-5.0712,-5.0712,-5.0712,-5.0712,-5.0712,-5.0712,-5.0712,-5.0712,-5.0712,-5.0712,-5.0712,-5.0712,-5.0712,-5.0712,-5.0712,-5.0712,-5.0712,-5.0712,-5.0712,-5.0712,-5.0712,-5.0712,-5.0712,-5.0712,-5.0795,-5.0935,-5.1086,-5.1172,-5.1211,-5.1289,-5.1348,-5.1406,-5.1406,-5.1406,-5.1308,-5.0898,-5.0762,-5.0664,-5.0215,-5.0098,-4.9883,-4.9082,-4.8906,-4.8769,-4.8301,-4.8223,-4.8086,-4.7617,-4.7539,-4.7695,-4.8144,-4.8223,-4.8379,-4.8848,-4.8906,-4.8906,-4.8906,-4.8906,-4.9062,-4.9473,-4.9863,-5.0098,-5.0098,-5.0508,-5.0762,-5.0762,-5.1172,-5.1406,-5.1406,-5.1406,-5.1406,-5.1406,-5.1406,-5.1406,-5.1406,-5.1406,-5.1406,-5.1406,-5.1406,-5.1406,-5.1406,-5.1406,-5.1406,-5.1406,-5.1406,-5.1406,-5.1406,-5.1406,-5.1406,-5.1406,-5.1406,-5.1406,-5.1406,-5.0712,-5.0712,-5.0712,-5.0712,-5.0712,-5.0712,-5.0712,-5.0712,-5.0712,-5.0712,-5.0712,-5.0712,-5.0712,-5.0712,-5.0712,-5.0712,-5.0712,-5.0712,-5.0712,-5.0712,-5.0712,-5.0712,-5.0712,-5.0712,-5.0712,-5.0712,-5.0712,-5.0712,-5.0712,-5.0712,-5.0712,-5.0712,-5.0712,-5.0712,-5.0712,-5.0712,-5.0712,-5.0712,-5.0712,-5.0712,-5.0712,-5.0712,-5.0712,-5.0712,-5.0712,-5.0712,-5.0712,-5.0789,-5.0938,-5.1092,-5.1165,-5.1211,-5.1328,-5.1387,-5.1406,-5.1406,-5.1406,-5.1406,-5.1406,-5.1406,-5.1406,-5.1406,-5.1406,-5.1035,-4.9648,-4.9336,-4.9297,-4.9141,-4.9121,-4.9082,-4.8926,-4.8906,-4.8945,-4.9101,-4.9121,-4.918,-4.9316,-4.9336,-4.9336,-4.9336,-4.9336,-4.9609,-5.0332,-5.1016,-5.1406,-5.1406,-5.1406,-5.1406,-5.1406,-5.1406,-5.1406,-5.1406,-5.1406,-5.1406,-5.1406,-5.1406,-5.1406,-5.1406,-5.1406,-5.1406,-5.1406,-5.1406,-5.1406,-5.1406,-5.1406,-5.1406,-5.1406,-5.1406,-5.1406,-5.1406,-5.1406,-5.1406,-5.1406,-5.1406,-5.1406,-5.1406,-5.0712,-5.0712,-5.0712,-5.0712,-5.0712,-5.0712,-5.0712,-5.0712,-5.0712,-5.0712,-5.0712,-5.0712,-5.0712,-5.0712,-5.0712,-5.0712,-5.0712,-5.0712,-5.0712,-5.0712,-5.0712,-5.0712,-5.0712,-5.0712,-5.0712,-5.0712,-5.0712,-5.0712,-5.0712,-5.0712,-5.0712,-5.0712,-5.0712,-5.0712,-5.0712,-5.0712,-5.0712,-5.0712,-5.0712,-5.0712,-5.0712,-5.0712,-5.0712,-5.0712,-5.0712,-5.0712,-5.0712,-5.0789,-5.0904,-5.0926,-5.1054,-5.1191,-5.1211,-5.1308,-5.1406,-5.1406,-5.1406,-5.1406,-5.1406,-5.1406,-5.1406,-5.1406,-5.1406,-5.1348,-5.1113,-5.1055,-5.0859,-5.0176,-5.0019,-4.9785,-4.9043,-4.8906,-4.9141,-4.9902,-5.0019,-5.0273,-5.0957,-5.1055,-5.1055,-5.1055,-5.1055,-5.1113,-5.123,-5.1348,-5.1406,-5.1406,-5.1406,-5.1406,-5.1406,-5.1406,-5.1406,-5.1406,-5.1406,-5.1406,-5.1406,-5.1406,-5.1406,-5.1406,-5.1406,-5.1406,-5.1406,-5.1406,-5.1406,-5.1406,-5.1406,-5.1406,-5.1406,-5.1406,-5.1406,-5.1406,-5.1406,-5.1406,-5.1406,-5.1406,-5.1406,-5.1406,-5.0712,-5.0712,-5.0712,-5.0712,-5.0712,-5.0712,-5.0712,-5.0712,-5.0712,-5.0712,-5.0712,-5.0712,-5.0712,-5.0712,-5.0712,-5.0712,-5.0712,-5.0712,-5.0712,-5.0712,-5.0712,-5.0712,-5.0712,-5.0712,-5.0712,-5.0712,-5.0712,-5.0712,-5.0712,-5.0712,-5.0712,-5.0712,-5.0712,-5.0712,-5.0712,-5.0712,-5.0712,-5.0712,-5.0712,-5.0712,-5.0712,-5.0712,-5.0712,-5.0712,-5.0712,-5.0712,-5.0712,-5.075,-5.0816,-5.0959,-5.1067,-5.1152,-5.1289,-5.1348,-5.1406,-5.1406,-5.1406,-5.1406,-5.1406,-5.1406,-5.1406,-5.1406,-5.1406,-5.1406,-5.1406,-5.1406,-5.1308,-5.0937,-5.0879,-5.0742,-5.0371,-5.0293,-5.043,-5.0801,-5.0879,-5.0996,-5.1348,-5.1406,-5.1406,-5.1406,-5.1406,-5.1406,-5.1406,-5.1406,-5.1406,-5.1406,-5.1406,-5.1406,-5.1406,-5.1406,-5.1406,-5.1406,-5.1406,-5.1406,-5.1406,-5.1406,-5.1406,-5.1406,-5.1406,-5.1406,-5.1406,-5.1406,-5.1406,-5.1406,-5.1406,-5.1406,-5.1406,-5.1406,-5.1406,-5.1406,-5.1406,-5.1406,-5.1406,-5.1406,-5.1406,-5.1406]},{"header":{"parameterUnit":"m.s-1","parameterCategory":1,"la1":30.6,"la2":28.766,"lo1":-90.7593,"lo2":-88.6598,"dx":0.0162,"dy":0.0183,"nx":116,"ny":114,"refTime":"2023-01-28T06:00:00:Z","depth":0,"parameterNumber":3,"parameterNumberName":"V-component_of_WINDS"},"data":[0.0,0.0,0.0,0.0,0.0,0.0,0.0,0.0,0.0,0.0,0.0,0.0,0.0,0.0,0.0,0.0,0.0,0.0,0.0,0.0,0.0,0.0,0.0,0.0,0.0,0.0,0.0,0.0,0.0,0.0,0.0,0.0,0.0,0.0,0.0,0.0,0.0,0.0,0.0,0.0,0.0,0.0,0.0,0.0,0.0,0.0,0.0,0.0,0.0,0.0,0.0,0.0,0.0,0.0,0.0,0.0,0.0,0.0,0.0,0.0,0.0,0.0,0.0,0.0,0.0,0.0,0.0,0.0,0.0,0.0,0.0,0.0,0.0,0.0,0.0,0.0,0.0,0.0,0.0,0.0,0.0,0.0,0.0,0.0,0.0,0.0,0.0,0.0,0.0,0.0,0.0,0.0,0.0,0.0,0.0,0.0,0.0,0.0,0.0,0.0,0.0,0.0,0.0,0.0,0.0,0.0,0.0,0.0,0.0,0.0,0.0,0.0,0.0,0.0,0.0,0.0,0.0,0.0,0.0,0.0,0.0,0.0,0.0,0.0,0.0,0.0,0.0,0.0,0.0,0.0,0.0,0.0,0.0,0.0,0.0,0.0,0.0,0.0,0.0,0.0,0.0,0.0,0.0,0.0,0.0,0.0,0.0,0.0,0.0,0.0,0.0,0.0,0.0,0.0,0.0,0.0,0.0,0.0,0.0,0.0,0.0,0.0,0.0,0.0,0.0,0.0,0.0,0.0,0.0,0.0,0.0,0.0,0.0,0.0,0.0,0.0,0.0,0.0,0.0,0.0,0.0,0.0,0.0,0.0,0.0,0.0,0.0,0.0,0.0,0.0,0.0,0.0,0.0,0.0,0.0,0.0,0.0,0.0,0.0,0.0,0.0,0.0,0.0,0.0,0.0,0.0,0.0,0.0,0.0,0.0,0.0,0.0,0.0,0.0,0.0,0.0,0.0,0.0,0.0,0.0,0.0,0.0,0.0,0.0,0.0,0.0,0.0,0.0,0.0,0.0,0.0,0.0,0.0,0.0,0.0,0.0,0.0,0.0,0.0,0.0,0.0,0.0,0.0,0.0,0.0,0.0,0.0,0.0,0.0,0.0,0.0,0.0,0.0,0.0,0.0,0.0,0.0,0.0,0.0,0.0,0.0,0.0,0.0,0.0,0.0,0.0,0.0,0.0,0.0,0.0,0.0,0.0,0.0,0.0,0.0,0.0,0.0,0.0,0.0,0.0,0.0,0.0,0.0,0.0,0.0,0.0,0.0,0.0,0.0,0.0,0.0,0.0,0.0,0.0,0.0,0.0,0.0,0.0,0.0,0.0,0.0,0.0,0.0,0.0,0.0,0.0,0.0,0.0,0.0,0.0,0.0,0.0,0.0,0.0,0.0,0.0,0.0,0.0,0.0,0.0,0.0,0.0,0.0,0.0,0.0,0.0,0.0,0.0,0.0,0.0,0.0,0.0,0.0,0.0,0.0,0.0,0.0,0.0,0.0,0.0,0.0,0.0,0.0,0.0,0.0,0.0,0.0,0.0,0.0,0.0,0.0,0.0,0.0,0.0,0.0,0.0,0.0,0.0,0.0,0.0,0.0,0.0,0.0,0.0,0.0,0.0,0.0,0.0,0.0,0.0,0.0,0.0,0.0,0.0,0.0,0.0,0.0,0.0,0.0,0.0,0.0,0.0,0.0,0.0,0.0,0.0,0.0,0.0,0.0,0.0,0.0,0.0,0.0,0.0,0.0,0.0,0.0,0.0,0.0,0.0,0.0,0.0,0.0,0.0,0.0,0.0,0.0,0.0,0.0,0.0,0.0,0.0,0.0,0.0,0.0,0.0,0.0,0.0,0.0,0.0,0.0,0.0,0.0,0.0,0.0,0.0,0.0,0.0,0.0,0.0,0.0,0.0,0.0,0.0,0.0,0.0,0.0,0.0,0.0,0.0,0.0,0.0,0.0,0.0,0.0,0.0,0.0,0.0,0.0,0.0,0.0,0.0,0.0,0.0,0.0,0.0,0.0,0.0,0.0,0.0,0.0,0.0,0.0,0.0,0.0,0.0,0.0,0.0,0.0,0.0,0.0,0.0,0.0,0.0,0.0,0.0,0.0,0.0,0.0,0.0,0.0,0.0,0.0,0.0,0.0,0.0,0.0,0.0,0.0,0.0,0.0,0.0,0.0,0.0,0.0,0.0,0.0,0.0,0.0,0.0,0.0,0.0,0.0,0.0,0.0,0.0,0.0,0.0,0.0,0.0,0.0,0.0,0.0,0.0,0.0,0.0,0.0,0.0,0.0,0.0,0.0,0.0,0.0,0.0,0.0,0.0,0.0,0.0,0.0,0.0,0.0,0.0,0.0,0.0,0.0,0.0,0.0,0.0,0.0,0.0,0.0,0.0,0.0,0.0,0.0,0.0,0.0,0.0,0.0,0.0,0.0,0.0,0.0,0.0,0.0,0.0,0.0,0.0,0.0,0.0,0.0,0.0,0.0,0.0,0.0,0.0,0.0,0.0,0.0,0.0,0.0,0.0,0.0,0.0,0.0,0.0,0.0,0.0,0.0,0.0,0.0,0.0,0.0,0.0,0.0,0.0,0.0,0.0,0.0,0.0,0.0,0.0,0.0,0.0,0.0,0.0,0.0,0.0,0.0,0.0,0.0,0.0,0.0,0.0,0.0,0.0,0.0,0.0,0.0,0.0,0.0,0.0,0.0,0.0,0.0,0.0,0.0,0.0,0.0,0.0,0.0,0.0,0.0,0.0,0.0,0.0,0.0,0.0,0.0,0.0,0.0,0.0,0.0,0.0,0.0,0.0,0.0,0.0,0.0,0.0,0.0,0.0,0.0,0.0,0.0,0.0,0.0,0.0,0.0,0.0,0.0,0.0,0.0,0.0,0.0,0.0,0.0,0.0,0.0,0.0,0.0,0.0,0.0,0.0,0.0,0.0,0.0,0.0,0.0,0.0,0.0,0.0,0.0,0.0,0.0,0.0,0.0,0.0,0.0,0.0,0.0,0.0,0.0,0.0,0.0,0.0,0.0,0.0,0.0,0.0,0.0,0.0,0.0,0.0,0.0,0.0,0.0,0.0,0.0,0.0,0.0,0.0,0.0,0.0,0.0,0.0,0.0,0.0,0.0,0.0,0.0,0.0,0.0,0.0,0.0,0.0,0.0,0.0,0.0,0.0,0.0,0.0,0.0,0.0,0.0,0.0,0.0,0.0,0.0,0.0,0.0,0.0,0.0,0.0,0.0,0.0,0.0,0.0,0.0,0.0,0.0,0.0,0.0,0.0,0.0,0.0,0.0,0.0,0.0,0.0,0.0,0.0,0.0,0.0,0.0,0.0,0.0,0.0,0.0,0.0,0.0,0.0,0.0,0.0,0.0,0.0,0.0,0.0,0.0,0.0,0.0,0.0,0.0,0.0,0.0,0.0,0.0,0.0,0.0,0.0,0.0,0.0,0.0,0.0,0.0,0.0,0.0,0.0,0.0,0.0,0.0,0.0,0.0,0.0,0.0,0.0,0.0,0.0,0.0,0.0,0.0,0.0,0.0,0.0,0.0,0.0,0.0,0.0,0.0,0.0,0.0,0.0,0.0,0.0,0.0,0.0,0.0,0.0,0.0,0.0,0.0,0.0,0.0,0.0,0.0,0.0,0.0,0.0,0.0,0.0,0.0,0.0,0.0,0.0,0.0,0.0,0.0,0.0,0.0,0.0,0.0,0.0,0.0,0.0,0.0,0.0,0.0,0.0,0.0,0.0,0.0,0.0,0.0,0.0,0.0,0.0,0.0,0.0,0.0,0.0,0.0,0.0,0.0,0.0,0.0,0.0,0.0,0.0,0.0,0.0,0.0,0.0,0.0,0.0,0.0,0.0,0.0,0.0,0.0,0.0,0.0,0.0,0.0,0.0,0.0,0.0,0.0,0.0,0.0,0.0,0.0,0.0,0.0,0.0,0.0,0.0,0.0,0.0,0.0,0.0,0.0,0.0,0.0,0.0,0.0,0.0,0.0,0.0,0.0,0.0,0.0,0.0,0.0,0.0,0.0,0.0,0.0,0.0,0.0,0.0,0.0,0.0,0.0,0.0,0.0,0.0,0.0,0.0,0.0,0.0,0.0,0.0,0.0,0.0,0.0,0.0,0.0,0.0,0.0,0.0,0.0,0.0,0.0,0.0,0.0,0.0,0.0,0.0,0.0,0.0,0.0,0.0,0.0,0.0,0.0,0.0,0.0,0.0,0.0,0.0,0.0,0.0,0.0,0.0,0.0,0.0,0.0,0.0,0.0,0.0,0.0,0.0,0.0,0.0,0.0,0.0,0.0,0.0,0.0,0.0,0.0,0.0,0.0,0.0,0.0,0.0,0.0,0.0,0.0,0.0,0.0,0.0,0.0,0.0,0.0,0.0,0.0,0.0,0.0,0.0,0.0,0.0,0.0,0.0,0.0,0.0,0.0,0.0,0.0,0.0,0.0,0.0,0.0,0.0,0.0,0.0,0.0,0.0,0.0,0.0,0.0,0.0,0.0,0.0,0.0,0.0,0.0,0.0,0.0,0.0,0.0,0.0,0.0,0.0,0.0,0.0,0.0,0.0,0.0,0.0,0.0,0.0,0.0,0.0,0.0,0.0,0.0,0.0,0.0,0.0,0.0,0.0,0.0,0.0,0.0,0.0,0.0,0.0,0.0,0.0,0.0,0.0,0.0,0.0,0.0,0.0,0.0,0.0,0.0,0.0,0.0,0.0,0.0,0.0,0.0,0.0,0.0,0.0,0.0,0.0,0.0,0.0,0.0,0.0,0.0,0.0,0.0,0.0,0.0,0.0,0.0,0.0,0.0,0.0,0.0,0.0,0.0,0.0,0.0,0.0,0.0,0.0,0.0,0.0,0.0,0.0,0.0,0.0,0.0,0.0,0.0,0.0,0.0,0.0,0.0,0.0,0.0,0.0,0.0,0.0,0.0,0.0,0.0,0.0,0.0,0.0,0.0,0.0,0.0,0.0,0.0,0.0,0.0,0.0,0.0,0.0,0.0,0.0,0.0,0.0,0.0,0.0,0.0,0.0,0.0,0.0,0.0,0.0,0.0,0.0,0.0,0.0,0.0,0.0,0.0,0.0,0.0,0.0,0.0,0.0,0.0,0.0,0.0,0.0,0.0,0.0,0.0,0.0,0.0,0.0,0.0,0.0,0.0,0.0,0.0,0.0,0.0,0.0,0.0,0.0,0.0,0.0,0.0,0.0,0.0,0.0,0.0,0.0,0.0,0.0,0.0,0.0,0.0,0.0,0.0,0.0,0.0,0.0,0.0,0.0,0.0,0.0,0.0,0.0,0.0,0.0,0.0,0.0,0.0,0.0,0.0,0.0,0.0,0.0,0.0,0.0,0.0,0.0,0.0,0.0,0.0,0.0,0.0,0.0,0.0,0.0,0.0,0.0,0.0,0.0,0.0,0.0,0.0,0.0,0.0,0.0,0.0,0.0,0.0,0.0,0.0,0.0,0.0,0.0,0.0,0.0,0.0,0.0,0.0,0.0,0.0,0.0,0.0,0.0,0.0,0.0,0.0,0.0,0.0,0.0,0.0,0.0,0.0,0.0,0.0,0.0,0.0,0.0,0.0,0.0,0.0,0.0,0.0,0.0,0.0,0.0,0.0,0.0,0.0,0.0,0.0,0.0,0.0,0.0,0.0,0.0,0.0,0.0,0.0,0.0,0.0,0.0,0.0,0.0,0.0,0.0,0.0,0.0,0.0,0.0,0.0,0.0,0.0,0.0,0.0,0.0,0.0,0.0,0.0,0.0,0.0,0.0,0.0,0.0,0.0,0.0,0.0,0.0,0.0,0.0,0.0,0.0,0.0,0.0,0.0,0.0,0.0,0.0,0.0,0.0,0.0,0.0,0.0,0.0,0.0,0.0,0.0,0.0,0.0,0.0,0.0,0.0,0.0,0.0,0.0,0.0,0.0,0.0,0.0,0.0,0.0,0.0,0.0,0.0,0.0,0.0,0.0,0.0,0.0,0.0,0.0,0.0,0.0,0.0,0.0,0.0,0.0,0.0,0.0,0.0,0.0,0.0,0.0,0.0,0.0,0.0,0.0,0.0,0.0,0.0,-0.8396,0.0,0.0,0.0,0.0,0.0,0.0,0.0,0.0,0.0,0.0,0.0,0.0,0.0,0.0,0.0,0.0,0.0,0.0,0.0,0.0,0.0,0.0,0.0,0.0,0.0,0.0,0.0,0.0,0.0,0.0,0.0,0.0,0.0,0.0,0.0,0.0,0.0,0.0,0.0,0.5938,0.509,0.4552,0.5129,0.5085,0.4552,0.0,0.0,0.0,0.0,0.0,0.0,0.0,0.0,0.0,0.0,0.0,0.0,0.0,0.0,0.0,0.0,0.0,0.0,0.0,0.0,0.0,0.0,0.0,0.0,0.0,0.0,0.0,0.0,0.0,0.0,0.0,0.0,0.0,0.0,0.0,0.0,0.0,0.0,0.0,0.0,0.0,0.0,0.0,0.0,0.0,0.0,0.0,0.0,0.0,0.0,0.0,0.0,0.0,0.0,0.0,0.0,0.0,0.0,0.0,0.0,0.0,0.0,0.0,0.0,0.0,0.0,0.0,0.0,0.0,0.0,0.0,-0.9413,0.0,0.0,0.0,0.0,0.0,0.0,0.0,0.0,0.0,0.0,0.0,0.0,0.0,0.0,0.0,0.0,0.0,0.0,0.0,0.0,0.0,0.0,0.0,0.0,0.0,0.0,0.0,0.0,0.0,0.0,0.0,0.0,0.0,0.0,0.0,0.7095,0.7007,0.6782,0.5445,0.4152,0.2992,0.317,0.3303,0.3347,0.4552,0.0,0.0,0.0,0.0,0.0,0.0,0.0,0.0,0.0,0.0,0.0,0.0,0.0,0.0,0.0,0.0,0.0,0.0,0.0,0.0,0.0,0.0,0.0,0.0,0.0,0.0,0.0,0.0,0.0,0.0,0.0,0.0,0.0,0.0,0.0,0.0,0.0,0.0,0.0,0.0,0.0,0.0,0.0,0.0,0.0,0.0,0.0,0.0,0.0,0.0,0.0,0.0,0.0,0.0,0.0,0.0,0.0,0.0,0.0,0.0,0.0,0.0,0.0,-0.8321,-0.8384,-0.7476,-0.9208,-1.0646,-1.1798,-1.1381,-1.2301,-1.3812,0.0,0.0,0.0,0.0,0.0,0.0,0.0,0.0,0.0,0.0,0.0,0.0,0.0,0.0,0.0,0.0,0.0,0.0,0.0,0.0,0.0,0.0,0.0,0.0,0.0,0.0,0.0,0.0,0.0,0.0,0.0,0.0,0.0,0.7095,0.7095,0.6605,0.5625,0.3396,0.1657,0.0494,0.1567,0.2057,0.2102,0.3304,0.3838,0.3926,0.0,0.0,0.0,0.0,0.0,0.0,0.0,0.0,0.0,0.0,0.0,0.0,0.0,0.0,0.0,0.0,0.0,0.0,0.0,0.0,0.0,0.0,0.0,0.0,0.0,0.0,0.0,0.0,0.0,0.0,0.0,0.0,0.0,0.0,0.0,0.0,0.0,0.0,0.0,0.0,0.0,-0.0628,-0.1656,0.0,0.0,0.0,0.0,0.0,0.0,0.0,0.0,0.0,0.0,0.0,0.0,0.0,-0.5891,-0.6874,-0.7007,-0.7095,-0.7095,-0.8321,-0.8798,-0.8746,-1.094,-1.1875,-1.1888,-1.3107,0.0,-1.4045,-1.345,0.0,0.0,0.0,0.0,0.0,0.0,0.0,0.0,0.0,0.0,0.0,0.0,0.0,0.0,0.0,0.0,0.0,0.0,0.0,0.0,0.0,0.0,0.0,0.0,0.0,0.0,0.0,0.0,0.0,0.0,0.0,0.7095,0.7095,0.647,0.5223,0.3396,0.2326,0.1165,0.0,0.0539,0.0807,0.0807,0.1344,0.2325,0.3614,0.415,0.0,0.0,0.0,0.0,0.0,0.0,0.0,0.0,0.0,0.0,0.0,0.0,0.0,0.0,0.0,0.0,0.0,0.0,0.0,0.0,0.0,0.0,0.0,0.0,0.0,0.0,0.0,0.0,0.0,0.0,0.0,0.0,0.0,0.0,0.0,0.0,0.0,0.0,0.0,-0.0449,-0.0449,-0.1657,-0.0718,-0.0225,0.0,0.0,0.0,0.0,0.0,0.0,0.0,0.0,0.0,-0.5359,-0.6027,-0.6605,-0.7095,-0.7095,-0.7095,-0.7095,-0.8321,-0.8524,-0.7971,-0.9871,-1.0666,-1.06,-1.2145,-1.2905,-1.3131,-1.3799,-1.2973,-1.1375,0.0,0.0,0.0,0.0,0.0,-1.0697,0.0,0.0,0.0,0.0,0.0,0.0,0.0,0.0,0.0,0.0,0.0,0.0,0.0,0.0,0.0,0.1701,0.0,0.0,0.0,0.0,0.0,0.0,0.0,0.6962,0.665,0.5223,0.3619,0.179,0.1478,0.0897,0.0,0.0,0.0,0.0,0.0,0.0986,0.2681,0.2992,0.3126,0.317,0.0,0.0,0.0,0.0,0.0,0.0,0.0,0.0,0.0,0.0,0.0,0.0,0.0,0.0,0.0,0.0,0.0,0.0,0.0,0.0,0.0,0.0,0.0,0.0,0.0,0.0,0.0,0.0,0.0,0.0,0.0,0.0,0.0,0.0,0.0,0.0,0.0,-0.0584,-0.0449,-0.1657,-0.0718,-0.0225,0.0,0.0,0.0,0.0,0.0,0.0,-0.4061,-0.491,-0.5536,-0.5805,-0.665,-0.7095,-0.7095,-0.7095,-0.7095,-0.7095,-0.8017,-0.795,-0.7132,-0.8657,-0.9183,-0.8965,-1.0742,-1.1621,-1.1992,-1.3498,-1.343,-1.2492,-1.3666,-1.3028,-1.1569,-1.2178,-1.1989,-1.1606,0.0,0.0,0.0,0.0,0.0,0.0,0.0,0.0,0.0,0.0,0.0,0.0,0.0,0.0,0.0494,0.1701,0.179,0.2325,0.0,0.0,0.5403,0.5492,0.6517,0.6605,0.5492,0.3172,0.1924,0.179,0.0673,0.0045,0.0,0.0,0.0,0.0,0.0,0.009,0.0269,0.1388,0.1879,0.2013,0.3126,0.0,0.0,0.0,0.0,0.0,0.0,0.0,0.0,0.0,0.0,0.0,0.0,0.0,0.0,0.0,0.0,0.0,0.0,0.0,0.0,0.0,0.0,0.0,0.0,0.0,0.0,0.0,0.0,0.0,0.0,0.0,0.0,0.0,0.0,0.0,0.0,0.0,0.0,-0.1657,-0.0718,0.0,0.0,0.0,0.0,-0.3436,-0.357,-0.4105,-0.527,-0.5359,-0.5894,-0.6962,-0.7051,-0.7095,-0.7095,-0.7095,-0.7095,-0.7095,-0.7139,-0.7139,-0.7136,-0.836,-0.8317,-0.7353,-0.9653,-1.0649,-1.0869,-1.3173,-1.4046,-1.3997,-1.4053,-1.401,-1.3913,-1.3962,-1.3962,-1.3913,0.0,0.0,0.0,0.0,0.0,0.0,0.0,0.0,0.0,0.0,0.0,0.0,0.0,0.0,0.018,0.0583,0.0628,0.1165,0.237,0.0,0.3439,0.4196,0.4639,0.4283,0.3129,0.2236,0.1433,0.0628,0.0225,0.0,0.0,0.0,0.0,0.0,0.0,0.0,0.0045,0.0449,0.0628,0.0673,0.1121,0.1299,0.0,0.0,0.0,0.0,0.0,0.0,0.0,0.0,0.0,0.0,0.0,0.0,0.0,0.0,0.0,0.0,0.0,0.0,0.0,0.0,0.0,0.0,0.0,0.0,0.0,0.0,0.0,0.0,0.0,0.0,0.0,0.0,0.0,0.0,0.0,0.0,0.0,-0.0583,-0.0269,0.0,-0.121,-0.1612,-0.1969,-0.2413,-0.3885,-0.4956,-0.5359,-0.6115,-0.6694,-0.7095,-0.7095,-0.7095,-0.7095,-0.7095,-0.7095,-0.7095,-0.7095,-0.7095,-0.7095,-0.7533,-0.7489,-0.7183,-0.8798,-0.9923,-1.074,-1.2291,-1.3385,-1.4088,-1.4088,-1.4088,-1.4088,-1.4088,-1.4088,-1.4088,0.0,0.0,0.0,0.0,0.0,0.0,0.0,0.0,0.0,0.0,0.0,0.0,0.0,0.0,0.0,0.0,0.0,0.0359,0.1121,0.0,0.2592,0.2992,0.2992,0.2637,0.1835,0.1388,0.0807,0.0,0.0,0.0,0.0,0.0,0.0,0.0,0.0,0.0,0.0,0.0,0.0,0.0,0.0,0.0,0.0,0.0,0.0,0.0,0.0,0.0,0.0,0.0,0.0,0.0,0.0,0.0,0.0,0.0,0.0,0.0,0.0,0.0,0.0,0.0,0.0,0.0,0.0,0.0,0.0,0.0,0.0,0.0,0.0,0.0,0.0,0.0,0.0,0.0,0.0,0.0,0.0,0.0,0.0,-0.018,-0.0584,-0.1344,-0.1969,-0.237,-0.4287,-0.5403,-0.5403,-0.6473,-0.7095,-0.7095,-0.7095,-0.7095,-0.7095,-0.7095,-0.7095,-0.7095,-0.7095,-0.7095,-0.7095,-0.7095,-0.7095,-0.7139,-0.7929,-0.8973,-1.0091,-1.1257,-1.2419,-1.3512,-1.3955,-1.4088,-1.4088,-1.4088,-1.4088,-1.4088,0.0,0.0,0.0,0.0,0.0,0.0,0.0,0.0,0.0,0.0,0.0,0.0,0.0,0.0,0.0,0.0,0.0,0.0,0.0,0.2191,0.2948,0.179,0.1746,0.1746,0.1746,0.0583,0.0,0.0,0.0,0.0,0.0,0.0,0.0,0.0,0.0,0.0,0.0,0.0,0.0,0.0,0.0,0.0,0.0,0.0,0.0,0.0,0.0,0.0,0.0,0.0,0.0,0.0,0.0,0.0,0.0,0.0,0.0,0.0,0.0,0.0,0.0,0.0,0.0,0.0,0.0,0.0,0.0,0.0,0.0,0.0,0.0,0.0,0.0,0.0,0.0,0.0,0.0,0.0,0.0,0.0,0.0,-0.0449,-0.1612,-0.1746,-0.2236,-0.3436,-0.4643,-0.5359,-0.5403,-0.6473,-0.7095,-0.7095,-0.7095,-0.7095,-0.7095,-0.7095,-0.7095,-0.7095,-0.7095,-0.7095,-0.7095,-0.7095,-0.7095,-0.7095,-0.7095,-0.7797,-0.9021,-1.0135,-1.1295,-1.2456,-1.3646,-1.4088,-1.4088,-1.4088,-1.4088,-1.4088,0.0,0.0,0.0,0.0,0.0,0.0,0.0,0.0,0.0,0.0,0.0,0.0,0.0,0.0,0.0,0.0,0.0,0.0,0.0,0.0,0.0852,0.0494,0.0494,0.0494,0.0494,0.018,0.0,0.0,0.0,0.0,0.0,0.0,0.0,0.0,0.0,0.0,0.0,0.0,0.0,0.0,0.0,0.0,0.0,0.0,0.0,0.0,0.0,0.0,0.0,0.0,0.0,0.0,0.0,0.0,0.0,0.0,0.0,0.0,0.0,0.0,0.0,0.0,0.0,0.0,0.0,0.0,0.0,0.0,0.0,0.0,0.0,0.0,0.0,0.0,0.0,0.0,0.0,0.0,0.0,0.0,0.0,-0.0135,-0.0449,-0.0494,-0.0986,-0.2191,-0.3393,-0.4463,-0.5359,-0.6473,-0.7095,-0.7095,-0.7095,-0.7095,-0.7095,-0.7095,-0.7095,-0.7095,-0.7095,-0.7095,-0.7095,-0.7095,-0.7095,-0.7095,-0.7095,-0.8273,-1.0183,-1.0481,-1.1778,-1.3646,-1.3955,-1.4088,-1.4088,-1.4088,-1.4088,-1.4088,0.0,0.0,0.0,0.0,0.0,0.0,0.0,0.0,0.0,0.0,0.0,0.0,0.0,0.0,0.0,0.0,0.0,0.0,0.0,0.0,0.0225,0.0718,0.0269,0.0,0.0,0.0,0.0,0.0,0.0,0.0,0.0,0.0,0.0,0.0,0.0,0.0,0.0,0.0,0.0,0.0,0.0,0.0,0.0,0.0,0.0763,0.1746,0.121,0.1389,0.179,0.179,0.0,0.0,0.0,0.0,0.0,0.0,0.0,0.0,0.0,0.0,0.0,0.0,0.0,0.0,0.0,0.0,0.0,0.0,0.0,0.0,0.0,0.0,0.0,0.0,0.0,0.0,0.0,0.0,0.0,0.0,0.0,0.0,0.0,0.0,-0.0269,-0.0986,-0.2147,-0.3393,-0.4599,-0.5758,-0.6634,-0.7189,-0.7238,-0.7268,-0.7287,-0.7287,-0.7287,-0.7287,-0.7287,-0.7287,-0.7287,-0.7287,-0.7287,0.0,-0.7287,-0.8091,-0.9423,-1.0308,-1.15,0.0,0.0,0.0,0.0,0.0,-1.4088,-1.4088,0.0,0.0,0.0,0.0,0.0,0.0,0.0,0.0,0.0,0.0,0.0,0.0,0.0,0.0,0.0,0.0,0.0,0.0,0.0,0.0,0.0494,0.1567,0.0584,0.0,0.0,0.0,0.0,0.0,0.0,0.0,0.0,0.0,0.0,0.0,0.0,0.0,0.0,0.0,0.0,0.0,0.0,0.0,0.0,0.0,0.0673,0.1478,0.0404,0.0673,0.1612,0.1612,0.0,0.0,0.0,0.0,0.0,0.0,0.0,0.0,0.0,0.0,0.0,0.0,0.0,0.0,0.0,0.0,0.0,0.0,0.0,0.0,0.0,0.0,0.0,0.0,0.0,0.0,0.0,0.0,0.0,0.0,0.0,0.0,0.0,0.0,-0.0045,-0.018,-0.1212,-0.2378,-0.3762,0.0,0.0,0.0,0.0,-0.7461,-0.7597,-0.76,-0.76,-0.76,-0.76,-0.76,-0.76,-0.76,-0.76,-0.76,-0.76,-0.7691,-0.7959,-1.0031,-1.1029,-1.1449,-1.3378,-1.4088,-1.4088,-1.4088,-1.4088,0.0,0.0,0.0,0.0,0.0,0.0,0.0,0.0,0.0,0.0,0.0,0.0,0.0,0.0,0.0,0.0,0.0,0.0,0.0,0.0,0.0,0.009,0.0359,0.0135,0.0,0.0,0.0,0.0,0.0,0.0,0.0,0.0,0.0,0.0,0.0,0.0,0.0,0.0,0.0,0.0,0.0,0.0,0.0,0.0,0.0,0.0135,0.0314,0.009,0.0135,0.0359,0.0359,0.018,0.0045,0.0269,0.0852,0.0,0.0,0.0,0.0,0.0,0.0,0.0,0.0,0.0,0.0,0.0,0.0,0.0,0.0,0.0,0.0,0.0,0.0,0.0,0.0225,0.0,0.0,0.0,0.0,0.0,0.0,0.0,0.0,0.0,0.0,-0.0404,-0.1389,-0.1683,-0.2797,-0.5084,-0.5437,0.0,-0.7506,-0.7556,-0.757,-0.76,-0.76,-0.76,-0.76,0.0,0.0,-0.76,-0.76,-0.76,-0.76,-0.76,-0.8106,-0.9068,-1.0596,-1.236,-1.418,-1.4117,-1.4088,-1.4088,-1.4088,-1.4088,-1.4088,0.0,0.0,0.0,0.0,0.0,0.0,0.0,0.0,0.0,0.0,0.0,0.0,0.0,0.0,0.0,0.0,0.0,0.0,0.0,0.0,0.0,0.0,0.0,0.0,0.0,0.0,0.0,0.0,0.0,0.0,0.0,0.0,0.0,0.0,0.0,0.0,0.0,0.0,0.0,0.0045,0.0673,0.0539,0.0045,0.0673,0.0897,0.0986,0.1567,0.1433,0.0897,0.0897,0.0494,0.0,0.0,0.0807,0.2057,0.0,0.0,0.0,0.0,0.0,0.0,0.0,0.0,0.0,0.0,0.0,0.0,0.0,0.0,0.3215,0.2013,0.0,0.1388,0.018,0.0,0.0,0.0,0.0,0.0,0.0,0.0,0.0,0.0,0.0,-0.0228,-0.0865,-0.0881,-0.2014,-0.4583,-0.4718,-0.5621,-0.7655,-0.7706,-0.7743,-0.7821,-0.7821,-0.7821,-0.7821,-0.7821,-0.7821,-0.7821,-0.7821,-0.7821,-0.7821,-0.7821,-0.8104,-0.8808,-1.0641,-1.2441,-1.4051,-1.441,-1.4566,-1.4553,-1.4355,-1.4302,-1.4302,0.0,0.0,0.0,0.0,0.0,0.0,0.0,0.0,0.0,0.0,0.0,0.0,0.0,0.0,0.0,0.0,0.0,0.0,0.0,0.0,0.0,0.0,0.0,0.0,0.0,0.0,0.0,0.0,0.0,0.0,0.0,0.0,0.0,0.0,0.0,0.0,0.0,0.0269,0.0359,0.0449,0.1657,0.1567,0.0852,0.2058,0.2192,0.1969,0.317,0.2992,0.2147,0.2147,0.1522,0.0718,0.0718,0.1389,0.237,0.3616,0.4641,0.0,0.0,0.0,0.0,0.0,0.0,0.0,0.0,0.4512,0.4376,0.317,0.2903,0.2592,0.1612,0.1433,0.1121,0.018,0.0,0.0,0.0,0.0,0.0,0.0,0.0,0.0,0.0,0.0,0.0,0.0,0.0,-0.1005,-0.3342,-0.3688,-0.4927,-0.7362,-0.7709,-0.7916,-0.7988,-0.7988,-0.7988,-0.7988,-0.7988,-0.7988,-0.7988,-0.7988,-0.7988,-0.7988,-0.7988,-0.8137,-0.852,-1.0447,-1.1984,-1.3256,-1.4377,-1.4942,-1.509,-1.4736,-1.4603,-1.4603,0.0,0.0,0.0,0.0,0.0,0.0,0.0,0.0,0.0,0.0,0.0,0.0,0.0,0.0,0.0,0.0,0.0,0.0,0.0,0.0,0.0,0.0,0.0,0.0,0.0,0.0,0.0,0.0,0.0,0.0,0.0,0.0,0.0,0.0,0.0,0.0,0.009,0.1165,0.1612,0.1701,0.2903,0.3303,0.3349,0.4554,0.3662,0.1969,0.317,0.3525,0.3392,0.3392,0.3303,0.3213,0.3213,0.3303,0.3616,0.4865,0.5314,0.5669,0.6786,0.6248,0.5134,0.4061,0.3792,0.326,0.0,0.1433,0.1879,0.0673,0.0404,0.0359,0.0225,0.018,0.0135,0.0,0.0,0.0,0.0,0.0,0.0,0.0,0.0,0.0,0.0,0.0,0.0,0.0,0.0,-0.0635,-0.2145,-0.3314,-0.4644,-0.6158,-0.7363,-0.7971,-0.7988,-0.7988,-0.7988,-0.7988,-0.7988,-0.7988,-0.7988,-0.7988,-0.7988,-0.7988,-0.7988,-0.8676,-0.9801,-1.007,-1.1599,-1.379,-1.3981,-1.4712,-1.5665,-1.5117,-1.4961,-1.4961,0.0,0.0,0.0,0.0,0.0,0.0,0.0,0.0,0.0,0.0,0.0,0.0,0.0,0.0,0.0,0.0,0.0,0.0,0.0,0.0,0.0,0.0,0.0,0.0,0.0,0.0,0.0,0.0,0.0,0.0,0.0,0.0,0.0,0.0,0.0,0.0404,0.1076,0.1567,0.2191,0.2949,0.4152,0.4241,0.3792,0.5667,0.5356,0.4065,0.5218,0.522,0.0,0.4641,0.4194,0.3614,0.3614,0.4061,0.4732,0.527,0.5891,0.6204,0.5307,0.473,0.4061,0.286,0.3081,0.3347,0.2325,0.3038,0.3573,0.2325,0.2102,0.1879,0.1165,0.1031,0.0807,0.0135,0.0,0.0,0.0,0.0,0.0,0.0,0.0,0.0,0.0,0.0,0.0,0.0,0.0,-0.0598,-0.194,-0.2553,-0.3819,-0.5929,-0.6531,-0.7235,-0.7988,-0.7988,-0.7988,-0.7988,-0.7988,-0.7988,-0.7988,-0.7988,-0.7988,-0.7988,-0.7988,-0.8333,-0.8874,-0.9657,-1.0632,-1.1697,-1.2425,-1.306,-1.3651,-1.4804,-1.5217,-1.5217,0.0,0.0,0.0,0.0,0.0,0.0,0.0,0.0,0.0,0.0,0.0,0.0,0.0,0.0,0.0359,0.0045,0.0,0.0,0.0,0.0,0.0,0.0,0.0,0.0,0.0,0.0,0.0,0.0,0.0,0.0,0.0,0.0,0.0,0.0,0.0,0.0673,0.1835,0.2147,0.2994,0.4194,0.5401,0.5354,0.4772,0.647,0.6605,0.5983,0.6782,0.6561,0.5847,0.5847,0.5309,0.455,0.455,0.5176,0.5847,0.5847,0.6473,0.6738,0.5041,0.4328,0.3883,0.2994,0.3215,0.3614,0.3614,0.4283,0.4641,0.3792,0.3614,0.3347,0.2458,0.228,0.1879,0.0673,0.0494,0.0359,0.0045,0.0,0.0,0.0,0.0,0.0,0.0,0.0,0.0,0.0,0.0,-0.0404,-0.141,-0.1812,-0.3066,-0.5375,-0.5827,-0.6631,-0.7988,-0.7988,-0.7988,-0.7988,-0.7988,-0.7988,-0.7988,-0.7988,-0.7988,-0.7988,-0.7988,-0.7988,-0.8088,-0.9069,-0.9657,-1.0096,-1.1023,-1.1604,-1.2119,-1.382,-1.4418,-1.4418,0.0,0.0,0.0,0.0,0.0,0.0,0.0,0.0,0.0,0.0,0.0,0.0,0.0,0.0,0.1254,0.009,0.0,0.0,0.0,0.0,0.0,0.0,0.0,0.0,0.0,0.0,0.0,0.0,0.0,0.0,0.0,0.0,0.0,0.0,0.0,0.0673,0.1879,0.3037,0.4241,0.5447,0.6605,0.7007,0.7007,0.7095,0.7095,0.7051,0.7095,0.7095,0.7051,0.7051,0.7007,0.7007,0.7007,0.7007,0.7051,0.7051,0.7095,0.7095,0.7007,0.6204,0.5359,0.5314,0.4419,0.3614,0.3614,0.3614,0.3659,0.3614,0.3614,0.357,0.357,0.3525,0.317,0.1924,0.1746,0.1344,0.018,0.0,0.0,0.0,0.0,0.0,0.0,0.0,0.0,0.0,0.0,0.0,-0.005,-0.131,-0.2614,-0.4016,-0.5322,-0.6631,-0.7988,-0.7988,-0.7988,-0.7988,-0.7988,-0.7988,-0.7988,-0.7988,-0.7988,-0.7988,-0.7988,-0.7988,-0.7988,-0.8038,-0.8825,-0.9998,-1.0047,-1.0828,-1.1896,-1.1989,-1.2032,-1.2032,0.0,0.0,0.0,0.0,0.0,0.0,0.0,0.0,0.0,0.0,0.0,0.0,0.0,0.0,0.0,0.0,0.0,0.0,0.0,0.0,0.0,0.0,0.0,0.0,0.0,0.0,0.0,0.0,0.0,0.0,0.0,0.0,0.0,0.0,0.0,0.1121,0.3037,0.3436,0.4727,0.6561,0.6962,0.7095,0.7095,0.7095,0.7095,0.7095,0.0,0.7095,0.7095,0.7095,0.7095,0.7095,0.7095,0.7095,0.7095,0.7095,0.7095,0.6918,0.616,0.5672,0.5223,0.4419,0.4508,0.4776,0.4776,0.5398,0.5933,0.5933,0.5933,0.5711,0.4954,0.4776,0.4419,0.317,0.2324,0.1664,0.1233,0.0512,0.0,0.0,0.0,0.0,0.0,0.0,0.0,0.0,0.0,0.0,0.0,-0.0404,-0.131,-0.2614,-0.3967,-0.5322,-0.6681,-0.7537,-0.7537,-0.6681,-0.6681,-0.7135,-0.7988,-0.7988,-0.7988,-0.7988,-0.7988,-0.7988,-0.7988,-0.7988,-0.8283,-0.8676,-0.8676,-0.892,-0.9312,-0.9312,-0.9312,-0.9554,0.0,0.0,0.0,0.0,0.0,0.0,0.0,0.0,0.0,0.0,0.0,0.0,0.0,0.0,0.0,0.0,0.0,0.0,0.0,0.0,0.0,0.0,0.0404,0.0628,0.0628,0.1076,0.1076,0.0628,0.0628,0.0404,0.0,0.0,0.0,0.0,0.0449,0.1746,0.3614,0.4061,0.5354,0.7095,0.7095,0.7095,0.7095,0.7095,0.7095,0.0,0.7095,0.7095,0.7095,0.7095,0.7095,0.7095,0.7095,0.7095,0.7095,0.7095,0.7095,0.6962,0.6204,0.6027,0.5802,0.5041,0.5442,0.6027,0.6027,0.6561,0.7095,0.7095,0.7095,0.6874,0.616,0.6027,0.5578,0.4239,0.3842,0.3108,0.138,0.047,0.0,0.0,0.0,0.0,0.0,0.0,0.0,0.0,0.0,0.0,0.0,0.0,-0.0605,-0.1962,-0.2815,-0.3917,-0.5272,-0.6124,-0.6379,-0.5979,-0.5979,-0.6681,-0.7988,-0.7988,-0.7988,-0.7988,-0.7988,-0.7988,-0.7988,-0.7988,-0.7988,-0.7988,-0.7988,-0.7988,-0.7988,-0.7988,-0.7988,-0.8333,0.0,0.0,0.0,0.0,0.0,0.0,0.0,0.0,0.0,0.0,0.0,0.0,0.0,0.0,0.0,0.0,0.0,0.0,0.0,0.0045,0.009,0.009,0.1254,0.1879,0.1879,0.2992,0.3037,0.1879,0.1879,0.1299,0.018,0.018,0.018,0.0225,0.1389,0.2547,0.3748,0.491,0.6071,0.7095,0.7095,0.7095,0.7095,0.7095,0.7095,0.7095,0.7095,0.7095,0.7095,0.7095,0.7095,0.7095,0.7095,0.7095,0.7095,0.7095,0.7095,0.7095,0.7095,0.7095,0.7095,0.7095,0.7095,0.7095,0.7095,0.7095,0.7095,0.7095,0.7095,0.7095,0.7095,0.7095,0.6602,0.5174,0.6127,0.5502,0.1013,0.0141,0.0,0.0,0.0,0.0,0.0,0.0,0.0,0.0,0.0,0.0,0.0,0.0,-0.0605,-0.1862,-0.1962,-0.2564,-0.3765,-0.3865,-0.4618,-0.5979,-0.5929,-0.6631,-0.7988,-0.7988,-0.7988,-0.7988,-0.7988,-0.7988,-0.7988,-0.7988,-0.7988,-0.7988,-0.7988,-0.7988,-0.7988,-0.7988,-0.7988,-0.8187,0.0,0.0,0.0,0.0,0.0,0.0,0.0,0.0,0.0,0.0,0.0,0.0,0.0,0.0,0.0,0.0,0.0,0.0,0.0,0.0852,0.1344,0.1344,0.2503,0.3126,0.3126,0.3436,0.3436,0.3126,0.3126,0.2992,0.2681,0.2681,0.2681,0.2681,0.2992,0.3794,0.4954,0.527,0.6071,0.7095,0.7095,0.7095,0.7095,0.7095,0.7095,0.7095,0.7095,0.7095,0.7095,0.7095,0.7095,0.7095,0.7095,0.7095,0.7095,0.7095,0.7095,0.7095,0.7095,0.7095,0.7095,0.7095,0.7095,0.7095,0.7095,0.7095,0.7095,0.7095,0.7095,0.7095,0.7095,0.7095,0.6962,0.6558,0.6846,0.6674,0.5457,0.2227,0.0,0.0,0.0,0.0,0.0,0.0,0.0,0.0,0.0,0.0,0.0,0.0,-0.0151,-0.0504,-0.146,-0.166,-0.1005,-0.2011,-0.3668,-0.5979,-0.497,-0.5722,-0.7988,-0.7988,-0.7988,-0.7988,-0.7988,-0.7988,-0.7988,-0.7988,-0.7988,-0.7988,-0.7988,-0.7988,-0.7988,-0.7988,-0.7988,-0.8187,0.0,0.0,0.0,0.0,0.0,0.0,0.0,0.0,0.0,0.0,0.0,0.0,0.0,0.0,0.0,0.0,0.0,0.0,0.0,0.2236,0.2592,0.2592,0.3749,0.4374,0.4374,0.4863,0.4907,0.4374,0.4374,0.4105,0.3614,0.3614,0.3614,0.3614,0.415,0.4776,0.5447,0.5938,0.6517,0.0,0.0,0.7095,0.7095,0.7095,0.7095,0.7095,0.7095,0.7095,0.7095,0.7095,0.7095,0.7095,0.7095,0.7095,0.7095,0.7095,0.7095,0.7095,0.7095,0.7095,0.7095,0.7095,0.7095,0.7095,0.7095,0.7095,0.7095,0.7095,0.7095,0.7095,0.7095,0.7095,0.7095,0.7095,0.7105,0.7088,0.7108,0.2989,0.0,0.0,0.0,0.0,0.0,0.0,0.0,0.0,0.0,0.0,0.0,0.0,0.0,0.0,-0.0706,-0.0756,0.0,-0.0756,-0.2465,-0.5122,-0.4368,-0.542,-0.7988,-0.7988,-0.7988,-0.7988,0.0,-0.7988,-0.7988,-0.7988,-0.7988,-0.7988,-0.7988,-0.7988,-0.7988,-0.7988,-0.7988,-0.8088,0.0,0.0,0.0,0.0,0.0,0.0,0.0,0.0,0.0,0.0,0.0,0.0,0.0,0.0,0.0,0.0,0.0,0.0,0.0,0.0,0.0,0.3838,0.4999,0.5625,0.5625,0.6605,0.6605,0.5625,0.5625,0.5087,0.4059,0.4059,0.4059,0.4103,0.5179,0.5625,0.5672,0.6694,0.7095,0.7095,0.7095,0.7095,0.7095,0.0,0.0,0.7095,0.7095,0.7095,0.7095,0.7095,0.7095,0.7095,0.7095,0.7095,0.7095,0.7095,0.7095,0.7095,0.7095,0.7095,0.7095,0.7095,0.7095,0.7095,0.7095,0.7095,0.7095,0.7095,0.7095,0.7095,0.7095,0.7095,0.7095,0.7095,0.7095,0.7107,0.7116,0.3594,0.0817,0.01,0.0,0.0,0.0,0.0,0.0,0.0,0.0,0.0,0.0,0.0,0.0,0.0,0.0,0.0,0.0,0.0,-0.136,-0.4016,-0.4016,-0.542,-0.7988,-0.7988,-0.7988,-0.7988,0.0,0.0,-0.7988,-0.7988,-0.7988,-0.7988,-0.7988,-0.7988,-0.7988,-0.7988,-0.7988,-0.7988,0.0,0.0,0.0,0.0,0.0,0.0,0.0,0.0,0.0,0.0,0.0,0.0,0.0,0.0,0.0,0.0,0.0,0.0,0.0,0.0,0.0,0.509,0.6204,0.6782,0.6782,0.7007,0.7007,0.6782,0.6782,0.6694,0.6514,0.6514,0.6514,0.6514,0.6694,0.6782,0.6827,0.7007,0.7095,0.7095,0.7095,0.7095,0.7095,0.0,0.0,0.0,0.7095,0.7095,0.7095,0.7095,0.7095,0.7095,0.7095,0.7095,0.7095,0.7095,0.7095,0.7095,0.7095,0.7095,0.7095,0.7095,0.7095,0.7095,0.7095,0.7095,0.7095,0.7095,0.7095,0.7095,0.7095,0.7095,0.7095,0.7095,0.7095,0.7077,0.7096,0.6801,0.4947,0.0541,0.0,0.0,0.0,0.0,0.0,0.0,0.0,0.0,0.0,0.0,0.0,0.0,0.0,0.0,0.0,0.0,-0.136,-0.4016,-0.4016,-0.542,-0.7988,-0.7988,-0.7988,-0.7988,0.0,0.0,-0.7988,-0.7988,-0.7988,-0.7988,-0.7988,-0.7988,-0.7988,-0.7988,-0.7988,-0.7988,0.0,0.0,0.0,0.0,0.0,0.0,0.0,0.0,0.0,0.0,0.0,0.0,0.0,0.0,0.0,0.0,0.0,0.0,0.0,0.0,0.0,0.0,0.0,0.0,0.7095,0.7095,0.7095,0.7095,0.0,0.7095,0.7095,0.7095,0.7095,0.7095,0.7095,0.7095,0.7095,0.7095,0.7095,0.7095,0.7095,0.7095,0.0,0.0,0.0,0.0,0.7095,0.7095,0.7095,0.7095,0.7095,0.7095,0.7095,0.7095,0.7095,0.7095,0.7095,0.7095,0.7095,0.7095,0.7095,0.7095,0.7095,0.7095,0.7095,0.7095,0.7095,0.7095,0.7095,0.7095,0.7095,0.7095,0.7095,0.7095,0.7095,0.7111,0.7106,0.5211,0.2869,0.0293,0.0,0.0,0.0,0.0,0.0,0.0,0.0,0.0,0.0,0.0,0.0,0.0,0.0,0.0,0.0,0.0,-0.136,-0.4016,-0.4016,-0.542,-0.7988,-0.7988,-0.7988,-0.7988,-0.7988,0.0,-0.7988,-0.7988,-0.7988,-0.7988,-0.7988,-0.7988,-0.7988,-0.7988,-0.7988,-0.7988,0.0,0.0,0.0,0.0,0.0,0.0,0.0,0.0,0.0,0.0,0.0,0.0,0.0,0.0,0.0,0.0,0.0,0.0,0.0,0.0,0.0,0.0,0.0,0.0,0.0,0.0,0.0,0.7095,0.7095,0.0,0.0,0.0,0.0,0.0,0.7095,0.7095,0.7095,0.7095,0.7095,0.0,0.0,0.7095,0.0,0.0,0.0,0.0,0.0,0.7095,0.7095,0.7095,0.7095,0.7095,0.7095,0.7095,0.7095,0.7095,0.7095,0.7095,0.7095,0.7095,0.7095,0.7095,0.7095,0.7095,0.7095,0.7095,0.7095,0.7095,0.7095,0.7095,0.7095,0.7095,0.7095,0.7095,0.7095,0.7101,0.7106,0.2986,0.0,0.0,0.0,0.0,0.0,0.0,0.0,0.0,0.0,0.0,0.0,0.0,0.0,0.0,0.0,0.0,0.0,-0.0303,-0.1611,-0.4016,-0.4268,-0.5672,-0.7988,-0.7988,-0.7988,-0.7988,-0.7988,0.0,0.0,-0.7988,-0.7988,-0.7988,-0.7988,-0.7988,-0.7988,-0.7988,-0.7988,-0.7988,0.0,0.0,0.0,0.0,0.0,0.0,0.0,0.0,0.0,0.0,0.0,0.0,0.0,0.0,0.0,0.0,0.0,0.0,0.0,0.0,0.0,0.0,0.0,0.0,0.0,0.0,0.0,0.7095,0.7095,0.0,0.0,0.0,0.0,0.0,0.0,0.7095,0.7095,0.7095,0.0,0.0,0.0,0.0,0.0,0.0,0.0,0.0,0.0,0.7095,0.7095,0.7095,0.7095,0.7095,0.7095,0.7095,0.7095,0.7095,0.7095,0.7095,0.7095,0.7095,0.7095,0.7095,0.7095,0.7095,0.7095,0.7095,0.7095,0.7095,0.7095,0.7095,0.7095,0.7095,0.7095,0.7095,0.7095,0.7112,0.7115,0.3008,0.0,0.0,0.0,0.0,0.0,0.0,0.0,0.0,0.0,0.0,0.0,0.0,0.0,0.0,0.0,0.0,0.0,-0.1209,-0.2564,-0.4016,-0.5222,-0.6581,-0.7988,-0.7988,-0.7988,-0.7988,-0.7988,0.0,0.0,-0.7988,-0.7988,-0.7988,-0.7988,-0.7988,-0.7988,-0.7988,-0.7988,-0.7988,0.0,0.0,0.0,0.0,0.0,0.0,0.0,0.0,0.0,0.0,0.0,0.0,0.0,0.0,0.0,0.0,0.0,0.0,0.0,0.0,0.0,0.0,0.0,0.0,0.0,0.0,0.0,0.7095,0.7095,0.0,0.0,0.0,0.0,0.0,0.0,0.7095,0.7095,0.7095,0.0,0.0,0.0,0.0,0.0,0.0,0.0,0.0,0.0,0.0,0.7095,0.7095,0.7095,0.7095,0.7095,0.7095,0.7095,0.7095,0.7095,0.7095,0.7095,0.7095,0.7095,0.7095,0.7095,0.7095,0.7095,0.7095,0.7095,0.7095,0.7095,0.7095,0.7095,0.7095,0.7095,0.7095,0.7095,0.7105,0.7088,0.579,0.3603,0.0381,0.0,0.0,0.0,0.0,0.0,0.0,0.0,0.0,0.0,0.0,0.0,0.0,0.0,0.0,0.0,-0.0504,-0.1862,-0.4016,-0.4518,-0.5924,-0.7988,-0.7988,-0.7988,-0.7988,-0.7988,0.0,0.0,-0.7988,-0.7988,-0.7988,-0.7988,-0.7988,-0.7988,-0.7988,-0.7988,-0.7988,0.0,0.0,0.0,0.0,0.0,0.0,0.0,0.0,0.0,0.0,0.0,0.0,0.0,0.0,0.0,0.0,0.0,0.0,0.0,0.0,0.0,0.0,0.0,0.0,0.0,0.0,0.0,0.7095,0.7095,0.7095,0.0,0.0,0.7095,0.7095,0.0,0.0,0.0,0.0,0.0,0.0,0.0,0.0,0.0,0.0,0.0,0.0,0.0,0.0,0.0,0.0,0.0,0.7095,0.7095,0.7095,0.7095,0.7095,0.7095,0.7095,0.7095,0.7095,0.7095,0.7095,0.7095,0.7095,0.7095,0.7095,0.7095,0.7095,0.7095,0.7095,0.7095,0.7095,0.7095,0.7095,0.7095,0.7105,0.7081,0.7572,0.6231,0.1712,0.0492,0.0,0.0,0.0,0.0,0.0,0.0,0.0,0.0,0.0,0.0,0.0,0.0,0.0,0.0,-0.0807,-0.2113,-0.4016,-0.4818,-0.6174,-0.7988,-0.7988,-0.7988,-0.7988,0.0,0.0,0.0,-0.7988,-0.7988,-0.7988,-0.7988,-0.7988,-0.7988,-0.7988,-0.7988,-0.7988,0.0,0.0,0.0,0.0,0.0,0.0,0.0,0.0,0.0,0.0,0.0,0.0,0.0,0.0,0.0,0.0,0.0,0.0,0.0,0.0,0.0,0.0,0.0,0.0,0.0,0.0,0.0,0.0,0.0,0.0,0.7095,0.7095,0.7095,0.7095,0.0,0.0,0.0,0.0,0.0,0.0,0.0,0.0,0.0,0.0,0.0,0.0,0.0,0.0,0.0,0.0,0.0,0.0,0.0,0.7095,0.7095,0.7095,0.7095,0.7095,0.7095,0.7095,0.7095,0.7095,0.7095,0.7095,0.7095,0.7095,0.7095,0.7095,0.7095,0.7095,0.7095,0.7095,0.7095,0.7095,0.7095,0.7105,0.7081,0.7385,0.6712,0.4243,0.1624,0.0,0.0,0.0,0.0,0.0,0.0,0.0,0.0,0.0,0.0,0.0,0.0,0.0,0.0,-0.2614,-0.3966,-0.4016,-0.6678,-0.7988,-0.7988,-0.7988,-0.7988,0.0,0.0,0.0,0.0,-0.7988,-0.7988,-0.7988,-0.7988,-0.7988,-0.7988,-0.7988,-0.7988,-0.7988,0.0,0.0,0.0,0.0,0.0,0.0,0.0,0.0,0.0,0.0,0.0,0.0,0.0,0.0,0.0,0.0,0.0,0.0,0.0,0.0,0.0,0.0,0.0,0.0,0.0,0.0,0.0,0.0,0.0,0.0,0.0,0.0,0.0,0.7095,0.7095,0.0,0.0,0.0,0.0,0.0,0.0,0.0,0.0,0.0,0.0,0.0,0.0,0.0,0.0,0.0,0.0,0.0,0.0,0.0,0.0,0.7095,0.7095,0.7095,0.7095,0.7095,0.7095,0.7095,0.7095,0.7095,0.7095,0.7095,0.7095,0.7095,0.7095,0.7095,0.7095,0.7095,0.7095,0.7095,0.7095,0.7098,0.7105,0.6385,0.541,0.4135,0.1624,0.0,0.0,0.0,0.0,0.0,0.0,0.0,0.0,0.0,0.0,0.0,0.0,0.0,0.0,-0.1762,-0.3115,-0.4016,-0.5774,-0.7135,-0.7988,-0.7988,0.0,0.0,0.0,0.0,0.0,-0.7988,-0.7988,-0.7988,-0.7988,-0.7988,-0.7988,-0.7988,-0.7988,-0.7988,0.0,0.0,0.0,0.0,0.0,0.0,0.0,0.0,0.0,0.0,0.0,0.0,0.0,0.0,0.0,0.0,0.0,0.0,0.0,0.0,0.0,0.0,0.0,0.0,0.0,0.0,0.0,0.0,0.0,0.0,0.0,0.0,0.0,0.0,0.0,0.0,0.0,0.0,0.0,0.0,0.0,0.0,0.7896,0.0,0.0,0.0,0.0,0.0,0.0,0.0,0.0,0.0,0.0,0.0,0.0,0.0,0.7095,0.7095,0.7095,0.7095,0.7095,0.7095,0.7095,0.7095,0.7095,0.7095,0.7095,0.7095,0.7095,0.7095,0.7095,0.7095,0.7095,0.7095,0.7095,0.6962,0.6517,0.5774,0.4765,0.3391,0.1341,0.0,0.0,0.0,0.0,0.0,0.0,0.0,0.0,0.0,0.0,0.0,0.0,-0.0252,-0.0756,-0.2063,-0.3416,-0.477,-0.6126,-0.7185,-0.7988,-0.7988,0.0,0.0,0.0,0.0,0.0,-0.7988,-0.7988,-0.7988,-0.7988,-0.7988,-0.7988,-0.7988,-0.7988,-0.7988,0.0,0.0,0.0,0.0,0.0,0.0,0.0,0.0,0.0,0.0,0.0,0.0,0.0,0.0,0.0,0.0,0.0,0.0,0.0,0.0,0.0,0.0,0.0,0.0,0.0,0.0,0.0,0.7095,0.7095,0.7095,0.7095,0.0,0.0,0.0,0.0,0.0,0.0,0.0,0.0,0.0,0.0,0.0,0.0,0.0,0.0,0.0,0.0,0.0,0.0,0.0,0.0,0.0,0.0,0.0,0.0,0.0,0.0,0.0,0.0,0.7095,0.7095,0.7095,0.7095,0.7095,0.7095,0.7095,0.0,0.7095,0.7095,0.7095,0.7095,0.7095,0.7095,0.7095,0.7095,0.6697,0.5547,0.5376,0.448,0.2154,0.0756,0.0,0.0,0.0,0.0,0.0,0.0,0.0,0.0,0.0,0.0,0.0,0.0,-0.0605,-0.1862,-0.3265,-0.4618,-0.5879,-0.7335,-0.7988,-0.7988,-0.7988,0.0,0.0,0.0,0.0,0.0,-0.7988,-0.7988,-0.7988,-0.7988,-0.7988,-0.7988,-0.7988,-0.7988,-0.7988,0.0,0.0,0.0,0.0,0.0,0.0,0.0,0.0,0.0,0.0,0.0,0.0,0.0,0.0,0.0,0.0,0.0,0.0,0.0,0.0,0.0,0.0,0.0,0.0,0.0,0.0,0.0,0.7095,0.7095,0.7095,0.7095,0.7095,0.0,0.0,0.0,0.0,0.0,0.0,0.0,0.0,0.0,0.0,0.0,0.0,0.0,0.0,0.7988,0.7891,0.0,0.0,0.0,0.0,0.0,0.0,0.0,0.0,0.7095,0.0,0.7095,0.0,0.7095,0.7095,0.7095,0.7095,0.0,0.7095,0.7095,0.7095,0.7095,0.7095,0.7095,0.7095,0.7095,0.7095,0.7095,0.6688,0.5567,0.3836,0.2159,0.0654,0.0202,0.0,0.0,0.0,0.0,0.0,0.0,0.0,0.0,0.0,0.0,0.0,0.0,-0.0151,-0.0454,-0.2815,-0.4166,-0.4518,-0.688,-0.7988,-0.7988,-0.7988,0.0,0.0,0.0,0.0,-0.7988,-0.7988,-0.7988,-0.7988,-0.7988,-0.7988,-0.7988,-0.7988,-0.7988,-0.7988,0.0,0.0,0.0,0.0,0.0,0.0,0.0,0.0,0.0,0.0,0.0,0.0,0.0,0.0,0.0,0.0,0.0,0.0,0.0,0.0,0.0,0.0,0.0,0.0,0.0,0.0,0.0,0.0,0.0,0.7404,0.0,0.0,0.0,0.0,0.0,0.0,0.0,0.0,0.0,0.0,0.0,0.0,0.0,0.0,0.0,0.0,0.7988,0.7938,0.0,0.7746,0.7597,0.7448,0.0,0.0,0.0,0.0,0.7095,0.0,0.7095,0.7095,0.7095,0.7095,0.7095,0.7095,0.7095,0.7095,0.7095,0.7095,0.7095,0.7095,0.7095,0.6694,0.6473,0.7007,0.6201,0.5096,0.3908,0.2162,0.0741,0.0101,0.0,0.0,0.0,0.0,0.0,0.0,0.0,0.0,0.0,0.0,0.0,0.0,-0.0605,-0.1209,-0.1812,-0.3265,-0.4616,-0.5872,-0.7282,-0.7988,-0.7988,-0.7988,-0.7988,0.0,0.0,0.0,-0.7988,-0.7988,-0.7988,-0.7988,-0.7988,-0.7988,-0.7988,-0.7988,-0.7988,-0.7988,0.0,0.0,0.0,0.0,0.0,0.0,0.0,0.0,0.0,0.0,0.0,0.0,0.0,0.0,0.0,0.0,0.0,0.0,0.0,0.0,0.0,0.0,0.0,0.0,0.0,0.0,0.0,0.0,0.0,0.0,0.0,0.0,0.7095,0.0,0.0,0.0,0.0,0.0,0.0,0.0,0.76,0.0,0.0,0.0,0.0,0.0,0.0,0.0,0.0,0.7862,0.7719,0.7573,0.7463,0.0,0.0,0.0,0.0,0.0,0.7095,0.7095,0.7095,0.7095,0.7095,0.7095,0.7095,0.7095,0.7095,0.7095,0.7095,0.7051,0.6874,0.6204,0.5938,0.6694,0.5022,0.3199,0.1949,0.0779,0.0,0.0,0.0,0.0,0.0,0.0,0.0,0.0,0.0,0.0,0.0,0.0,0.0,0.0,-0.131,-0.2665,-0.3966,-0.4216,-0.542,-0.7686,-0.7889,-0.7988,-0.7988,-0.7988,-0.7988,0.0,0.0,0.0,-0.7988,-0.7988,-0.7988,-0.7988,-0.7988,-0.7988,-0.7988,-0.7988,-0.7988,-0.7988,0.0,0.0,0.0,0.0,0.0,0.0,0.0,0.0,0.0,0.0,0.0,0.0,0.0,0.0,0.0,0.0,0.0,0.0,0.0,0.0,0.0,0.0,0.0,0.0,0.0,0.0,0.0,0.0,0.0,0.0,0.736,0.7183,0.7095,0.0,0.0,0.0,0.0,0.0,0.0,0.0,0.0,0.0,0.0,0.0,0.0,0.0,0.0,0.0,0.0,0.7862,0.7719,0.7573,0.7463,0.0,0.0,0.0,0.0,0.0,0.7095,0.7095,0.7095,0.7095,0.7095,0.7095,0.7095,0.7095,0.7095,0.7095,0.7095,0.6782,0.5849,0.6293,0.6561,0.5802,0.4505,0.3178,0.1994,0.0745,0.0,0.0,0.0,0.0,0.0,0.0,0.0,0.0,0.0,0.0,0.0,0.0,0.0,0.0,-0.131,-0.2665,-0.3966,-0.5122,-0.5877,-0.6331,-0.7434,-0.7988,-0.7988,-0.7988,-0.7988,0.0,0.0,-0.7988,-0.7988,-0.7988,-0.7988,-0.7988,-0.7988,-0.7988,-0.7988,-0.7988,-0.7988,-0.7988,0.0,0.0,0.0,0.0,0.0,0.0,0.0,0.0,0.0,0.0,0.0,0.0,0.0,0.0,0.0,0.0,0.0,0.0,0.0,0.0,0.0,0.0,0.0,0.0,0.0,0.0,0.0,0.0,0.0,0.9531,0.8965,0.836,0.7709,0.7095,0.0,0.0,0.0,0.0,0.0,0.0,0.0,0.0,0.0,0.0,0.0,0.0,0.0,0.0,0.0,0.0,0.7784,0.7637,0.7566,0.0,0.0,0.0,0.0,0.0,0.7095,0.7095,0.7095,0.7095,0.7095,0.7095,0.7095,0.7095,0.7095,0.7095,0.7095,0.6738,0.5628,0.5309,0.4612,0.2766,0.2564,0.2202,0.0978,0.0349,0.0,0.0,0.0,0.0,0.0,0.0,0.0,0.0,0.0,0.0,0.0,0.0,0.0,0.0,-0.2013,-0.3364,-0.4016,-0.6024,-0.7083,-0.7083,-0.7686,-0.7988,-0.7988,-0.7988,-0.7988,-0.7988,0.0,-0.7988,-0.7988,-0.7988,-0.7988,-0.7988,-0.7988,-0.7988,-0.7988,-0.7988,-0.7988,-0.7988,0.0,0.0,0.0,0.0,0.0,0.0,0.0,0.0,0.0,0.0,0.0,0.0,0.0,0.0,0.0,0.0,0.0,0.0,0.0,0.0,0.0,0.0,0.0,0.0,0.0,0.0,1.1295,1.1895,1.1295,1.0864,1.0567,0.9449,0.8408,0.0,0.0,0.0,0.0,0.7489,0.0,0.0,0.0,0.0,0.0,0.0,0.0,0.0,0.0,0.0,0.0,0.0,0.0,0.0,0.0,0.0,0.0,0.7105,0.7095,0.7095,0.7095,0.7095,0.7095,0.7095,0.7095,0.7095,0.7095,0.7095,0.7095,0.7095,0.7095,0.6738,0.5628,0.4435,0.2994,0.1166,0.1423,0.14,0.0148,0.0,0.0,0.0,0.0,0.0,0.0,0.0,0.0,0.0,0.0,0.0,0.0,0.0,0.0,0.0,-0.2314,-0.3665,-0.4016,-0.6326,-0.7686,-0.7988,-0.7988,-0.7988,-0.7988,-0.7988,-0.7988,-0.7988,-0.7988,-0.7988,-0.7988,-0.7988,-0.7988,-0.7988,-0.7988,-0.7988,-0.7988,-0.7988,-0.7988,-0.7988,0.0,0.0,0.0,0.0,0.0,0.0,0.0,0.0,0.0,0.0,0.0,0.0,0.0,0.0,0.0,0.0,0.0,0.0,0.0,0.0,0.0,0.0,0.0,0.0,0.0,1.108,1.1681,1.074,1.1681,1.1643,1.0567,0.9449,0.8846,0.8715,0.0,0.0,0.7228,0.7139,0.7361,0.7691,0.0,0.0,0.0,0.0,0.0,0.0,0.0,0.0,0.0,0.0,0.0,0.0,0.0,0.0,0.7092,0.7091,0.7095,0.7095,0.7095,0.7095,0.7095,0.7095,0.7095,0.7095,0.7095,0.7095,0.7095,0.7095,0.7095,0.6738,0.5628,0.44,0.3584,0.3531,0.2538,0.1379,0.0151,0.0,0.0,0.0,0.0,0.0,0.0,0.0,0.0,0.0,0.0,0.0,0.0,0.0,0.0,0.0,-0.141,-0.2765,-0.3966,-0.5422,-0.6781,-0.7988,-0.7988,-0.7988,-0.7988,-0.7988,-0.7988,-0.7988,-0.7988,-0.7988,-0.7988,-0.7988,-0.7988,-0.7988,-0.7988,-0.7988,-0.7988,-0.7988,-0.7988,-0.7988,0.0,0.0,0.0,0.0,0.0,0.0,0.0,0.0,0.0,0.0,0.0,0.0,0.0,0.0,0.0,0.0,0.0,0.0,0.0,0.0,0.0,0.0,0.0,1.1466,1.1042,1.2601,1.2857,1.1638,1.1381,1.0654,0.9536,0.9104,0.0,0.0,0.0,0.0,0.8189,0.7404,0.7658,0.8459,0.7837,0.0,0.0,0.0,0.0,0.0,0.0,0.0,0.0,0.0,0.794,0.7901,0.7897,0.7516,0.708,0.7115,0.7077,0.7095,0.7095,0.7095,0.7095,0.7095,0.7095,0.7095,0.7095,0.7095,0.7095,0.7095,0.6517,0.5468,0.3498,0.2156,0.1357,0.1412,0.1029,0.0543,0.005,0.0,0.0,0.0,0.0,0.0,0.0,0.0,0.0,0.0,0.0,0.0,0.0,0.0,0.0,0.0,-0.131,-0.2665,-0.3966,-0.5322,-0.6681,-0.7988,-0.7988,-0.7988,-0.7988,-0.7988,-0.7988,-0.7988,-0.7988,-0.7988,-0.7988,-0.7988,-0.7988,-0.7988,-0.7988,-0.7988,-0.7988,-0.7988,-0.7988,-0.7988,0.0,0.0,0.0,0.0,0.0,0.0,0.0,0.0,0.0,0.0,0.0,0.0,0.0,0.0,0.0,0.0,0.0,0.0,0.0,0.0,0.0,0.0,0.0,1.1766,1.1766,1.2559,1.2772,1.2285,1.1171,1.0183,0.9449,0.0,0.0,0.0,0.0,0.7577,0.8277,0.7445,0.7667,0.8499,0.7859,0.7685,0.0,0.0,0.0,0.0,0.0,0.0,0.0,0.0,0.8019,0.7976,0.7976,0.7739,0.7339,0.7148,0.7123,0.7095,0.7095,0.7095,0.7095,0.7095,0.7095,0.7095,0.7095,0.7095,0.7007,0.665,0.5652,0.4357,0.2736,0.1406,0.0572,0.064,0.0297,0.0,0.0,0.0,0.0,0.0,0.0,0.0,0.0,0.0,0.0,0.0,0.0,0.0,0.0,0.0,0.0,0.0,-0.131,-0.2665,-0.3966,-0.5322,-0.6681,-0.7988,-0.7988,-0.7988,-0.7988,-0.7988,-0.7988,-0.7988,-0.7988,-0.7988,-0.7988,-0.7988,-0.7988,-0.7988,-0.7988,-0.7988,-0.7988,-0.7988,-0.7988,-0.7988,0.0,0.0,0.0,0.0,0.0,0.0,0.0,0.0,0.0,0.0,0.0,0.0,0.0,0.0,0.0,0.0,0.0,0.0,0.0,0.0,0.0,0.0,0.0,1.0611,1.0611,1.0611,1.1123,1.2285,1.1123,1.0567,1.0524,0.9405,0.0,0.0,0.0,0.7095,0.7095,0.7095,0.7227,0.7429,0.7536,0.7682,0.7824,0.0,0.0,0.0,0.0,0.0,0.0,0.0,0.7988,0.8014,0.8011,0.8013,0.7861,0.7276,0.7082,0.7098,0.7095,0.7095,0.7095,0.7095,0.7095,0.7095,0.7095,0.7095,0.6782,0.5625,0.4402,0.3613,0.3735,0.2656,0.1824,0.1957,0.0857,0.0,0.0,0.0,0.0,0.0,0.0,0.0,0.0,0.0,0.0,0.0,0.0,0.0,0.0,0.0,0.0,0.0,-0.131,-0.2665,-0.3966,-0.5322,-0.6681,-0.7988,-0.7988,-0.7988,-0.7988,-0.7988,-0.7988,-0.7988,-0.7988,-0.7988,-0.7988,-0.7988,-0.7988,-0.7988,-0.7988,-0.7988,-0.7988,-0.7988,-0.7988,-0.7988,0.0,0.0,0.0,0.0,0.0,0.0,0.0,0.0,0.0,0.0,0.0,0.0,0.0,0.0,0.0,0.0,0.0,0.0,0.0,0.0,0.0,0.0,0.0,0.0,0.0,0.0,0.9579,0.9923,0.9579,0.8969,0.0,0.0,0.0,0.7621,0.0,0.7095,0.7095,0.7095,0.7122,0.7221,0.7377,0.7529,0.7678,0.0,0.0,0.0,0.0,0.0,0.0,0.0,0.0,0.0,0.7987,0.8018,0.7869,0.7286,0.7093,0.7095,0.7081,0.7095,0.7095,0.7095,0.7095,0.7095,0.7095,0.7095,0.6558,0.455,0.3179,0.2089,0.128,0.0823,0.0543,0.0604,0.0252,0.0,0.0,0.0,0.0,0.0,0.0,0.0,0.0,0.0,0.0,0.0,0.0,0.0,0.0,0.0,0.0,0.0,-0.131,-0.2665,-0.3966,-0.5322,-0.6681,-0.7988,-0.7988,-0.7988,-0.7988,-0.7988,-0.7988,-0.7988,-0.7988,-0.7988,-0.7988,-0.7988,-0.7988,-0.7988,-0.7988,-0.7988,-0.7988,-0.7988,-0.7988,-0.7988,0.0,0.0,0.0,0.0,0.0,0.0,0.0,0.0,0.0,0.0,0.0,0.0,0.0,0.0,0.0,0.0,0.0,0.0,0.0,0.0,0.0,0.0,0.0,0.0,0.0,0.8536,0.8189,0.0,0.0,0.0,0.0,0.0,0.7095,0.7095,0.0,0.7095,0.7095,0.7095,0.7095,0.7109,0.7309,0.7461,0.7614,0.0,0.0,0.0,0.0,0.0,0.0,0.0,0.0,0.0,0.7988,0.7985,0.7931,0.7547,0.73,0.7102,0.7091,0.7095,0.7095,0.7095,0.7095,0.7098,0.7109,0.7112,0.6441,0.4067,0.2243,0.0845,0.0143,0.0,0.0,0.0,0.0,0.0,0.0,0.0,0.0,0.0,0.0,0.0,0.0,0.0,0.0,0.0,0.0,0.0,0.0,0.0,0.0,0.0,-0.1812,-0.3165,-0.4016,-0.5874,-0.7185,-0.7988,-0.7988,-0.7988,-0.7988,-0.7988,-0.7988,-0.7988,-0.7988,-0.7988,-0.7988,-0.7988,-0.7988,-0.7988,-0.7988,-0.7988,-0.7988,-0.7988,-0.7988,-0.7988,0.0,0.0,0.0,0.0,0.0,0.0,0.0,0.0,0.0,0.0,0.0,0.0,0.0,0.0,0.0,0.0,0.0,0.0,0.0,0.0,0.0,0.0,0.0,0.0,0.0,0.0,0.0,0.0,0.0,0.0,0.0,0.0,0.7095,0.7095,0.7095,0.7095,0.7095,0.7095,0.7095,0.7109,0.7292,0.7441,0.7594,0.7736,0.0,0.0,0.0,0.0,0.0,0.0,0.0,0.0,0.7988,0.7996,0.8004,0.8004,0.7559,0.7077,0.7111,0.7105,0.7095,0.7095,0.7095,0.7102,0.7081,0.6773,0.5833,0.3728,0.153,0.0,0.0,0.0,0.0,0.0,0.0,0.0,0.0,0.0,0.0,0.0,0.0,0.0,0.0,0.0,0.0,0.0,0.0,0.0,0.0,0.0,0.0,0.0,-0.2614,-0.4016,-0.4016,-0.6678,-0.7988,0.0,-0.7988,-0.7988,-0.7988,-0.7988,-0.7988,-0.7988,-0.7988,-0.7988,-0.7988,-0.7988,-0.7988,-0.7988,-0.7988,-0.7988,-0.7988,-0.7988,-0.7988,-0.7988,0.0,0.0,0.0,0.0,0.0,0.0,0.0,0.0,0.0,0.0,0.0,0.0,0.0,0.0,0.0,0.0,0.0,0.0,0.0,0.0,0.0,0.0,0.0,0.0,0.0,0.0,0.0,0.0,0.0,0.0,0.0,0.0,0.0,0.7095,0.7095,0.7095,0.7095,0.7095,0.7095,0.7098,0.7132,0.7282,0.7438,0.7587,0.7736,0.0,0.0,0.0,0.0,0.0,0.0,0.0,0.7988,0.8018,0.8013,0.8007,0.7567,0.7087,0.7083,0.7093,0.7095,0.7095,0.7095,0.7105,0.7091,0.4198,0.1388,0.0867,0.0375,0.0,0.0,0.0,0.0,0.0,0.0,0.0,0.0,0.0,0.0,0.0,0.0,0.0,0.0,0.0,0.0,0.0,0.0,0.0,0.0,0.0,0.0,0.0,-0.2614,-0.4016,-0.4016,-0.6678,-0.7988,0.0,-0.7988,-0.7988,-0.7988,-0.7988,-0.7988,-0.7988,-0.7988,-0.7988,-0.7988,-0.7988,-0.7988,-0.7988,-0.7988,-0.7988,-0.7988,-0.7988,-0.7988,-0.7988,0.0,0.0,0.0,0.0,0.0,0.0,0.0,0.0,0.0,0.0,0.0,0.0,0.0,0.0,0.0,0.0,0.0,0.0,0.0,0.0,0.0,0.0,0.0,0.0,0.0,0.0,0.0,0.0,0.0,0.7095,0.7095,0.7095,0.7095,0.7095,0.7095,0.7095,0.7095,0.7095,0.7095,0.7095,0.7095,0.7234,0.7436,0.7543,0.7641,0.7779,0.7934,0.0,0.0,0.0,0.0,0.0,0.0,0.0,0.8011,0.8007,0.776,0.7459,0.7194,0.7079,0.7093,0.7112,0.7095,0.7105,0.7094,0.3434,0.0,0.0,0.0,0.0,0.0,0.0,0.0,0.0,0.0,0.0,0.0,0.0,0.0,0.0,0.0,0.0,0.0,0.0,0.0,0.0,0.0,0.0,0.0,0.0,0.0,0.0,-0.2614,-0.4016,-0.4016,-0.6678,-0.7988,-0.7988,-0.7988,-0.7988,-0.7988,-0.7988,-0.7988,-0.7988,-0.7988,-0.7988,-0.7988,-0.7988,-0.7988,-0.7988,-0.7988,-0.7988,-0.7988,-0.7988,-0.7988,-0.7988,0.0,0.0,0.0,0.0,0.0,0.0,0.0,0.0,0.0,0.0,0.0,0.0,0.0,0.0,0.0,0.0,0.0,0.0,0.0,0.0,0.0,0.0,0.0,0.0,0.0,0.0,0.0,0.0,0.0,0.7122,0.7095,0.7095,0.7095,0.7095,0.7095,0.7095,0.7095,0.7095,0.7095,0.7095,0.7095,0.7217,0.7353,0.7533,0.7624,0.7701,0.7928,0.7988,0.7988,0.7988,0.0,0.0,0.0,0.0,0.8014,0.799,0.7983,0.7907,0.737,0.7175,0.7099,0.7088,0.7095,0.7105,0.7094,0.3434,0.0,0.0,0.0,0.0,0.0,0.0,0.0,0.0,0.0,0.0,0.0,0.0,0.0,0.0,0.0,0.0,0.0,0.0,0.0,0.0,0.0,0.0,0.0,0.0,-0.0101,-0.0353,-0.2715,-0.4116,-0.4368,-0.6778,-0.7988,-0.7988,-0.7988,-0.7988,-0.7988,-0.7988,-0.7988,-0.7988,-0.7988,-0.7988,-0.7988,-0.7988,-0.7988,-0.7988,-0.7988,-0.7988,-0.7988,-0.7988,-0.7988,-0.7988,0.0,0.0,0.0,0.0,0.0,0.0,0.0,0.0,0.0,0.0,1.183,0.0,0.0,0.0,0.0,0.0,0.0,0.0,0.0,0.0,0.0,0.0,0.0,0.0,0.0,0.0,0.0,0.0,0.7395,0.7272,0.7095,0.7095,0.7095,0.7095,0.7095,0.7095,0.7095,0.7095,0.7095,0.7095,0.7095,0.7109,0.7159,0.7489,0.7611,0.7665,0.7891,0.7988,0.7988,0.7988,0.7988,0.0,0.0,0.0,0.7985,0.8014,0.8017,0.8,0.7911,0.7516,0.7099,0.7088,0.7095,0.7105,0.7094,0.3434,0.0,0.0,0.0,0.0,0.0,0.0,0.0,0.0,0.0,0.0,0.0,0.0,0.0,0.0,0.0,0.0,0.0,0.0,0.0,0.0,0.0,0.0,0.0,0.0,-0.0555,-0.1711,-0.3215,-0.4568,-0.5727,-0.7235,-0.7988,-0.7988,-0.7988,-0.7988,-0.7988,-0.7988,-0.7988,-0.7988,-0.7988,-0.7988,-0.7988,-0.7988,-0.7988,-0.7988,-0.7988,-0.7988,-0.7988,-0.7988,-0.7988,-0.7988,0.0,0.0,0.0,0.0,0.0,0.0,0.0,0.0,0.0,0.0,0.0,1.2384,0.0,0.0,0.0,0.0,0.0,0.0,0.0,0.0,0.0,0.0,0.0,0.0,0.0,0.0,0.0,0.0,0.7451,0.7336,0.7268,0.7136,0.7095,0.7095,0.7095,0.7095,0.7095,0.7095,0.7095,0.7095,0.7095,0.7101,0.7108,0.7373,0.7405,0.7401,0.7812,0.7988,0.7988,0.7988,0.7988,0.7988,0.7988,0.0,0.0,0.0,0.7994,0.8004,0.7986,0.7583,0.7099,0.7088,0.7095,0.7102,0.7088,0.3433,0.0,0.0,0.0,0.0,0.0,0.0,0.0,0.0,0.0,0.0,0.0,0.0,0.0,0.0,0.0,0.0,0.0,0.0,0.0,0.0,0.0,0.0,0.0,0.0,-0.0252,-0.0857,-0.2914,-0.4268,-0.487,-0.693,-0.7988,-0.7988,-0.7988,-0.7988,-0.7988,-0.7988,-0.7988,-0.7988,-0.7988,-0.7988,-0.7988,-0.7988,-0.7988,-0.7988,-0.7988,-0.7988,-0.7988,-0.7988,-0.7988,-0.7988,0.0,0.0,0.0,0.0,0.0,0.0,0.0,0.0,0.0,0.0,0.0,0.0,0.0,0.0,0.0,0.0,0.0,0.0,0.0,0.0,0.0,0.0,0.0,0.0,0.0,0.0,0.0,0.7811,0.759,0.7444,0.7415,0.7251,0.7132,0.7095,0.7095,0.7095,0.7095,0.7095,0.7095,0.7098,0.7139,0.713,0.7109,0.7389,0.7423,0.7382,0.7832,0.7988,0.7988,0.7988,0.7988,0.7988,0.7988,0.7988,0.0,0.0,0.0,0.7984,0.802,0.7543,0.7109,0.71,0.7078,0.7102,0.7081,0.4372,0.1471,0.0268,0.0,0.0,0.0,0.0,0.0,0.0,0.0,0.0,0.0,0.0,0.0,0.0,0.0,0.0,0.0,0.0,0.0,0.0,0.0,0.0,0.0,0.0,-0.0149,-0.0497,-0.2789,-0.4187,-0.4485,-0.6813,-0.7988,-0.7988,-0.7988,-0.7988,-0.7988,-0.7988,-0.7988,-0.7988,-0.7988,-0.7988,-0.7988,-0.7988,-0.7988,-0.7988,-0.7988,-0.7988,-0.7988,-0.7988,-0.7988,-0.7988,0.0,0.0,0.0,0.0,0.0,0.0,0.0,0.0,0.0,0.0,0.0,0.0,0.0,0.0,0.0,0.0,0.0,0.0,0.0,0.0,0.0,0.0,0.0,0.0,0.0,0.0,0.7907,0.7811,0.7794,0.7645,0.7415,0.7409,0.7282,0.7095,0.7095,0.7095,0.7095,0.7095,0.7095,0.7109,0.7299,0.7269,0.7165,0.7543,0.7804,0.0,0.0,0.0,0.0,0.0,0.0,0.0,0.0,0.0,0.7988,0.0,0.0,0.0,0.7994,0.7549,0.7116,0.7112,0.711,0.7102,0.7081,0.691,0.5468,0.0939,0.0,0.0,0.0,0.0,0.0,0.0,0.0,0.0,0.0,0.0,0.0,0.0,0.0,0.0,0.0,0.0,0.0,0.0,0.0,0.0,0.0,0.0,-0.0573,-0.1862,-0.3252,-0.46,-0.5869,-0.727,-0.7988,-0.7988,-0.7988,-0.7988,-0.7988,-0.7988,-0.7988,-0.7988,-0.7988,-0.7988,-0.7988,-0.7988,-0.7988,-0.7988,-0.7988,-0.7988,-0.7988,-0.7988,-0.7988,-0.7988,0.0,0.0,0.0,0.0,0.0,0.0,0.0,0.0,0.0,0.0,0.0,0.0,0.0,0.0,0.0,0.0,0.0,0.0,0.0,0.0,0.0,0.0,0.0,0.0,0.0,0.7988,0.7965,0.7907,0.7858,0.7709,0.7516,0.7463,0.7288,0.7095,0.7095,0.7095,0.7095,0.7095,0.7095,0.7109,0.7309,0.7431,0.7443,0.7586,0.7774,0.0,0.0,0.0,0.0,0.0,0.0,0.0,0.0,0.0,0.0,0.7988,0.7988,0.8007,0.8004,0.7825,0.758,0.7194,0.7096,0.7082,0.7084,0.7078,0.573,0.098,0.0,0.0,0.0,0.0,0.0,0.0,0.0,0.0,0.0,0.0,0.0,0.0,0.0,0.0,0.0,0.0,0.0,0.0,0.0,0.0,0.0,0.0,-0.0238,-0.0715,-0.2775,-0.489,-0.7003,-0.7487,-0.7801,-0.7892,-0.7892,-0.7894,-0.7988,-0.7988,-0.7988,-0.7988,-0.7988,-0.7988,-0.7988,-0.7988,-0.7988,-0.7988,-0.7988,-0.7988,-0.7988,-0.7988,-0.7988,-0.7988,0.0,0.0,0.0,0.0,0.0,0.0,0.0,0.0,0.0,0.0,0.0,0.0,0.0,0.0,0.0,0.0,0.0,0.0,0.0,0.0,0.0,0.0,0.0,0.0,0.0,0.7938,0.7938,0.7988,0.7885,0.7763,0.7665,0.7516,0.7366,0.7214,0.7119,0.7095,0.7095,0.7095,0.7095,0.7112,0.7366,0.7509,0.7621,0.7714,0.0,0.0,0.0,0.0,0.0,0.0,0.0,0.0,0.0,0.0,0.0,0.7988,0.7988,0.8018,0.8017,0.8001,0.7911,0.752,0.7254,0.7109,0.7103,0.7108,0.618,0.3031,0.1117,0.0,0.0,0.0,0.0,0.0,0.0,0.0,0.0,0.0,0.0,0.0,0.0,0.0,0.0,0.0,0.0,0.0,0.0,0.0,0.0,0.0,-0.0187,-0.066,-0.2306,-0.443,-0.6976,-0.6976,-0.7259,-0.774,-0.774,-0.7818,-0.7914,-0.7914,-0.7941,-0.7988,-0.7988,-0.7988,-0.7988,-0.7988,-0.7988,-0.7988,-0.7988,-0.7988,-0.7988,-0.7988,-0.7988,-0.7988,0.0,0.0,0.0,0.0,0.0,0.0,0.0,0.0,0.0,0.0,0.0,0.0,0.0,0.0,0.0,0.0,0.0,0.0,0.0,0.0,0.0,0.0,0.0,0.0,0.0,0.7892,0.7889,0.7988,0.7889,0.7818,0.7807,0.7672,0.7522,0.7415,0.7217,0.7105,0.7109,0.7098,0.7095,0.7122,0.7475,0.76,0.7631,0.7877,0.0,0.0,0.7988,0.7988,0.0,0.7988,0.0,0.0,0.0,0.0,0.0,0.0,0.0,0.7988,0.0,0.0,0.0,0.8011,0.7547,0.7099,0.709,0.7098,0.706,0.692,0.3227,0.0,0.0,0.0,0.0,0.0,0.0,0.0,0.0,0.0,0.0,0.0,0.0,0.0,0.0,0.0,0.0,0.0,0.0,0.0,0.0,0.0,-0.0634,-0.1937,-0.1984,-0.3208,-0.5771,-0.5774,-0.6394,-0.7594,-0.7594,-0.7665,-0.7804,-0.7811,-0.7892,-0.7982,-0.7988,-0.7988,-0.7988,-0.7988,-0.7988,-0.7988,-0.7988,-0.7988,-0.7988,-0.7988,-0.7988,-0.7988,0.0,0.0,0.0,0.0,0.0,0.0,0.0,0.0,0.0,0.0,0.0,0.0,1.5784,0.0,0.0,0.0,0.0,0.0,0.0,0.0,0.0,0.0,0.0,0.0,0.0,0.7948,0.7948,0.7988,0.7948,0.0,0.0,0.0,0.7675,0.7529,0.7377,0.737,0.7458,0.7189,0.7095,0.7122,0.7475,0.7647,0.0,0.0,0.0,0.0,0.0,0.7988,0.7988,0.0,0.7988,0.7988,0.0,0.0,0.0,0.0,0.0,0.0,0.7988,0.0,0.0,0.0,0.0,0.0,0.0,0.0,0.6139,0.2681,0.0936,0.0,0.0,0.0,0.0,0.0,0.0,0.0,0.0,0.0,0.0,0.0,0.0,0.0,0.0,0.0,0.0,0.0,0.0,0.0,0.0,0.0,-0.0585,-0.1806,-0.1851,-0.3029,-0.5496,-0.5496,-0.6179,-0.7434,-0.7434,-0.7512,-0.7662,-0.7763,-0.7834,-0.7879,-0.7941,-0.7988,-0.7988,-0.7988,-0.7988,-0.7988,-0.7988,-0.7988,-0.7988,-0.7988,-0.7988,-0.7988,0.0,0.0,0.0,0.0,0.0,0.0,0.0,0.0,0.0,0.0,0.0,0.0,1.5784,0.0,0.0,0.0,0.0,0.0,0.0,0.0,0.0,0.0,0.0,0.0,0.0,0.7928,0.7928,0.7988,0.0,0.0,0.0,0.0,0.0,0.7682,0.7533,0.7516,0.7587,0.7407,0.7333,0.7353,0.7594,0.0,0.0,0.7901,0.7988,0.0,0.0,0.0,0.7988,0.7988,0.7988,0.0,0.0,0.0,0.0,0.0,0.0,0.0,0.0,0.0,0.0,0.0,0.0,0.0,0.7423,0.7188,0.6042,0.0,0.0713,0.0,0.0,0.0,0.0,0.0,0.0,0.0,0.0,0.0,0.0,0.0,0.0,0.0,0.0,0.0,0.0,0.0,0.0,0.0,0.0,0.0,-0.0314,-0.1031,-0.1031,-0.2192,-0.4641,-0.4641,-0.5523,-0.7275,-0.7275,-0.7356,-0.7509,-0.7655,-0.7753,-0.7821,-0.7924,-0.7988,-0.7988,-0.7988,-0.7988,-0.7988,-0.7988,-0.7988,-0.7988,-0.7988,-0.7988,-0.7988,0.0,0.0,0.0,0.0,0.0,0.0,0.0,0.0,0.0,0.0,0.0,1.5784,1.5784,0.0,0.0,0.0,0.0,0.0,0.0,0.0,0.0,0.0,0.0,0.0,0.0,0.0,0.0,0.0,0.0,0.0,0.0,0.0,0.0,0.0,0.0,0.0,0.7648,0.7631,0.7634,0.7658,0.7767,0.7762,0.0,0.0,0.7988,0.7988,0.7988,0.7988,0.7988,0.7988,0.7988,0.0,0.0,0.0,0.0,0.0,0.7988,0.0,0.0,0.0,0.0,0.0,0.0,0.0,0.7638,0.732,0.6444,0.0,0.0,0.0,0.0,0.0,0.0,0.0,0.0,0.0,0.0,0.0,0.0,0.0,0.0,0.0,0.0,0.0,0.0,0.0,0.0,0.0,0.0,0.0,0.0,0.0,0.0,-0.1165,-0.357,-0.3614,-0.4772,-0.7095,-0.7095,-0.7214,-0.7353,-0.7522,-0.7668,-0.7797,-0.7917,-0.7988,-0.7988,-0.7988,-0.7988,-0.7988,-0.7988,-0.7988,-0.7988,-0.7988,-0.7988,-0.7988,0.0,0.0,0.0,0.0,0.0,0.0,0.0,0.0,0.0,0.0,1.5784,1.5784,1.5784,1.5784,0.0,0.0,0.0,0.0,0.0,0.0,0.0,0.0,0.0,0.0,0.0,0.0,0.0,0.0,0.0,0.0,0.0,0.0,0.0,0.0,0.7838,0.7838,0.7897,0.7821,0.7841,0.7894,0.7848,0.7811,0.7779,0.7931,0.7988,0.7988,0.7988,0.7988,0.7988,0.7988,0.7988,0.7988,0.0,0.0,0.0,0.7988,0.0,0.0,0.0,0.0,0.0,0.0,0.0,0.0,0.7658,0.7339,0.6632,0.0,0.4192,0.3657,0.0,0.0,0.0,0.0,0.0,0.0,0.0,0.0,0.0,0.0,0.0,0.0,0.0,0.0,0.0,0.0,0.0,0.0,0.0,0.0,0.0,0.0,0.0,-0.1165,-0.357,-0.3614,-0.4772,-0.7095,-0.7095,-0.7112,-0.7149,-0.7472,-0.7614,-0.7655,-0.7874,-0.7988,-0.7988,-0.7988,-0.7988,-0.7988,-0.7988,-0.7988,-0.7988,-0.7988,-0.7988,-0.7988,0.0,0.0,0.0,0.0,0.0,0.0,0.0,0.0,0.0,1.5784,1.5784,1.548,1.4578,1.4692,1.4561,0.0,0.0,0.0,0.0,0.0,0.0,0.0,0.0,0.0,0.0,0.0,0.0,0.0,0.0,0.0,0.0,0.0,0.7988,0.7985,0.7911,0.7917,0.7985,0.7907,0.7921,0.7982,0.7907,0.0,0.7884,0.7961,0.7988,0.7988,0.7988,0.7988,0.7988,0.7988,0.7988,0.0,0.7988,0.7988,0.7988,0.0,0.7988,0.7988,0.0,0.0,0.0,0.7988,0.0,0.0,0.0,0.7406,0.6848,0.5402,0.5087,0.4774,0.3792,0.0,0.0,0.0,0.0,0.0,0.0,0.0,0.0,0.0,0.0,0.0,0.0,0.0,0.0,0.0,0.0,0.0,0.0,0.0,0.0,0.0,0.0,-0.1165,-0.357,-0.3614,-0.4772,-0.7095,-0.7095,-0.7095,-0.7105,-0.7461,-0.76,-0.7614,-0.7864,-0.7988,-0.7988,-0.7988,-0.7988,-0.7988,-0.7988,-0.7988,-0.7988,-0.7988,-0.7988,-0.7988,0.0,0.0,0.0,0.0,0.0,0.0,0.0,0.0,0.0,1.5784,1.5588,1.4889,1.3496,1.3423,1.306,1.1994,0.0,0.0,0.0,0.0,0.0,0.0,0.0,0.7988,0.0,0.0,0.0,0.0,0.0,0.0,0.0,0.0,0.7988,0.7988,0.7988,0.7988,0.7988,0.7988,0.7988,0.7988,0.0,0.7988,0.7988,0.7988,0.7988,0.7988,0.7988,0.7988,0.7988,0.7988,0.7988,0.7988,0.7988,0.7988,0.0,0.0,0.0,0.0,0.0,0.0,0.0,0.0,0.0,0.7914,0.0,0.0,0.0,0.0,0.0,0.0,0.0,0.0,0.0,0.0,0.0,0.0,0.0,0.0,0.0,0.0,0.0,0.0,0.0,0.0,0.0,0.0,0.0,0.0,0.0,0.0,0.0,0.0,0.0,-0.1165,-0.357,-0.3614,-0.4772,-0.7095,-0.7095,-0.7095,-0.7105,-0.7461,-0.76,-0.7614,-0.7864,-0.7988,-0.7988,-0.7988,-0.7988,-0.7988,-0.7988,-0.7988,-0.7988,-0.7988,-0.7988,-0.7988,1.5784,1.5784,0.0,0.0,0.0,0.0,0.0,0.0,0.0,1.5784,1.4806,1.4022,1.3824,1.2813,1.2091,1.1901,0.0,0.0,1.1896,0.0,0.0,0.0,0.0,0.0,0.7988,0.0,0.0,0.0,0.0,0.0,0.0,0.0,0.7988,0.7988,0.7988,0.7988,0.7988,0.7988,0.7988,0.0,0.7988,0.7988,0.0,0.7988,0.7988,0.7988,0.7988,0.7988,0.7988,0.0,0.7988,0.7988,0.0,0.7988,0.7988,0.7988,0.0,0.0,0.0,0.0,0.0,0.0,0.7988,0.0,0.0,0.0,0.7466,0.6981,0.0,0.0,0.0,0.0,0.0,0.0,0.0,0.0,0.0,0.0,0.0,0.0,0.0,0.0,0.0,0.0,0.0,0.0,0.0,0.0,0.0,0.0,0.0,0.0,0.0,-0.1165,-0.357,-0.3614,-0.4772,-0.7095,-0.7095,-0.7095,-0.7105,-0.7461,-0.76,-0.7614,-0.7864,-0.7988,-0.7988,-0.7988,-0.7988,-0.7988,-0.7988,-0.7988,-0.7988,-0.7988,-0.7988,-0.7988,1.5784,1.5784,1.5784,0.0,0.0,0.0,0.0,0.0,0.0,1.5784,1.5337,1.4704,1.3974,1.2716,1.1604,1.0877,1.0096,0.9948,0.0,0.0,0.0,0.0,0.0,0.0,0.0,0.0,0.0,0.0,0.7988,0.0,0.0,0.0,0.7988,0.7988,0.7988,0.7988,0.7988,0.7988,0.7988,0.0,0.0,0.0,0.0,0.7988,0.7988,0.7988,0.7988,0.7988,0.7988,0.0,0.7988,0.0,0.0,0.0,0.0,0.0,0.0,0.0,0.0,0.0,0.0,0.0,0.0,0.0,0.777,0.0,0.7539,0.0,0.0,0.0,0.0,0.0,0.0,0.0,0.0,0.0,0.0,0.0,0.0,0.0,0.0,0.0,0.0,0.0,0.0,0.0,0.0,0.0,0.0,0.0,0.0,0.0,0.0,-0.1165,-0.357,-0.3614,-0.4772,-0.7095,-0.7095,-0.7095,-0.7105,-0.7461,-0.76,-0.7614,-0.7864,-0.7988,-0.7988,-0.7988,-0.7988,-0.7988,-0.7988,-0.7988,-0.7988,-0.7988,-0.7988,-0.7988,1.5784,1.5784,1.5784,0.0,0.0,0.0,0.0,0.0,0.0,1.5784,1.5486,1.4806,1.3494,1.2188,1.0877,0.9558,0.8577,0.8432,0.0,0.0,0.8432,0.0,0.0,0.0,0.0,0.0,0.0,0.0,0.0,0.7988,0.7988,0.7988,0.7988,0.7988,0.7988,0.7988,0.7988,0.7988,0.7988,0.7988,0.7988,0.7988,0.7988,0.7988,0.7988,0.7988,0.7988,0.7988,0.7988,0.7988,0.7988,0.0,0.7988,0.0,0.0,0.0,0.0,0.0,0.7988,0.0,0.0,0.0,0.0,0.0,0.0,0.0,0.0,0.0,0.0,0.0,0.0,0.0,0.0,0.0,0.0,0.0,0.0,0.0,0.0,0.0,0.0,0.0,0.0,0.0,0.0,0.0,0.0,0.0,0.0,0.0,0.0,0.0,0.0,-0.1165,-0.357,-0.3614,-0.4772,-0.7095,-0.7095,-0.7119,-0.7214,-0.7478,-0.7621,-0.7672,-0.788,-0.7988,-0.7988,-0.7988,-0.7988,-0.7988,-0.7988,-0.7988,-0.7988,-0.7988,-0.7988,-0.7988,1.5784,1.5784,1.5784,1.5784,0.0,0.0,0.0,0.0,0.0,1.5784,1.4752,1.3445,1.2091,1.0828,0.9509,0.8184,0.0,0.8041,0.8038,0.0,0.8041,0.0,0.0,0.7988,0.0,0.0,0.0,0.0,0.7988,0.7988,0.7988,0.7988,0.7988,0.7988,0.7988,0.7988,0.7988,0.7988,0.7988,0.7988,0.7988,0.7988,0.7988,0.0,0.7988,0.7988,0.7988,0.0,0.0,0.7988,0.7988,0.0,0.0,0.0,0.0,0.0,0.0,0.0,0.0,0.0,0.0,0.7988,0.0,0.0,0.0,0.0,0.7556,0.0,0.0,0.0,0.0,0.0,0.0,0.0,0.0,0.0,0.0,0.0,0.0,0.0,0.0,0.0,0.0,0.0,0.0,0.0,0.0,0.0,0.0,0.0,0.0,0.0,0.0,-0.1165,-0.357,-0.3614,-0.4772,-0.7095,-0.7095,-0.7217,-0.7415,-0.7529,-0.7675,-0.7814,-0.7921,-0.7988,-0.7988,-0.7988,-0.7988,-0.7988,-0.7988,-0.7988,-0.7988,-0.7988,-0.7988,-0.7988,1.5784,1.5784,1.5784,1.5784,1.5784,1.5784,0.0,1.5092,0.0,0.0,1.3397,0.0,0.0,1.0779,0.9805,0.0,0.0,0.7988,0.7988,0.7988,0.0,0.0,0.0,0.7988,0.0,0.0,0.0,0.0,0.0,0.7988,0.7988,0.7988,0.7988,0.7988,0.7988,0.7988,0.7988,0.7988,0.7988,0.0,0.0,0.7988,0.7988,0.0,0.0,0.7988,0.7988,0.7988,0.0,0.7988,0.7988,0.7988,0.7988,0.7988,0.7988,0.7988,0.7988,0.0,0.0,0.0,0.7988,0.7988,0.0,0.0,0.0,0.0,0.0,0.0,0.0,0.0,0.0,0.0,0.0,0.0,0.0,0.0,0.0,0.0,0.0,0.0,0.0,0.0,0.0,0.0,0.0,0.0,0.0,0.0,0.0,0.0,0.0,0.0,0.0,-0.1165,-0.357,-0.3614,-0.4772,-0.7095,-0.7095,-0.7221,-0.7422,-0.7529,-0.7678,-0.7821,-0.7924,-0.7988,-0.7988,-0.7988,-0.7988,-0.7988,-0.7988,-0.7988,-0.7988,-0.7988,-0.7988,-0.7988,1.5784,1.5784,1.5784,1.5784,1.5784,1.5635,0.0,0.0,0.0,0.0,1.2431,0.0,1.1263,0.0,0.9805,0.0,0.8482,0.7988,0.7988,0.7988,0.0,0.7988,0.7988,0.7988,0.0,0.0,0.0,0.0,0.0,0.7988,0.7988,0.7988,0.7988,0.7988,0.7988,0.7988,0.7988,0.7988,0.7988,0.0,0.0,0.7988,0.0,0.0,0.7988,0.7988,0.0,0.7988,0.7988,0.7988,0.7988,0.7988,0.7988,0.7988,0.7988,0.7988,0.7988,0.7988,0.7988,0.7988,0.0,0.7988,0.7637,0.0,0.7889,0.0,0.0,0.0,0.0,0.0,0.0,0.0,0.0,0.0,0.0,0.0,0.0,0.647,0.0,0.0,0.0,0.0,0.0,0.0,0.0,0.0,0.0,0.0,0.0,0.0,0.0,0.0,0.0,-0.1165,-0.357,-0.3614,-0.4772,-0.7095,-0.7197,-0.7302,-0.7458,-0.7607,-0.7753,-0.7896,-0.7948,-0.7988,-0.7988,-0.7988,-0.7988,-0.7988,-0.7988,-0.7988,-0.7988,-0.7988,-0.7988,-0.7988,1.5784,1.5784,1.5784,1.5784,1.5784,0.0,0.0,0.0,1.3343,0.0,1.175,1.1263,1.0047,0.9899,0.941,0.8088,0.7988,0.7988,0.7988,0.7988,0.0,0.0,0.7988,0.7988,0.7988,0.0,0.0,0.0,0.7988,0.7988,0.7988,0.7988,0.7988,0.7988,0.7988,0.7988,0.7988,0.7988,0.7988,0.7988,0.7988,0.7988,0.7988,0.7988,0.0,0.7988,0.7988,0.7988,0.7988,0.7988,0.7988,0.7988,0.7988,0.7988,0.7988,0.7988,0.7988,0.7988,0.7988,0.7939,0.7889,0.7889,0.0,0.0,0.0,0.0,0.568,0.0,0.0,0.0,0.0,0.0,0.0,0.0,0.0,0.0,0.0,0.0,0.0,0.0,0.0,0.0,0.0,0.0,0.0,0.0,0.0,0.0,0.0,0.0,0.0,0.0,0.0,-0.1165,-0.357,-0.3614,-0.4772,-0.7098,-0.7295,-0.7451,-0.7604,-0.7746,-0.7847,-0.7988,-0.7988,-0.7988,-0.7988,-0.7988,-0.7988,-0.7988,-0.7988,-0.7988,-0.7988,-0.7988,-0.7988,-0.7988,1.5784,1.5784,1.5784,0.0,1.5784,1.5384,0.0,0.0,0.0,0.0,0.9608,0.8871,0.8528,0.8531,0.8382,0.8038,0.7988,0.0,0.0,0.0,0.0,0.7988,0.7988,0.7988,0.7988,0.7988,0.7988,0.7988,0.0,0.7988,0.7988,0.7988,0.7988,0.7988,0.7988,0.7988,0.7988,0.7988,0.7988,0.7988,0.7988,0.7988,0.0,0.0,0.7988,0.7988,0.7988,0.7988,0.7988,0.7988,0.7988,0.7988,0.7988,0.7988,0.7988,0.7988,0.7988,0.7988,0.7988,0.7285,0.6531,0.6531,0.5522,0.4618,0.0,0.0,0.0,0.0,0.0,0.0,0.0,0.0,0.0,0.0,0.0,0.0,0.0,0.0,0.0,0.5447,0.0,0.0,0.0,0.0718,0.0,0.0,0.0,0.0,0.0,0.0,0.0,0.0,0.0,-0.1165,-0.357,-0.3614,-0.4772,-0.7098,-0.7295,-0.7451,-0.7604,-0.7695,-0.7843,-0.7988,-0.7988,-0.7988,-0.7988,-0.7988,-0.7988,-0.7988,-0.7988,-0.7988,-0.7988,-0.7988,-0.7988,-0.7988,1.5784,1.5784,1.5784,1.5784,0.0,0.0,1.3204,1.1896,0.0,0.9312,0.8482,0.0,0.7988,0.7988,0.7988,0.7988,0.7988,0.0,0.7988,0.0,0.0,0.7988,0.7988,0.7988,0.7988,0.7988,0.0,0.7988,0.0,0.7988,0.7988,0.7988,0.7988,0.7988,0.7988,0.7988,0.7988,0.7988,0.7988,0.7988,0.7988,0.0,0.0,0.7988,0.7988,0.7939,0.7335,0.7487,0.7988,0.7988,0.7988,0.7988,0.7988,0.7988,0.7988,0.7988,0.7988,0.7988,0.7988,0.7033,0.5979,0.5979,0.457,0.3265,0.3865,0.3489,0.3003,0.0,0.0,0.0,0.0,0.0,0.0,0.0,0.0,0.0,0.0,0.0,0.0,0.0,0.295,0.0,0.0,0.0718,0.0,0.0,0.0,0.0,0.0,0.0,0.0,0.0,0.0,-0.1165,-0.357,-0.3614,-0.4839,-0.7244,-0.7397,-0.755,-0.7695,-0.7796,-0.7907,-0.7988,-0.7988,-0.7988,-0.7988,-0.7988,-0.7988,-0.7988,-0.7988,-0.7988,-0.7988,-0.7988,-0.7988,-0.7988,1.5784,1.5784,1.573,1.5588,0.0,0.0,0.0,1.073,0.0,0.8187,0.0,0.7988,0.7988,0.7988,0.7988,0.7988,0.0,0.7988,0.7988,0.7988,0.7988,0.7988,0.7988,0.7988,0.7988,0.7988,0.7988,0.0,0.0,0.7988,0.7988,0.7988,0.7988,0.7988,0.7988,0.7988,0.7988,0.7988,0.7988,0.7988,0.7988,0.7988,0.7988,0.7988,0.7889,0.7587,0.6431,0.6734,0.7686,0.7534,0.7484,0.7484,0.7484,0.7484,0.7534,0.7686,0.7739,0.7786,0.7939,0.688,0.5727,0.5727,0.3718,0.2063,0.3215,0.2564,0.1753,0.1719,0.2552,0.0,0.0,0.0,0.0,0.0,0.0,0.0,0.0,0.0,0.0,0.0,0.0,0.0,0.0,0.0,0.0,0.0,0.0,0.0,0.0,0.0,0.0,0.0,-0.0135,0.0,-0.357,0.0,-0.5063,-0.7419,-0.7546,-0.7692,-0.7814,-0.7921,-0.7988,-0.7988,-0.7988,-0.7988,-0.7988,-0.7988,-0.7988,-0.7988,-0.7988,-0.7988,-0.7988,-0.7988,-0.7988,-0.7988,1.5784,1.5784,1.5486,1.4411,0.0,1.1799,1.0534,1.0145,0.9509,0.8187,0.7988,0.7988,0.7988,0.7988,0.7988,0.7988,0.7988,0.0,0.0,0.0,0.0,0.7988,0.7988,0.7988,0.7988,0.7988,0.7988,0.0,0.0,0.7988,0.7988,0.7988,0.7988,0.7988,0.7988,0.7988,0.7988,0.7988,0.0,0.7988,0.7988,0.7988,0.7988,0.7988,0.7335,0.6331,0.6079,0.6129,0.6179,0.507,0.4718,0.4718,0.4718,0.4718,0.4918,0.6027,0.6329,0.6581,0.7686,0.6224,0.4368,0.4368,0.2314,0.0404,0.0656,0.0504,0.0351,0.0345,0.0531,0.0521,0.0093,0.0,0.0,0.0,0.0,0.0,0.0,0.0,0.0,0.0,0.0,0.0,0.0,0.0,0.0,0.0,0.0,0.0,0.0,0.0,0.0,0.0,0.0,0.0,0.0,0.0,0.0,-0.7419,-0.7645,-0.7739,-0.7717,-0.7917,-0.7988,-0.7988,-0.7988,-0.7988,-0.7988,-0.7988,-0.7988,-0.7988,-0.7988,-0.7988,-0.7988,-0.7988,-0.7988,-0.7988,1.5784,1.5289,1.4609,1.4022,0.0,0.0,0.0,0.941,0.0,0.8088,0.7988,0.7988,0.7988,0.7988,0.7988,0.7988,0.7988,0.7988,0.7988,0.7988,0.7988,0.7988,0.7988,0.7988,0.7988,0.7988,0.7988,0.7988,0.0,0.0,0.7988,0.7988,0.7988,0.7988,0.7988,0.7988,0.0,0.0,0.0,0.7988,0.7988,0.7988,0.7988,0.7988,0.7587,0.6833,0.5472,0.497,0.487,0.4216,0.4016,0.4016,0.4016,0.4016,0.4116,0.477,0.497,0.5122,0.5772,0.4468,0.2964,0.2964,0.146,0.0,0.0,0.0,0.0,0.0,0.0,0.0192,0.0837,0.1408,0.0,0.0,0.0,0.0,0.0,0.0,0.0,0.0,0.0,0.0,0.0,0.0,0.0,0.0,0.0,0.0,0.0,0.0,0.0,0.0,0.0,0.0,0.0,0.0,0.0,-0.76,-0.7743,-0.7803,-0.788,-0.7955,-0.7988,-0.7988,-0.7988,-0.7988,-0.7988,-0.7988,-0.7988,-0.7988,-0.7988,-0.7988,-0.7988,-0.7988,-0.7988,-0.7988,1.4968,1.4172,1.3392,0.0,1.1356,0.0,0.9608,0.8676,0.7988,0.7988,0.7988,0.7988,0.7988,0.7988,0.7988,0.7988,0.7988,0.7988,0.7988,0.7988,0.7988,0.7988,0.7988,0.7988,0.7988,0.7988,0.7988,0.0,0.0,0.0,0.0,0.7988,0.0,0.0,0.0,0.0,0.0,0.0,0.7988,0.7988,0.7988,0.7988,0.7988,0.7988,0.7839,0.7285,0.4868,0.3815,0.3516,0.3265,0.3165,0.3165,0.3165,0.3165,0.3215,0.3515,0.3565,0.3615,0.3915,0.3015,0.2013,0.2013,0.1008,0.0,0.0,0.0,0.0,0.0,0.0,0.0291,0.1257,0.1412,0.0,0.0,0.0,0.0,0.0,0.0,0.0,0.0,0.0,0.0,0.0,0.0,0.0,0.0,0.0,0.0,0.0,0.0,0.0,0.0,0.0,-0.2721,-0.3776,0.0,-0.6635,0.0,-0.7845,-0.7874,-0.7988,-0.7988,-0.7988,-0.7988,-0.7988,-0.7988,-0.7988,-0.7988,-0.7988,-0.7988,-0.7988,-0.7988,-0.7988,-0.7988,-0.7988,-0.7995,0.0,0.0,0.0,0.0,0.0,0.0,0.8382,0.8088,0.7988,0.7988,0.7988,0.7988,0.7988,0.7988,0.7988,0.7988,0.7988,0.7988,0.7988,0.7988,0.7988,0.7988,0.7988,0.7988,0.7988,0.7988,0.7988,0.0,0.0,0.7988,0.0,0.0,0.0,0.0,0.0,0.0,0.0,0.7988,0.7988,0.7988,0.7988,0.7988,0.7988,0.7988,0.7235,0.5977,0.4518,0.3215,0.2013,0.0807,0.0353,0.0353,0.0353,0.0353,0.0605,0.1812,0.2163,0.2464,0.3665,0.3015,0.2013,0.2013,0.1008,0.0,0.0,0.0,0.0,0.0,0.0,0.0049,0.014,0.0185,0.0183,0.0,0.0,0.0,0.0,0.0,0.0135,0.0,0.0,0.0,0.0,0.0,0.0,0.0,0.0,0.0,0.0,0.0,0.0,0.0,0.0,-0.3677,-0.3821,-0.6345,0.0,-0.7814,-0.7901,-0.7975,-0.7988,-0.7988,-0.7988,-0.7988,-0.7988,-0.7988,-0.7988,-0.7988,-0.7988,-0.7988,-0.7988,-0.7988,-0.7988,-0.7988,-0.7988,-0.8008,0.0,0.0,0.0,0.0,0.0,0.0,0.0,0.8252,0.8306,0.8306,0.8231,0.8211,0.8296,0.8306,0.8306,0.8306,0.8306,0.8269,0.8184,0.8177,0.8136,0.7992,0.7988,0.7988,0.7988,0.7988,0.7988,0.0,0.0,0.0,0.0,0.0,0.0,0.0,0.0,0.7988,0.7988,0.7988,0.7988,0.7988,0.7988,0.7988,0.7988,0.7988,0.7182,0.5827,0.4468,0.3115,0.1812,0.0454,0.0,0.0,0.0,0.0,0.0101,0.0656,0.0807,0.0907,0.146,0.1209,0.0807,0.0807,0.0404,0.0,0.0,0.0,0.0,0.0,0.0,0.0,0.0,0.0,0.0,0.0,0.0,0.0,0.0,0.0,0.0,0.0,0.0,0.0,0.0,0.0,0.0,0.0,0.0,0.0,0.0,0.0,0.0,0.0,0.0,-0.3844,-0.3941,-0.65,-0.7858,-0.7897,-0.7961,-0.7988,-0.7988,-0.7988,-0.7988,-0.7988,-0.7988,-0.7988,-0.7988,-0.7988,-0.7988,-0.7988,-0.7988,-0.7988,-0.7988,-0.7988,-0.8099,-0.8187,1.1277,0.0,0.9836,0.0,0.9024,0.8448,0.8347,0.8418,0.8499,0.8543,0.8462,0.8421,0.8476,0.8482,0.8482,0.8482,0.8482,0.8438,0.834,0.8344,0.8221,0.8113,0.8015,0.0,0.7988,0.7988,0.7988,0.7988,0.7988,0.0,0.0,0.0,0.0,0.0,0.7988,0.7988,0.7988,0.7988,0.7988,0.7988,0.7988,0.7988,0.7988,0.7988,0.7434,0.6429,0.507,0.3717,0.2363,0.1058,0.0303,0.0,0.0,0.0,0.0,0.0,0.0,0.0,0.0,0.0,0.0,0.0,0.0,0.0,0.0,0.0,0.0,0.0,0.0,0.0,0.0,0.0,0.0,0.0,0.0,0.0,0.0,0.0,0.0,0.0,0.0,0.0,0.0,0.0,0.0,0.0,0.0,0.0,0.0,0.0,0.0,0.0,0.0,0.0,0.0,0.0,-0.7884,-0.7988,-0.7988,-0.7988,-0.7988,-0.7988,-0.7988,-0.7988,-0.7988,-0.7988,-0.7988,-0.7988,-0.7988,-0.7988,-0.7988,-0.7988,-0.7988,-0.7988,-0.8136,-0.8327,0.8565,0.8535,0.8535,0.8531,0.8531,0.8482,0.8479,0.8479,0.8537,0.8686,0.8706,0.8648,0.8499,0.8482,0.8482,0.8482,0.8482,0.8482,0.8479,0.8398,0.8323,0.0,0.0,0.7988,0.7988,0.7988,0.7988,0.7988,0.0,0.0,0.7988,0.0,0.7988,0.7988,0.7988,0.7988,0.7988,0.7988,0.7988,0.7988,0.7988,0.7988,0.7988,0.7988,0.7988,0.7789,0.6481,0.5122,0.3765,0.2414,0.1109,0.0,0.0,0.0,0.0,0.0,0.0,0.0,0.0,0.0,0.0,0.0,0.0,0.0,0.0,0.0,0.0,0.0,0.0,0.0,0.0,0.0,0.0,0.0,0.0,0.0,0.0,0.0,0.0,0.0,0.0,0.0,0.0,0.0,0.0,0.0,0.0,0.0,0.0,0.0,0.0,-0.1949,-0.329,0.0,-0.5955,-0.7313,-0.7988,-0.7988,-0.7988,-0.7988,-0.7988,-0.7988,-0.7988,-0.7988,-0.7988,-0.7988,-0.7988,-0.7988,-0.7988,-0.7988,-0.7988,-0.7988,-0.7988,-0.7988,-0.8136,-0.834,0.8804,0.8794,0.876,0.8655,0.8723,0.8757,0.8655,0.8726,0.8811,0.8804,0.8811,0.8849,0.8798,0.8794,0.8794,0.0,0.8794,0.875,0.0,0.8598,0.8523,0.8418,0.8275,0.8197,0.8197,0.8092,0.7988,0.7988,0.0,0.0,0.0,0.7988,0.7988,0.7988,0.7988,0.7988,0.7988,0.7988,0.7988,0.7988,0.7988,0.7988,0.7988,0.7988,0.7437,0.6581,0.6129,0.4572,0.2564,0.2163,0.1109,0.0,0.0,0.0,0.0,0.0,0.0,0.0,0.0,0.0,0.0,0.0,0.0,0.0,0.0,0.0,0.0,0.0,0.0,0.0,0.0,0.0,0.0,0.0,0.0,0.0,0.0,0.0,0.0,0.0,0.0,0.0,0.0,0.0,0.0,0.0,0.0,0.0,0.0,0.0,0.0,0.0,-0.3293,0.0,-0.6007,-0.7316,-0.7988,-0.7988,-0.7988,-0.7988,-0.7988,-0.7988,-0.7988,-0.7988,-0.7988,-0.7988,-0.7988,-0.7988,-0.7988,-0.7988,-0.7988,-0.7988,-0.8002,-0.816,-0.8289,-0.8435,0.8885,0.8885,0.8854,0.8811,0.8821,0.8851,0.8811,0.8821,0.8885,0.8885,0.8885,0.8885,0.8885,0.8885,0.0,0.8885,0.8885,0.8844,0.8801,0.8743,0.8669,0.857,0.8428,0.8378,0.8323,0.0,0.0,0.7988,0.7988,0.7988,0.7988,0.7988,0.7988,0.7988,0.7988,0.7988,0.7988,0.7988,0.7988,0.7988,0.7988,0.7988,0.7988,0.7988,0.7484,0.6681,0.6179,0.4622,0.2665,0.2163,0.1109,0.0,0.0,0.0,0.0,0.0,0.0,0.0,0.0,0.0,0.0,0.0,0.0,0.0,0.0,0.0,0.0,0.0,0.0,0.0,0.0,0.0,0.0,0.0,0.0,0.0,0.0,0.0,0.0,0.0,0.0,0.0,0.0,0.0,0.0,0.0,0.0,0.0,0.0,0.0,0.0,-0.2671,-0.3584,0.0,-0.6712,-0.7592,-0.7988,-0.7988,-0.7988,-0.7988,-0.7988,-0.7988,-0.7988,-0.7988,-0.7988,-0.7988,-0.7988,-0.7988,-0.7988,-0.7988,-0.7988,-0.7988,-0.8008,-0.8214,-0.836,-0.8503,0.8885,0.8885,0.0,0.0,0.8885,0.0,0.8885,0.8885,0.8885,0.8885,0.8885,0.8885,0.8885,0.8885,0.8885,0.8885,0.0,0.0,0.0,0.8804,0.8726,0.8726,0.8581,0.0,0.8354,0.834,0.8211,0.8005,0.7995,0.7988,0.7988,0.7988,0.7988,0.7988,0.7988,0.7988,0.7988,0.7988,0.7988,0.7988,0.7988,0.7988,0.7988,0.7988,0.7988,0.7839,0.6581,0.5272,0.3915,0.2614,0.126,0.0101,0.0051,0.0,0.0,0.0,0.0,0.0,0.0,0.0,0.0,0.0,0.0,0.0,0.0,0.0,0.0,0.0,0.0,0.0,0.0,0.0,0.0,0.0,0.0,0.0,0.0,0.0,0.0,0.0,0.0,0.0,0.0,0.0,0.0,0.0,0.0,0.0,0.0,0.0,-0.1237,-0.3914,-0.4016,-0.527,-0.7988,-0.7988,-0.7988,-0.7988,-0.7988,-0.7988,-0.7988,-0.7988,-0.7988,-0.7988,-0.7988,-0.7988,-0.7988,-0.7988,-0.7988,-0.7988,-0.7988,-0.7995,-0.8025,-0.8228,-0.8377,-0.852,0.0,0.0,0.8885,0.8885,0.8885,0.8885,0.8885,0.8885,0.8885,0.8885,0.8885,0.8885,0.8885,0.8885,0.8885,0.8885,0.8885,0.8885,0.8885,0.8851,0.8828,0.8828,0.8737,0.8638,0.8608,0.8492,0.836,0.8214,0.8099,0.7988,0.7988,0.7988,0.7988,0.7988,0.7988,0.7988,0.7988,0.7988,0.7988,0.7988,0.7988,0.7988,0.7988,0.7988,0.7988,0.7939,0.7637,0.6681,0.5325,0.3967,0.2614,0.136,0.0303,0.0,0.0,0.0,0.0,0.0,0.0,0.0,0.0,0.0,0.0,0.0,0.0,0.0,0.0,0.0,0.0,0.0,0.0,0.0,0.0,0.0,0.0,0.0,0.0,0.0,0.0,0.0,0.0,0.0,0.0,0.0,0.0,0.0,0.0,0.0,0.0,0.0,-0.1254,-0.3915,-0.4016,-0.527,-0.7988,-0.7988,-0.7988,-0.7988,-0.7988,-0.7988,-0.7988,-0.7988,-0.7988,-0.7988,-0.7988,-0.7988,-0.7988,-0.7988,-0.7988,-0.7988,-0.7988,-0.8113,-0.8235,-0.8377,-0.8526,-0.8679,0.8885,0.8885,0.8885,0.8885,0.8885,0.8885,0.8885,0.8885,0.8885,0.8885,0.8885,0.8885,0.8885,0.8885,0.8885,0.8885,0.8885,0.8885,0.8885,0.8885,0.8885,0.8885,0.8804,0.8781,0.8713,0.8628,0.8516,0.8367,0.8282,0.8208,0.8143,0.8143,0.8106,0.7988,0.7988,0.7988,0.7988,0.7988,0.7988,0.7988,0.7988,0.7988,0.7988,0.7988,0.7988,0.7939,0.7285,0.6631,0.5677,0.3767,0.2614,0.1762,0.0404,0.0,0.0,0.0,0.0,0.0,0.0,0.0,0.0,0.0,0.0,0.0,0.0,0.0,0.0,0.0,0.0,0.0,0.0,0.0,0.0,0.0,0.0,0.0,0.0,0.0,0.0,0.0,0.0,0.0,0.0,0.0,0.0,0.0,0.0,0.0,0.0,0.0,-0.0958,-0.3015,-0.3065,-0.4067,-0.6174,-0.7394,-0.7998,-0.7988,-0.7988,-0.7988,-0.7988,-0.7988,-0.7988,-0.7988,-0.7988,-0.7988,-0.7988,-0.7988,-0.7988,-0.7988,-0.7988,-0.8133,-0.834,-0.8428,-0.8577,-0.873,0.8885,0.8885,0.8885,0.8885,0.8885,0.8885,0.8885,0.8885,0.8885,0.8885,0.8885,0.8885,0.8885,0.8885,0.8885,0.8885,0.8885,0.8885,0.8885,0.8885,0.8885,0.8885,0.8885,0.8821,0.8747,0.8723,0.8648,0.8516,0.8492,0.8421,0.8354,0.8354,0.8231,0.8056,0.8056,0.8046,0.8025,0.8025,0.8012,0.7988,0.7988,0.7988,0.7988,0.7988,0.7988,0.7839,0.6731,0.6282,0.5927,0.3417,0.2465,0.2063,0.0706,0.0151,0.0,0.0,0.0,0.0,0.0,0.0,0.0,0.0,0.0,0.0,0.0,0.0,0.0,0.0,0.0,0.0,0.0,0.0,0.0,0.0,0.0,0.0,0.0,0.0,0.0,0.0,0.0,0.0,0.0,0.0,0.0,0.0,0.0,0.0,0.0,0.0,-0.0504,-0.1661,-0.1913,-0.2665,-0.3964,-0.6645,-0.8012,-0.7988,-0.7988,-0.7988,-0.7988,-0.7988,-0.7988,-0.7988,-0.7988,-0.7988,-0.7988,-0.7988,-0.7988,-0.7992,-0.8015,-0.8167,-0.8371,-0.8465,-0.8615,-0.8764,0.8885,0.8885,0.8885,0.8885,0.8885,0.8885,0.8885,0.8885,0.8885,0.8885,0.8885,0.8885,0.8885,0.8885,0.8885,0.8885,0.8885,0.8885,0.8885,0.8885,0.8885,0.8885,0.8885,0.8871,0.8848,0.8777,0.8699,0.8676,0.8547,0.8472,0.8448,0.8448,0.8435,0.8414,0.8414,0.8347,0.8235,0.8235,0.816,0.7988,0.7988,0.7988,0.7988,0.7988,0.7988,0.7988,0.7786,0.7686,0.7434,0.5877,0.462,0.3465,0.2113,0.0907,0.0,0.0,0.0,0.0,0.0,0.0,0.0,0.0,0.0,0.0,0.0,0.0,0.0,0.0,0.0,0.0,0.0,0.0,0.0,0.0,0.0,0.0,0.0,0.0,0.0,0.0,0.0,0.0,0.0,0.0,0.0,0.0,0.0,0.0,0.0,0.0,-0.0101,-0.0303,-0.141,-0.2663,-0.4009,-0.6642,-0.8012,-0.7988,-0.7988,-0.7988,-0.7988,-0.7988,-0.7988,-0.7988,-0.7988,-0.7988,-0.7988,-0.7988,-0.7988,-0.8002,-0.8184,-0.8323,-0.8469,-0.8618,-0.8771,-0.8851,0.8885,0.8885,0.8885,0.8885,0.8885,0.8885,0.8885,0.8885,0.8885,0.8885,0.8885,0.8885,0.8885,0.8885,0.8885,0.8885,0.8885,0.8885,0.8885,0.8885,0.8885,0.8885,0.8885,0.8885,0.8885,0.8814,0.8832,0.8832,0.8764,0.8686,0.8604,0.8604,0.856,0.8482,0.8482,0.8445,0.8384,0.8384,0.8343,0.8272,0.8194,0.8163,0.8153,0.8022,0.7988,0.7988,0.7988,0.7988,0.7789,0.6431,0.5122,0.3765,0.2414,0.1058,0.0,0.0,0.0,0.0,0.0,0.0,0.0,0.0,0.0,0.0,0.0,0.0,0.0,0.0,0.0,0.0,0.0,0.0,0.0,0.0,0.0,0.0,0.0,0.0,0.0,0.0,0.0,0.0,0.0,0.0,0.0,0.0,0.0,0.0,0.0,0.0,0.0,0.0,-0.0605,-0.1208,-0.1856,-0.3058,-0.5118,-0.8008,-0.7995,-0.7988,-0.7988,-0.703,-0.6578,-0.6628,-0.683,-0.6528,-0.5922,-0.6628,-0.6517,-0.5916,-0.6842,-0.7296,-0.7535,-0.8357,-0.8808,-0.8885,0.8885,0.8885,0.8885,0.8885,0.8885,0.8885,0.8885,0.8885,0.8885,0.8885,0.8885,0.8885,0.8885,0.8885,0.8885,0.8885,0.8885,0.8885,0.8885,0.8885,0.8885,0.8885,0.8885,0.8885,0.8885,0.8885,0.8885,0.8885,0.8885,0.8824,0.8764,0.8764,0.8703,0.8587,0.8587,0.8567,0.8533,0.8533,0.8516,0.8472,0.8364,0.8371,0.8303,0.815,0.8092,0.8039,0.8002,0.7988,0.7839,0.6833,0.5372,0.3815,0.2765,0.131,0.0,0.0,0.0,0.0,0.0,0.0,0.0,0.0,0.0,0.0,0.0,0.0,0.0,0.0,0.0,0.0,0.0,0.0,0.0,0.0,0.0,0.0,0.0,0.0,0.0,0.0,0.0,0.0,0.0,0.0,0.0,0.0,0.0,0.0,0.0,0.0,0.0,0.0,0.0,0.0,0.0,0.0,-0.2055,-0.6134,-0.6781,-0.708,-0.703,-0.547,-0.4766,-0.4816,-0.5322,-0.497,-0.4067,-0.5096,-0.4944,-0.4131,-0.5363,-0.6109,-0.6642,-0.7816,-0.8504,-0.8885,0.8885,0.8885,0.8885,0.8885,0.8885,0.8885,0.8885,0.8885,0.8885,0.8885,0.8885,0.8885,0.8885,0.8885,0.8885,0.8885,0.8885,0.8885,0.8885,0.8885,0.8885,0.8885,0.8885,0.8885,0.8885,0.8885,0.8885,0.8885,0.8885,0.8878,0.8865,0.8865,0.8861,0.8851,0.8851,0.8825,0.8693,0.8693,0.8611,0.8479,0.8472,0.8465,0.8452,0.8306,0.8252,0.8235,0.8092,0.7988,0.7988,0.7889,0.6124,0.3966,0.3865,0.2063,0.0,0.0,0.0,0.0,0.0,0.0,0.0,0.0,0.0,0.0,0.0,0.0,0.0,0.0,0.0,0.0,0.0,0.0,0.0,0.0,0.0,0.0,0.0,0.0,0.0,0.0,0.0,0.0,0.0,0.0,0.0,0.0,0.0,0.0,0.0,0.0,0.0,0.0,0.0,0.0,0.0,0.0,-0.0201,-0.0601,-0.3107,-0.4316,-0.4266,-0.331,-0.2907,-0.2957,-0.3764,-0.4066,-0.4021,-0.4092,-0.4073,-0.404,-0.4285,-0.5214,-0.6542,-0.6761,-0.7697,-0.8885,0.8885,0.8885,0.8885,0.8885,0.8885,0.8885,0.8885,0.8885,0.8885,0.8885,0.8885,0.8885,0.8885,0.8885,0.8885,0.8885,0.8885,0.8885,0.8885,0.8885,0.8885,0.8885,0.8885,0.8885,0.8885,0.8885,0.8885,0.8885,0.8885,0.8885,0.8885,0.8885,0.8885,0.8885,0.8885,0.8851,0.8797,0.8797,0.8818,0.8757,0.8662,0.8625,0.8608,0.8459,0.8401,0.8384,0.8235,0.8184,0.8015,0.7062,0.5522,0.3865,0.3015,0.1511,0.0,0.0,0.0,0.0,0.0,0.0,0.0,0.0,0.0,0.0,0.0,0.0,0.0,0.0,0.0,0.0,0.0,0.0,0.0,0.0,0.0,0.0,0.0,0.0,0.0,0.0,0.0,0.0,0.0,0.0,0.0,0.0,0.0,0.0,0.0,0.0,0.0,0.0,0.0,0.0,0.0,0.0,0.0,-0.005,-0.2157,-0.321,-0.316,-0.2561,-0.2261,-0.2263,-0.2596,-0.2303,-0.1591,-0.2401,-0.2277,-0.1608,-0.2605,-0.3345,-0.3929,-0.4958,-0.5697,-0.6311,0.8885,0.8885,0.8885,0.8885,0.8885,0.8885,0.8885,0.8885,0.8885,0.8885,0.8885,0.8885,0.8885,0.8885,0.8885,0.8885,0.8885,0.8885,0.8885,0.8885,0.8885,0.8885,0.8885,0.8885,0.8885,0.8885,0.8885,0.8885,0.8885,0.8885,0.8885,0.8885,0.8885,0.8885,0.8885,0.8885,0.8885,0.8885,0.8885,0.8875,0.8825,0.8781,0.8764,0.8611,0.8554,0.8533,0.8387,0.8336,0.8114,0.6621,0.5211,0.3829,0.244,0.1063,0.0,0.0,0.0,0.0,0.0,0.0,0.0,0.0,0.0,0.0,0.0,0.0,0.0,0.0,0.0,0.0,0.0,0.0,0.0,0.0,0.0,0.0,0.0,0.0,0.0,0.0,0.0,0.0,0.0,0.0,0.0,0.0,0.0,0.0,0.0,0.0,0.0,0.0,0.0,0.0,0.0,0.0,0.0,0.0,-0.1257,-0.1865,-0.1825,-0.1523,-0.1376,-0.1385,-0.1351,-0.0836,-0.0052,-0.1013,-0.0811,-0.011,-0.1099,-0.1772,-0.2347,-0.3409,-0.408,-0.4693,0.8885,0.8885,0.8885,0.8885,0.8885,0.8885,0.8885,0.8885,0.8885,0.8885,0.8885,0.8885,0.8885,0.8885,0.8885,0.8885,0.8885,0.8885,0.8885,0.8885,0.8885,0.8885,0.8885,0.8885,0.8885,0.8885,0.8885,0.8885,0.8885,0.8885,0.8885,0.8885,0.8885,0.8885,0.8885,0.8885,0.8885,0.8885,0.8885,0.8885,0.8885,0.8885,0.8868,0.8771,0.8713,0.8693,0.8537,0.8482,0.8269,0.6782,0.5354,0.3914,0.2444,0.1075,0.0,0.0,0.0,0.0,0.0,0.0,0.0,0.0,0.0,0.0,0.0,0.0,0.0,0.0,0.0,0.0,0.0,0.0,0.0,0.0,0.0,0.0,0.0,0.0,0.0,0.0,0.0,0.0,0.0,0.0,0.0,0.0,0.0,0.0,0.0,0.0,0.0,0.0,0.0,0.0,0.0,0.0,0.0,0.0,0.0,0.0,0.0,0.0,0.0,0.0,0.0,0.0,0.0,0.0,0.0,0.0,0.0,-0.0896,-0.218,-0.218,-0.3129,-0.4693,0.8885,0.8885,0.8885,0.8885,0.8885,0.8885,0.8885,0.8885,0.8885,0.8885,0.8885,0.8885,0.8885,0.8885,0.8885,0.8885,0.8885,0.8885,0.8885,0.8885,0.8885,0.8885,0.8885,0.8885,0.8885,0.8885,0.8885,0.8885,0.8885,0.8885,0.8885,0.8885,0.8885,0.8885,0.8885,0.8885,0.8885,0.8885,0.8885,0.8885,0.8885,0.8885,0.8878,0.8834,0.8814,0.8797,0.8699,0.799,0.6843,0.5322,0.3873,0.2388,0.1058,0.0316,0.0,0.0,0.0,0.0,0.0,0.0,0.0,0.0,0.0,0.0,0.0,0.0,0.0,0.0,0.0,0.0,0.0,0.0,0.0,0.0,0.0,0.0,0.0,0.0,0.0,0.0,0.0,0.0,0.0,0.0,0.0,0.0,0.0,0.0,0.0,0.0,0.0,0.0,0.0,0.0,0.0,0.0,0.0,0.0,0.0,0.0,0.0,0.0,0.0,0.0,0.0,0.0,0.0,0.0,0.0,0.0,0.0,-0.028,-0.0672,-0.0672,-0.0952,-0.1567,0.8885,0.8885,0.8885,0.8885,0.8885,0.8885,0.8885,0.8885,0.8885,0.8885,0.8885,0.8885,0.8885,0.8885,0.8885,0.8885,0.8885,0.8885,0.8885,0.8885,0.8885,0.8885,0.8885,0.8885,0.8885,0.8885,0.8885,0.8885,0.8885,0.8885,0.8885,0.8885,0.8885,0.8885,0.8885,0.8885,0.8885,0.8885,0.8885,0.8885,0.8885,0.8885,0.8885,0.8885,0.8885,0.8871,0.8832,0.7807,0.6367,0.4837,0.2915,0.1076,0.0269,0.0,0.0,0.0,0.0,0.0,0.0,0.0,0.0,0.0,0.0,0.0,0.0,0.0,0.0,0.0,0.0,0.0,0.0,0.0,0.0,0.0,0.0,0.0,0.0,0.0,0.0,0.0,0.0,0.0,0.0,0.0,0.0,0.0,0.0,0.0,0.0,0.0,0.0,0.0,0.0,0.0,0.0,0.0,0.0,0.0,0.0,0.0,0.0,0.0,0.0,0.0,0.0,0.0,0.0,0.0,0.0,0.0,0.0,0.0,0.0,0.0,0.0,-0.0224,0.8885,0.8885,0.8885,0.8885,0.8885,0.8885,0.8885,0.8885,0.8885,0.8885,0.8885,0.8885,0.8885,0.8885,0.8885,0.8885,0.8885,0.8885,0.8885,0.8885,0.8885,0.8885,0.8885,0.8885,0.8885,0.8885,0.8885,0.8885,0.8885,0.8885,0.8885,0.8885,0.8885,0.8885,0.8885,0.8885,0.8885,0.8885,0.8885,0.8885,0.8885,0.8885,0.8885,0.8885,0.8885,0.8885,0.8885,0.7931,0.6364,0.4691,0.227,0.0,0.0,0.0,0.0,0.0,0.0,0.0,0.0,0.0,0.0,0.0,0.0,0.0,0.0,0.0,0.0,0.0,0.0,0.0,0.0,0.0,0.0,0.0,0.0,0.0,0.0,0.0,0.0,0.0,0.0,0.0,0.0,0.0,0.0,0.0,0.0,0.0,0.0,0.0,0.0,0.0,0.0,0.0,0.0,0.0,0.0,0.0,0.0,0.0,0.0,0.0,0.0,0.0,0.0,0.0,0.0,0.0,0.0,0.0,0.0,0.0,0.0,0.0,0.0,-0.0168,0.8885,0.8885,0.8885,0.8885,0.8885,0.8885,0.8885,0.8885,0.8885,0.8885,0.8885,0.8885,0.8885,0.8885,0.8885,0.8885,0.8885,0.8885,0.8885,0.8885,0.8885,0.8885,0.8885,0.8885,0.8885,0.8885,0.8885,0.8885,0.8885,0.8885,0.8885,0.8885,0.8885,0.8885,0.8885,0.8885,0.8885,0.8885,0.8885,0.8885,0.8885,0.8885,0.8885,0.8885,0.8885,0.8885,0.8885,0.7703,0.5633,0.2117,0.0557,0.0,0.0,0.0,0.0,0.0,0.0,0.0,0.0,0.0,0.0,0.0,0.0,0.0,0.0,0.0,0.0,0.0,0.0,0.0,0.0,0.0,0.0,0.0,0.0,0.0,0.0,0.0,0.0,0.0,0.0,0.0,0.0,0.0,0.0,0.0,0.0,0.0,0.0,0.0,0.0,0.0,0.0,0.0,0.0,0.0,0.0,0.0,0.0,0.0,0.0,0.0,0.0,0.0,0.0,0.0,0.0,0.0,0.0,0.0,0.0,0.0,0.0,0.0,0.0,-0.0056,0.8885,0.8885,0.8885,0.8885,0.8885,0.8885,0.8885,0.8885,0.8885,0.8885,0.8885,0.8885,0.8885,0.8885,0.8885,0.8885,0.8885,0.8885,0.8885,0.8885,0.8885,0.8885,0.8885,0.8885,0.8885,0.8885,0.8885,0.8885,0.8885,0.8885,0.8885,0.8885,0.8885,0.8885,0.8885,0.8885,0.8885,0.8885,0.8885,0.8885,0.8885,0.8885,0.8885,0.8885,0.8885,0.8885,0.8885,0.8273,0.6649,0.1672,0.0,0.0,0.0,0.0,0.0,0.0,0.0,0.0,0.0,0.0,0.0,0.0,0.0,0.0,0.0,0.0,0.0,0.0,0.0,0.0,0.0,0.0,0.0,0.0,0.0,0.0,0.0,0.0,0.0,0.0,0.0,0.0,0.0,0.0,0.0,0.0,0.0,0.0,0.0,0.0,0.0,0.0,0.0,0.0,0.0,0.0,0.0,0.0,0.0,0.0,0.0,0.0,0.0,0.0,0.0,0.0,0.0,0.0,0.0,0.0,0.0,0.0,0.0,0.0,0.0,0.0,0.8885,0.8885,0.8885,0.8885,0.8885,0.8885,0.8885,0.8885,0.8885,0.8885,0.8885,0.8885,0.8885,0.8885,0.8885,0.8885,0.8885,0.8885,0.8885,0.8885,0.8885,0.8885,0.8885,0.8885,0.8885,0.8885,0.8885,0.8885,0.8885,0.8885,0.8885,0.8885,0.8885,0.8885,0.8885,0.8885,0.8885,0.8885,0.8885,0.8885,0.8885,0.8885,0.8885,0.8885,0.8885,0.8885,0.8885,0.8898,0.8125,0.3181,0.0837,0.0,0.0,0.0,0.0,0.0,0.0,0.0,0.0,0.0,0.0,0.0,0.0,0.0,0.0,0.0,0.0,0.0,0.0,0.0,0.0,0.0,0.0,0.0,0.0,0.0,0.0,0.0,0.0,0.0,0.0,0.0,0.0,0.0,0.0,0.0,0.0,0.0,0.0,0.0,0.0,0.0,0.0,0.0,0.0,0.0,0.0,0.0,0.0,0.0,0.0,0.0,0.0,0.0,0.0,0.0,0.0,0.0,0.0,0.0,0.0,0.0,0.0,0.0,0.0,0.0,0.8885,0.8885,0.8885,0.8885,0.8885,0.8885,0.8885,0.8885,0.8885,0.8885,0.8885,0.8885,0.8885,0.8885,0.8885,0.8885,0.8885,0.8885,0.8885,0.8885,0.8885,0.8885,0.8885,0.8885,0.8885,0.8885,0.8885,0.8885,0.8885,0.8885,0.8885,0.8885,0.8885,0.8885,0.8885,0.8885,0.8885,0.8885,0.8885,0.8885,0.8885,0.8885,0.8885,0.8885,0.8885,0.8885,0.8885,0.8898,0.8804,0.7952,0.4242,0.0,0.0,0.0,0.0,0.0,0.0,0.0,0.0,0.0,0.0,0.0,0.0,0.0,0.0,0.0,0.0,0.0,0.0,0.0,0.0,0.0,0.0,0.0,0.0,0.0,0.0,0.0,0.0,0.0,0.0,0.0,0.0,0.0,0.0,0.0,0.0,0.0,0.0,0.0,0.0,0.0,0.0,0.0,0.0,0.0,0.0,0.0,0.0,0.0,0.0,0.0,0.0,0.0,0.0,0.0,0.0,0.0,0.0,0.0,0.0,0.0,0.0,0.0,0.0,0.0,0.8885,0.8885,0.8885,0.8885,0.8885,0.8885,0.8885,0.8885,0.8885,0.8885,0.8885,0.8885,0.8885,0.8885,0.8885,0.8885,0.8885,0.8885,0.8885,0.8885,0.8885,0.8885,0.8885,0.8885,0.8885,0.8885,0.8885,0.8885,0.8885,0.8885,0.8885,0.8885,0.8885,0.8885,0.8885,0.8885,0.8885,0.8885,0.8885,0.8885,0.8885,0.8885,0.8885,0.8885,0.8885,0.8885,0.8885,0.8892,0.839,0.5075,0.2174,0.0,0.0,0.0,0.0,0.0,0.0,0.0,0.0,0.0,0.0,0.0,0.0,0.0,0.0,0.0,0.0,0.0,0.0,0.0,0.0,0.0,0.0,0.0,0.0,0.0,0.0,0.0,0.0,0.0,0.0,0.0,0.0,0.0,0.0,0.0,0.0,0.0,0.0,0.0,0.0,0.0,0.0,0.0,0.0,0.0,0.0,0.0,0.0,0.0,0.0,0.0,0.0,0.0,0.0,0.0,0.0,0.0,0.0,0.0,0.0,0.0,0.0,0.0,0.0,0.0]}]]